GFSMA_con_mlcape_000.txt.gz
CAPE
360 1019 1075 961 1388 1169 1535 721 890 665 731 754 683 668 931 813 575 767 384 254 244 494 973 1250 1158 1080 961 817 726 479 633 600 300 391 546 603 467 402 398 335 322 391 415
1178 1316 1002 468 883 1232 719 843 663 890 642 745 594 659 774 851 636 955 667 708 181 419 1378 1112 972 928 992 952 788 551 332 280 135 219 295 451 360 378 427 316 360 333 324
597 880 677 614 847 1057 913 646 765 703 654 807 717 625 719 720 928 566 742 839 441 419 902 1502 1150 616 460 1014 1042 647 315 210 118 142 103 191 246 251 362 427 471 350 374
901 1130 768 611 607 1041 821 550 526 639 493 894 724 749 729 653 799 851 741 632 579 648 656 1113 957 657 607 716 1246 1036 451 171 71 47 63 121 122 222 223 302 378 436 347
1006 742 802 653 509 513 1134 702 249 368 595 615 462 518 597 667 552 892 900 575 594 841 733 425 297 304 799 531 443 797 277 61 85 51 51 91 147 150 183 187 270 359 408
618 680 828 685 466 376 612 684 395 175 328 456 341 414 482 759 1154 901 666 617 707 744 614 452 290 330 409 396 159 328 301 56 145 96 48 100 173 198 194 202 201 328 349
542 512 652 626 485 550 474 562 355 220 384 448 438 318 262 486 865 943 496 392 507 691 425 314 240 222 234 216 150 435 290 277 108 117 157 131 223 251 227 187 214 250 316
369 501 448 786 541 411 487 463 370 202 297 379 265 175 133 275 747 863 711 601 307 397 403 353 208 69 222 301 295 460 304 375 324 121 166 116 136 271 194 180 190 251 291
307 410 412 501 599 633 374 441 437 230 231 369 329 192 111 158 216 331 427 424 444 412 394 286 308 283 297 349 503 340 357 384 599 464 227 215 222 224 195 170 116 223 308
440 348 359 433 596 718 368 745 371 220 190 174 204 220 296 335 169 228 165 312 311 240 329 357 311 538 386 333 504 535 244 179 256 278 498 493 221 189 188 177 194 189 319
478 338 295 313 602 784 629 410 467 307 152 97 124 157 243 292 199 91 99 65 296 252 284 261 325 417 422 394 497 404 342 266 186 220 353 503 502 225 245 270 234 244 311
407 342 266 402 521 604 460 345 424 355 153 161 171 132 171 140 150 176 62 89 124 291 359 405 438 277 296 477 460 355 364 234 249 341 335 412 508 411 350 333 343 346 379
223 218 241 341 445 578 483 385 312 126 121 86 65 133 168 186 165 113 99 81 102 223 384 458 305 200 292 286 471 462 363 286 161 270 394 369 416 431 362 320 265 346 337
114 164 356 369 338 393 350 325 451 151 156 149 153 125 200 191 107 45 62 53 68 147 142 124 363 383 393 396 382 477 312 178 129 172 289 371 545 473 420 404 509 845 1022
140 324 338 314 274 285 473 233 151 165 165 114 92 39 13 17 157 232 172 192 110 24 113 86 14 137 162 311 347 420 515 276 170 249 318 363 380 326 421 619 548 264 107
215 452 397 272 177 171 214 214 216 210 92 62 16 17 1 0 120 154 207 184 186 148 43 87 112 238 163 367 468 509 332 233 174 178 171 243 252 227 146 98 45 13 6
203 127 179 367 308 154 140 167 213 110 46 4 1 38 3 0 112 142 91 163 92 102 89 92 136 182 200 282 185 197 97 33 0 11 27 20 16 6 0 0 0 0 0
189 69 105 117 131 149 131 161 105 32 7 15 38 62 52 55 155 156 45 52 123 179 102 83 142 113 112 283 63 51 0 0 0 0 0 0 0 0 0 0 0 0 0
111 74 142 100 88 7 0 0 0 0 0 0 0 0 0 0 12 13 72 83 152 176 169 72 75 153 86 98 118 16 4 0 0 0 0 0 0 0 0 0 0 0 0
80 43 33 73 86 46 3 0 0 0 0 0 0 0 0 1 0 0 0 0 3 9 57 47 61 65 61 102 126 79 3 0 0 0 0 0 0 0 0 0 0 0 0
59 0 0 0 2 0 0 0 0 0 0 0 0 0 0 0 0 0 0 0 0 5 1 13 7 27 64 150 168 77 84 28 0 0 0 0 0 0 0 0 0 0 0
68 32 13 5 6 0 0 0 0 0 0 0 0 0 0 0 0 0 0 0 0 1 25 32 72 82 4 0 0 0 0 0 0 0 0 0 0 0 0 0 0 0 0
71 27 0 0 0 0 0 1 1 0 0 0 0 0 0 0 0 0 0 0 0 0 0 20 16 0 0 0 0 0 0 0 0 0 0 0 0 0 0 0 0 0 0
0 0 0 0 0 0 0 0 15 0 0 0 0 0 0 0 0 0 0 0 0 0 0 0 0 0 0 0 0 0 0 0 0 0 0 0 0 0 0 0 0 0 0
0 0 0 0 0 0 0 0 0 0 0 0 0 0 0 0 0 0 0 0 0 0 0 0 0 0 0 0 0 0 0 0 0 0 0 0 0 0 0 0 0 0 0
0 0 0 0 0 0 0 0 0 0 0 0 0 0 0 0 0 0 0 0 0 0 0 0 0 0 0 0 0 0 0 0 0 0 0 0 0 0 0 0 0 0 0

GFSMA_con_mlcape_003.txt.gz
CAPE
819 670 1099 1083 1148 1246 1219 928 967 727 746 866 675 747 643 408 551 336 415 480 284 569 1171 1003 980 862 883 564 523 636 526 570 434 396 470 511 445 337 312 339 408 321 171
228 355 938 651 762 602 707 805 555 637 456 554 628 551 492 474 375 320 310 168 274 405 1127 1082 1206 1066 1008 884 692 636 522 750 615 230 334 468 459 382 352 293 325 349 370
713 738 654 552 357 407 457 372 551 577 607 683 621 510 568 213 508 466 384 380 470 191 532 990 1029 1155 1139 1044 958 838 431 536 283 148 195 249 313 318 316 254 389 344 337
596 623 631 456 431 455 418 390 376 547 442 676 521 581 763 721 850 457 616 659 446 384 602 971 1030 1068 702 757 713 1097 552 608 238 124 217 171 226 213 228 315 352 367 295
720 552 709 544 403 360 379 372 369 508 338 495 674 493 686 588 593 718 695 627 570 524 483 812 1458 999 870 651 495 682 305 278 228 71 83 156 168 151 197 207 221 285 279
703 461 461 608 553 301 327 474 297 173 228 379 575 517 434 572 647 472 561 673 475 573 676 418 517 829 651 772 451 218 263 175 39 165 119 117 153 172 173 163 184 198 255
385 350 320 380 474 389 231 228 368 218 58 436 388 306 320 328 120 406 485 517 524 635 511 217 390 266 437 391 424 149 197 388 160 281 260 170 158 234 200 167 187 182 224
264 257 398 387 412 433 410 355 299 239 254 315 167 131 79 132 233 514 692 441 366 555 454 510 517 335 184 193 113 172 286 464 260 297 178 123 212 312 249 221 191 169 182
125 142 161 237 440 402 344 396 305 210 152 292 205 35 63 48 129 322 566 509 444 347 433 379 270 245 189 152 197 190 350 337 407 597 443 237 200 219 241 258 203 212 215
111 163 125 197 364 475 391 339 284 202 184 95 199 196 134 164 78 43 245 357 508 432 405 271 272 222 171 174 313 356 293 183 265 548 721 595 322 220 166 310 233 101 260
68 138 222 203 318 328 437 405 259 175 149 117 64 70 87 142 150 83 46 122 367 339 283 292 266 277 251 278 304 381 407 167 222 215 244 356 329 223 221 258 265 196 233
42 197 229 222 214 291 272 420 304 165 111 64 35 36 62 91 73 100 124 59 72 138 200 227 217 207 280 295 372 405 435 280 239 200 228 210 444 445 286 339 360 285 281
61 120 178 145 254 302 276 305 321 218 158 73 33 62 59 65 79 114 153 92 99 115 203 270 289 257 220 261 407 557 490 361 341 293 333 298 326 410 454 333 326 319 389
2 50 90 139 198 285 236 202 222 177 128 55 61 59 72 70 126 160 98 44 15 100 95 172 281 239 195 185 230 449 386 412 375 262 283 416 464 458 391 321 287 264 348
13 97 186 228 266 218 117 79 110 145 66 47 43 45 115 68 10 114 94 68 46 22 46 68 121 158 221 358 342 421 309 378 278 210 211 224 408 500 312 336 465 865 801
60 199 213 160 140 116 54 52 63 116 82 77 69 46 34 36 1 65 49 52 144 90 27 47 88 107 144 273 288 280 223 214 186 151 144 221 352 345 378 303 230 70 13
35 66 124 144 67 43 35 68 57 72 79 37 18 1 0 0 7 70 42 30 34 61 50 75 85 147 111 92 113 103 66 88 66 83 98 121 143 126 50 12 0 0 0
43 3 55 79 49 40 63 76 55 40 29 5 29 29 19 0 0 5 21 28 72 82 72 97 106 60 34 96 19 2 5 0 1 0 0 0 0 0 0 0 0 0 0
35 48 36 31 20 1 1 0 0 0 0 0 0 0 0 1 0 0 0 0 6 36 100 112 84 47 8 25 2 0 0 0 0 0 0 0 0 0 0 0 0 0 0
1 59 43 2 0 0 0 0 0 0 0 0 0 0 0 0 0 0 0 0 0 0 27 33 21 13 11 12 0 0 0 0 0 0 0 0 0 0 0 0 0 0 0
0 2 5 0 0 0 0 0 0 0 0 0 0 0 0 0 0 0 0 0 0 0 0 35 23 19 18 38 94 41 0 0 0 0 0 0 0 0 0 0 0 0 0
1 0 0 0 0 0 0 0 0 0 0 0 0 0 0 0 0 0 0 0 0 0 0 0 12 1 0 0 0 0 11 0 0 0 0 0 0 0 0 0 0 0 0
0 0 0 0 0 0 0 0 0 0 0 0 0 1 0 0 0 0 0 0 0 0 0 0 0 0 0 0 0 0 0 0 0 0 0 0 0 0 0 0 0 0 0
0 0 0 0 0 0 0 3 0 0 0 0 0 0 0 0 0 0 0 0 0 0 0 0 0 0 0 0 0 0 0 0 0 0 0 0 0 0 0 0 0 0 0
0 0 0 0 0 0 0 0 0 0 0 0 0 0 0 0 0 0 0 0 0 0 0 0 0 0 0 0 0 0 0 0 0 0 0 0 0 0 0 0 0 0 0
0 0 0 0 0 0 0 0 0 0 0 0 0 0 0 0 0 0 0 0 0 0 0 0 0 0 0 0 0 0 0 0 0 0 0 0 0 0 0 0 0 0 0

GFSMA_con_mlcape_009.txt.gz
CAPE
1027 1329 1176 1096 940 1076 834 710 820 652 614 652 668 442 429 257 99 319 258 299 541 308 576 1366 1192 1009 974 912 704 603 602 434 359 255 346 431 320 350 328 225 89 144 150
751 944 759 712 714 781 795 865 570 615 622 558 572 606 317 412 191 240 317 240 452 224 352 1156 1264 991 939 977 845 766 754 631 551 286 362 256 269 170 271 340 225 144 167
451 491 577 468 381 534 606 612 471 377 492 518 522 587 379 381 260 252 246 139 237 255 369 552 1247 1048 1017 953 828 770 704 651 630 416 223 217 188 201 141 306 333 255 221
278 246 233 254 228 338 418 394 278 223 306 405 478 486 479 392 310 249 283 231 144 209 224 407 839 1001 967 1070 1064 874 780 635 522 472 291 210 167 125 115 198 229 237 287
124 395 291 177 419 318 295 321 183 174 172 346 361 403 380 322 257 349 291 194 184 230 157 298 345 842 954 1168 1071 1090 970 730 481 273 282 152 192 171 141 103 173 188 164
297 430 442 471 393 324 255 237 197 184 161 230 325 460 422 342 285 320 307 261 251 295 233 214 188 296 602 1134 690 799 966 1083 596 212 89 76 36 40 119 119 132 142 180
470 282 275 221 241 152 226 260 226 92 96 208 226 201 215 424 405 369 385 440 435 435 352 361 292 410 599 557 293 341 511 930 308 66 218 99 52 22 35 137 148 152 154
305 236 161 153 186 68 90 255 220 85 41 157 168 92 109 222 299 299 339 406 485 445 419 464 384 293 204 167 142 218 266 167 242 84 79 169 90 92 44 68 103 87 114
122 116 111 77 88 102 20 126 216 95 0 73 79 53 51 38 97 146 151 335 377 404 438 403 303 300 287 234 278 109 65 137 167 163 100 226 168 100 100 62 92 102 113
2 44 58 81 76 60 49 47 209 160 47 43 77 108 81 36 22 40 121 295 468 383 329 312 341 366 286 206 190 189 74 113 105 90 127 240 206 126 83 68 99 120 135
0 5 48 66 85 68 48 65 171 194 95 1 41 89 96 112 43 19 0 0 93 205 197 209 245 235 237 203 165 149 121 88 82 149 156 131 188 115 90 114 159 162 186
0 10 15 55 86 77 47 45 165 205 132 99 33 57 73 82 41 28 29 11 0 0 78 163 201 225 205 221 200 213 205 168 168 126 149 129 67 63 127 130 48 144 136
0 0 9 60 101 104 69 63 142 164 149 74 49 52 44 41 38 23 23 17 1 26 88 127 127 147 162 182 211 273 265 160 172 187 209 149 125 131 127 19 16 59 135
0 0 31 64 78 96 113 127 160 155 106 87 33 29 17 23 45 43 23 17 10 0 6 70 57 98 113 133 143 207 216 154 147 157 134 92 72 121 168 157 113 142 186
27 0 0 3 31 75 124 125 144 137 103 65 64 24 15 0 37 36 39 54 24 1 8 18 29 49 87 112 104 121 111 120 109 87 60 42 78 86 127 129 167 154 113
14 33 35 59 99 110 120 113 108 87 67 30 35 49 43 31 56 63 50 27 18 11 11 10 25 43 77 138 89 85 139 11 32 72 59 28 33 57 67 106 160 138 87
6 10 20 24 16 13 42 35 29 21 15 11 27 32 30 40 38 31 25 7 2 3 15 8 14 15 36 4 0 1 0 0 0 0 19 25 18 55 76 87 56 38 13
29 5 10 6 0 0 0 20 31 34 33 30 24 7 3 8 15 16 8 6 4 11 10 3 3 0 14 0 0 0 0 0 0 0 0 0 0 3 12 5 0 0 0
0 0 4 0 0 0 0 0 0 0 0 0 1 0 0 2 1 0 4 0 0 7 4 18 4 1 5 0 0 0 0 0 0 0 0 0 0 0 0 0 0 0 0
0 0 0 0 0 0 0 0 0 0 0 0 0 0 0 0 0 0 0 0 0 0 0 0 5 3 0 0 0 0 0 0 0 0 0 0 0 0 0 0 0 0 0
0 0 0 0 0 0 0 0 0 0 0 0 0 0 0 0 0 0 0 0 0 0 0 0 0 1 2 2 6 0 0 0 0 0 0 0 0 0 0 0 0 0 0
0 0 0 0 0 0 0 0 0 0 0 0 0 1 2 1 2 1 0 0 0 0 0 0 0 0 0 0 0 2 0 0 0 0 0 0 0 0 0 0 0 0 0
0 0 0 0 0 0 0 0 0 0 0 1 1 1 1 1 0 0 0 0 0 0 0 0 0 0 0 0 0 1 1 0 0 0 0 0 0 0 0 0 0 0 0
0 0 0 0 0 0 0 0 0 0 0 0 0 0 0 0 0 0 0 0 0 0 0 0 0 0 0 0 0 0 0 0 0 0 0 0 0 0 0 0 0 0 0
0 0 0 0 0 0 0 0 0 0 0 0 0 0 0 0 0 0 0 0 0 0 0 0 0 0 0 0 0 0 0 0 0 0 0 0 0 0 0 0 0 0 0
0 0 0 0 0 0 0 0 0 0 0 0 0 0 0 0 0 0 0 0 0 0 0 0 0 0 0 0 0 0 0 0 0 0 0 0 0 0 0 0 0 0 0

GFSMA_con_mlcape_012.txt.gz
CAPE
794 1159 1209 1330 1194 1037 1167 986 946 898 822 821 779 622 496 379 237 85 411 820 649 399 845 1264 1231 1093 858 616 708 631 717 594 419 483 250 423 360 286 171 105 238 92 84
781 716 845 761 956 902 929 813 775 792 694 656 585 610 492 426 194 37 261 363 452 382 217 660 1232 1153 1037 916 709 624 573 606 436 384 204 408 339 200 273 247 146 93 139
544 523 626 749 734 659 652 704 761 690 654 663 608 537 537 449 401 108 177 287 342 463 439 440 948 1196 928 920 1011 816 679 583 497 427 288 283 153 146 129 286 285 170 170
459 466 572 669 558 471 423 395 469 394 357 436 516 499 575 488 475 378 154 242 181 207 311 323 462 435 823 882 1045 915 750 567 563 532 313 194 171 175 129 140 216 265 177
635 340 276 282 386 350 277 350 346 328 156 203 440 420 490 485 442 429 220 298 266 244 218 233 194 164 554 1076 1081 987 874 722 613 463 354 283 212 171 125 106 137 177 208
440 401 243 313 317 240 311 302 304 258 210 138 287 444 418 443 361 411 385 333 310 250 179 223 191 311 241 856 1163 1060 989 551 682 496 279 235 148 159 122 114 109 98 152
481 290 265 296 356 421 418 309 276 242 196 208 218 152 216 306 385 363 397 401 335 305 232 297 243 327 227 196 440 1032 1035 687 289 297 135 72 17 22 33 37 56 75 101
320 346 265 234 151 234 184 167 262 210 166 192 115 131 96 199 331 423 433 451 438 537 436 375 342 361 408 351 421 270 233 466 375 202 105 33 26 49 40 32 32 42 51
62 136 190 213 142 131 139 97 225 250 184 75 129 50 63 53 137 212 296 388 430 480 488 501 535 514 446 384 326 185 85 79 214 177 76 43 39 45 75 45 37 24 38
2 15 82 112 118 54 112 118 129 263 221 93 75 78 47 20 55 74 146 191 311 363 386 455 494 501 403 382 355 277 194 170 88 68 64 138 69 56 69 56 59 42 56
0 0 2 38 46 41 116 115 126 123 228 149 94 89 91 122 35 8 21 119 209 373 439 394 358 425 457 405 363 302 193 149 145 39 55 65 104 104 95 83 98 86 122
0 0 11 24 46 61 94 108 123 134 161 227 131 68 79 91 128 95 47 10 1 0 26 129 173 213 296 314 317 263 214 160 157 100 84 111 196 85 66 160 117 154 88
9 9 1 23 59 83 116 106 108 135 171 216 142 105 77 94 95 78 40 16 17 7 33 120 138 176 294 268 302 332 266 160 147 126 124 137 85 103 64 60 48 106 3
9 15 2 35 60 106 132 117 91 130 164 193 196 93 53 57 75 72 65 38 27 23 23 54 71 130 157 190 199 187 276 165 119 124 124 91 76 52 83 115 83 0 0
27 41 37 84 115 125 171 172 151 161 192 184 176 74 60 35 59 91 85 65 52 43 49 50 63 76 96 119 159 154 161 92 86 68 50 16 27 38 56 67 98 113 107
22 43 80 108 117 113 156 151 147 140 114 74 75 91 83 72 60 92 74 60 48 61 58 21 13 29 113 42 46 48 28 0 2 30 57 35 20 18 26 31 64 78 76
13 23 28 35 51 93 122 107 92 79 76 50 33 56 83 76 62 69 62 32 17 22 27 13 15 19 10 4 0 0 0 0 0 0 9 25 28 17 19 23 48 73 60
0 5 4 1 0 1 24 32 25 18 10 17 20 29 32 35 37 26 13 12 11 11 7 16 2 1 1 0 0 0 0 0 0 0 0 0 0 0 0 0 0 0 1
0 0 0 0 1 0 1 1 1 0 3 3 5 3 6 8 2 1 3 4 13 18 6 26 2 1 1 0 0 0 0 0 0 0 0 0 0 0 0 0 0 0 0
0 0 0 0 0 0 0 0 0 0 0 0 0 0 0 0 0 0 0 0 4 7 1 0 1 1 0 1 0 0 0 0 0 0 0 0 0 0 0 0 0 0 0
0 0 0 0 0 0 0 0 0 0 0 0 0 0 2 1 0 0 0 0 0 0 0 0 0 3 3 0 0 0 2 0 0 0 0 0 0 0 0 0 0 0 0
0 0 0 0 0 0 0 0 0 0 0 0 0 1 1 0 0 0 0 0 0 0 0 1 3 2 0 0 0 1 0 0 0 0 0 0 0 0 0 0 0 0 0
0 0 0 0 0 0 0 0 0 0 0 0 1 2 0 0 0 0 0 0 0 0 0 0 0 0 0 0 1 1 1 1 1 0 0 0 0 1 1 0 0 0 0
0 0 0 0 0 0 0 0 0 0 0 0 0 0 0 0 0 0 0 0 0 0 0 0 0 0 0 0 0 0 0 0 0 0 0 0 0 0 0 0 0 0 0
0 0 0 0 0 0 0 0 0 0 0 0 0 0 0 0 0 0 0 0 0 0 0 0 0 0 0 0 0 0 0 0 0 0 0 0 0 0 0 0 0 0 0
0 0 0 0 0 0 0 0 0 0 0 0 0 0 0 0 0 0 0 0 0 0 0 0 0 0 0 0 0 0 0 0 0 0 0 0 0 0 0 0 0 0 0

GFSMA_con_mlcape_015.txt.gz
CAPE
67 753 1544 1790 1786 1845 1815 1800 1798 1698 1309 1194 1127 1025 853 832 720 423 463 761 621 502 550 1271 551 1079 883 686 586 622 704 555 425 378 377 338 316 213 147 223 135 109 50
297 522 788 981 1636 1460 1593 1592 1437 1415 1277 1157 1025 891 923 1118 740 543 233 616 579 570 506 978 218 1164 978 800 657 795 753 676 523 344 384 294 254 250 218 208 167 130 69
426 463 985 1128 1486 1347 947 1409 1447 1496 1382 1381 1143 636 947 1097 1020 601 416 504 704 397 461 178 319 430 996 1023 986 711 579 581 484 342 246 196 289 176 127 249 196 114 91
929 671 584 889 1232 1446 1050 956 866 989 976 1003 1038 867 653 876 1010 919 641 406 648 605 418 410 188 265 168 899 892 972 763 556 472 424 348 200 184 118 132 132 210 219 132
1276 1195 950 777 988 1084 1065 850 625 569 792 694 693 804 649 525 858 914 818 575 520 662 537 667 257 199 157 282 904 1002 939 653 453 435 323 276 230 149 61 119 145 170 193
623 1105 895 834 908 614 759 845 801 745 848 683 490 513 905 693 624 837 967 757 569 667 764 732 619 288 182 160 417 1153 884 939 512 389 239 265 192 157 57 52 93 116 175
982 1043 992 842 539 450 765 879 714 712 681 794 494 411 499 655 725 1030 1067 719 776 790 851 858 562 549 556 371 291 605 1068 935 767 222 101 162 151 84 70 28 15 48 79
520 571 616 816 494 595 338 526 624 582 509 774 334 348 231 423 550 803 993 984 995 1030 960 974 865 926 850 892 578 394 338 587 422 154 89 38 67 17 6 8 8 8 34
198 220 241 364 838 240 152 162 296 285 353 579 635 269 170 111 391 715 905 1102 1058 1152 1053 1252 1168 916 1043 1040 962 807 538 309 244 150 125 31 22 3 21 12 23 13 7
51 113 245 224 366 289 154 95 250 207 578 447 476 392 233 122 121 219 573 796 992 1076 1169 1256 1096 1078 1252 1211 1123 876 581 319 111 101 79 117 35 34 70 30 31 51 37
68 103 119 316 457 419 222 73 112 261 322 521 349 432 309 279 177 109 187 425 502 669 837 1102 1011 1114 1201 1165 982 998 746 409 214 144 118 70 53 47 96 52 38 81 73
73 181 134 228 395 490 352 172 203 243 233 491 594 435 266 190 179 184 130 135 222 261 360 611 714 590 668 726 824 622 490 300 198 127 131 76 43 67 94 134 106 85 142
62 119 125 181 291 298 162 135 338 268 315 429 601 494 401 228 274 201 139 175 196 241 184 320 372 581 642 726 787 621 546 287 197 138 128 113 91 77 124 78 37 96 159
111 211 249 241 185 88 105 137 450 452 458 474 557 586 517 406 166 133 164 117 131 217 238 253 308 325 471 608 670 351 579 229 147 109 99 104 107 122 108 102 97 59 32
108 213 253 363 412 464 464 502 470 378 390 437 489 572 436 243 96 136 222 167 114 91 176 271 261 241 203 360 455 501 603 67 66 56 55 112 76 72 34 36 29 93 77
25 78 105 236 300 377 469 389 354 364 325 254 329 417 417 426 305 165 169 280 239 139 108 169 99 65 105 34 21 109 18 0 0 5 12 9 14 38 36 22 11 30 69
36 37 19 20 59 216 320 275 186 179 132 161 134 132 313 413 386 349 363 307 230 168 89 57 42 26 18 3 2 3 2 0 0 0 0 2 0 0 2 10 10 8 23
33 36 5 8 3 3 79 182 128 137 96 83 77 99 160 223 231 256 217 130 35 19 35 6 8 3 1 1 2 0 0 0 0 0 0 0 0 0 0 0 0 0 0
9 10 3 3 3 4 2 1 0 0 0 0 17 67 48 67 42 44 26 23 19 41 37 37 18 1 2 2 0 0 0 0 0 1 2 2 1 0 0 0 0 0 0
2 2 4 3 3 3 3 4 3 2 1 2 1 1 0 0 0 0 0 1 7 8 3 1 4 1 0 1 1 0 0 1 1 3 5 4 2 1 0 0 0 0 0
4 3 3 3 1 0 0 3 3 4 1 0 0 1 3 3 0 0 0 0 0 1 2 0 0 3 2 2 2 1 4 4 3 3 1 0 0 0 1 0 0 0 0
2 3 3 3 2 0 0 0 2 3 3 4 2 3 1 2 4 0 0 0 0 0 1 1 1 1 1 2 2 2 2 3 1 0 0 0 0 0 0 0 0 0 0
3 1 3 3 3 2 0 0 0 2 3 3 3 1 0 0 0 0 0 0 0 0 0 0 0 0 0 0 1 3 2 0 1 0 1 1 1 2 2 2 0 0 0
3 0 0 0 0 0 0 0 0 0 0 0 0 0 0 0 0 0 0 0 0 0 0 0 0 0 0 0 0 1 0 0 0 0 0 1 1 1 0 0 1 0 0
4 2 1 0 0 0 0 0 0 0 0 0 0 0 0 0 0 0 0 0 0 0 0 0 0 0 0 0 0 0 0 0 0 0 0 0 1 2 0 0 0 0 1
2 0 0 0 0 0 0 0 0 0 0 0 0 0 0 0 0 0 0 0 0 0 0 0 0 0 0 0 0 0 0 0 0 0 0 0 1 0 0 0 0 0 0

GFSMA_con_mlcape_021.txt.gz
CAPE
1409 403 63 49 463 1231 735 580 691 944 932 1287 1260 1164 1047 842 769 602 641 738 589 322 429 785 955 626 133 550 372 726 684 747 574 529 476 465 399 201 252 203 127 223 171
797 355 151 22 1 555 937 490 979 969 681 957 1309 1056 1241 1176 1121 929 617 627 631 435 373 413 530 624 133 743 709 481 871 792 687 556 470 452 404 305 192 254 250 220 251
1100 621 425 441 3 6 26 32 467 931 951 799 769 1247 942 1069 1120 1027 937 773 718 465 374 373 497 537 213 446 858 766 559 530 551 591 343 384 343 294 226 174 278 207 162
1299 1272 988 753 498 0 0 22 716 588 898 979 879 916 1120 839 884 963 1005 1017 470 571 522 271 312 365 1 20 226 564 702 580 346 435 524 307 285 280 229 174 176 202 183
1198 1169 808 888 1014 355 211 604 773 878 584 750 805 880 945 993 823 895 1117 1115 1041 885 687 527 248 264 141 124 100 28 101 641 504 282 392 220 251 202 134 137 114 112 191
1344 1159 1159 1025 1296 665 843 1062 905 859 462 380 240 356 829 733 947 924 1146 1175 1153 862 876 846 630 253 236 234 151 147 140 170 736 419 371 283 251 198 119 59 48 40 54
1287 1009 1059 949 956 1015 1059 1304 989 782 617 545 733 543 220 278 526 1199 1019 914 1082 1247 618 917 712 594 404 240 213 239 233 256 452 887 401 121 162 245 173 165 70 24 25
1068 1069 1198 1253 1132 994 932 893 918 811 1045 803 601 285 143 19 129 841 1048 1102 1336 1189 1031 1102 700 1093 539 384 267 365 397 302 236 629 706 298 70 4 18 58 72 28 38
522 398 523 683 959 1006 1009 710 805 755 738 697 705 317 107 20 47 954 1349 1083 1012 1061 1060 912 811 1372 895 367 590 675 694 504 477 458 426 493 238 62 8 1 0 37 35
410 322 359 366 557 733 1035 765 885 720 540 237 533 649 419 285 335 173 727 949 1043 974 1042 606 480 603 1105 975 956 869 884 836 749 659 428 156 161 193 61 32 24 16 9
616 359 333 387 506 586 643 970 1041 720 585 470 484 378 493 200 372 473 541 117 705 947 1287 856 489 871 1334 1379 808 833 980 960 833 737 559 342 315 94 42 25 41 32 2
455 411 534 502 412 672 630 733 768 764 674 429 110 454 368 297 191 459 327 135 157 218 305 407 891 1145 1182 1046 438 713 663 636 737 708 602 455 318 196 125 147 97 64 44
367 638 584 643 598 590 678 807 962 738 643 466 135 351 465 315 313 345 491 133 201 210 161 239 416 594 508 487 692 664 773 652 543 404 287 206 182 187 168 177 196 141 112
364 566 388 465 436 456 596 695 622 693 672 678 329 553 638 402 258 269 436 303 271 198 200 238 323 943 752 625 607 717 401 63 108 90 64 62 57 54 95 136 174 133 81
573 506 460 449 564 592 608 738 693 709 685 801 662 398 653 452 320 305 302 405 315 123 120 217 118 384 362 259 97 158 9 3 1 0 0 0 3 22 41 53 59 80 98
338 211 245 390 384 616 729 758 1009 936 866 811 688 743 744 657 630 666 575 453 399 357 119 99 144 259 125 26 5 4 3 3 3 0 0 0 0 0 6 23 7 5 7
136 85 80 128 221 493 643 788 563 601 558 530 367 330 454 741 738 530 571 678 455 599 339 232 141 216 15 3 3 3 4 3 3 0 0 0 0 0 0 0 0 0 0
187 90 18 28 54 47 127 103 47 50 71 42 94 144 178 254 493 667 801 719 592 533 356 256 168 1 2 3 2 0 2 4 4 6 3 1 0 0 0 0 0 0 0
63 17 4 2 32 46 12 10 5 3 4 4 2 0 3 33 0 30 11 30 44 91 51 24 10 2 3 2 2 3 3 3 3 5 6 6 6 5 3 1 0 0 0
55 2 5 3 13 8 9 4 6 3 3 4 3 4 4 3 4 3 0 0 1 1 1 0 2 2 2 2 2 2 2 3 3 2 3 4 4 5 6 6 6 3 0
6 0 0 2 4 4 2 10 1 1 3 3 3 2 1 1 0 0 1 1 2 0 1 1 1 1 1 2 2 2 4 3 3 2 3 2 1 1 1 1 1 0 0
8 3 3 0 2 0 0 0 2 8 0 1 4 3 2 0 0 0 0 0 0 3 1 0 1 0 2 2 1 1 2 1 0 1 2 2 0 1 1 0 0 0 0
2 4 5 5 3 0 0 0 0 1 2 1 0 0 0 0 0 0 0 0 0 0 0 0 2 1 3 2 3 2 1 2 3 2 1 2 1 1 2 2 0 0 0
1 0 3 0 0 0 0 0 0 5 2 2 1 2 0 0 0 0 0 0 0 0 0 0 0 1 2 7 0 1 0 0 0 0 1 1 1 1 0 1 0 0 0
1 0 3 3 4 0 0 0 0 4 6 2 0 0 0 0 0 0 0 0 0 0 0 0 0 0 0 0 0 2 4 6 0 1 0 1 1 0 0 0 2 0 0
5 3 2 1 0 0 0 0 0 3 2 0 0 0 0 0 0 0 1 1 0 0 0 0 0 0 0 0 0 0 0 0 3 0 0 8 9 9 9 5 4 5 0

GFSMA_con_mlcape_024.txt.gz
CAPE
1164 1387 644 282 97 1149 631 238 95 36 219 809 919 976 783 523 759 801 703 453 355 271 312 830 1003 707 512 703 821 744 589 366 540 474 467 441 383 267 140 117 259 226 122
1141 1309 474 206 51 137 742 108 0 3 21 16 915 924 1236 1135 1102 569 474 678 507 396 295 468 715 700 422 80 646 501 614 661 718 551 484 406 424 262 221 237 235 136 244
1219 1152 770 255 529 85 285 3 1 0 0 0 664 921 1165 1118 1232 1180 1022 776 847 506 286 337 553 501 791 109 493 613 544 580 744 715 394 235 366 295 248 186 222 245 176
1464 1288 1321 1194 888 520 0 0 0 0 7 3 234 727 721 1010 984 1015 1008 1058 802 863 470 312 325 290 424 351 552 341 680 457 475 519 462 367 255 270 245 209 168 163 196
1328 1086 1201 1113 986 794 221 20 0 2 224 426 510 446 453 664 597 1077 916 806 792 848 830 422 321 180 207 313 25 109 44 69 438 510 391 288 198 160 80 161 140 81 123
1282 933 1117 1033 626 851 928 634 718 329 393 385 289 244 759 752 830 726 1014 1262 1149 1062 703 760 373 163 142 181 90 91 103 87 30 466 478 271 245 209 136 100 94 40 60
802 892 842 735 585 435 817 734 511 277 85 332 531 442 689 960 828 626 1212 986 954 991 852 482 740 308 266 163 97 80 129 83 88 99 477 430 332 167 154 100 107 100 53
996 946 707 365 438 452 408 477 382 387 336 530 477 398 131 134 313 884 906 1222 938 1244 1205 1189 622 416 236 118 59 82 138 80 133 238 202 322 349 144 107 17 2 26 60
431 339 268 291 222 302 278 327 145 169 287 223 508 185 198 77 225 743 754 940 1082 1202 1221 1173 988 485 385 438 218 246 269 252 360 332 248 210 179 215 108 8 0 0 6
648 458 386 402 267 241 282 328 275 217 146 106 248 295 391 557 168 113 391 583 949 863 852 735 548 444 615 769 583 430 269 569 623 483 413 461 387 221 206 117 41 1 0
690 359 399 380 315 269 362 182 237 272 244 263 101 99 279 315 379 176 254 197 710 648 793 684 484 418 296 243 860 649 508 613 668 659 651 579 482 309 183 133 85 57 37
524 339 679 340 245 231 328 277 329 497 220 218 231 199 78 116 156 184 154 125 170 85 146 396 694 167 91 402 183 131 191 470 644 794 645 679 571 447 293 213 152 76 93
515 413 460 350 250 221 438 422 203 158 267 150 258 190 50 87 131 182 145 225 34 209 100 57 134 350 200 219 379 107 169 153 185 233 291 272 196 163 150 180 182 186 178
623 520 558 389 336 476 491 563 692 553 470 327 389 265 63 228 124 197 71 100 38 130 176 117 249 268 279 142 102 14 5 23 26 20 38 31 29 23 27 36 64 86 142
481 312 263 407 273 647 738 627 621 342 448 436 727 666 446 252 148 273 238 151 102 57 61 158 105 157 37 6 4 1 2 1 0 0 0 0 0 0 8 22 27 45 48
312 199 50 115 317 460 829 503 421 362 477 437 396 321 174 195 119 288 288 334 251 156 49 56 92 52 2 2 6 2 4 3 3 1 0 0 0 0 0 0 0 0 0
141 57 27 39 3 68 239 303 189 379 293 301 166 178 242 348 235 198 356 282 212 170 95 161 58 2 1 2 2 1 1 3 4 4 3 2 0 0 0 0 0 0 0
34 3 2 122 82 4 2 1 6 17 8 2 9 38 24 120 204 237 287 327 295 286 250 98 72 1 2 3 3 1 4 4 3 7 7 6 6 8 4 3 1 1 0
27 7 5 18 2 1 2 3 1 0 2 2 2 2 1 0 0 0 0 2 0 46 53 52 1 2 3 3 3 3 3 2 3 4 5 6 6 5 4 2 0 1 0
44 2 3 6 2 2 0 1 2 2 2 2 2 1 1 0 1 2 0 0 0 0 0 0 2 3 2 2 2 2 2 3 3 3 4 4 4 5 5 4 1 0 0
4 4 4 2 0 0 0 3 0 1 0 1 1 0 0 0 0 0 0 0 0 0 0 0 0 1 1 1 1 2 3 2 2 0 0 0 0 0 0 0 0 0 0
2 4 2 0 0 0 0 0 3 0 0 1 1 1 1 0 0 0 0 0 0 0 0 0 0 2 1 2 1 1 0 1 0 3 1 2 2 1 0 0 0 0 0
1 2 2 0 0 0 0 0 0 2 1 2 1 1 0 0 0 0 0 0 0 0 0 0 0 1 1 0 0 0 1 0 1 1 0 2 1 1 2 1 0 0 0
0 0 2 0 0 0 0 0 0 0 0 0 0 0 0 0 0 0 0 0 0 0 0 0 0 0 0 0 0 0 0 0 0 0 0 0 0 0 1 1 0 0 0
0 1 3 2 0 0 0 0 0 0 0 0 0 0 0 0 0 0 0 0 0 0 0 0 0 0 0 0 0 0 2 2 0 0 0 0 0 0 0 0 0 0 0
0 1 1 0 0 0 0 0 0 0 0 0 0 0 0 0 0 0 1 0 0 0 0 0 0 0 0 0 0 0 0 0 1 0 0 4 0 1 0 0 0 0 0

GFSMA_con_mlcape_027.txt.gz
CAPE
697 969 503 512 194 1092 790 507 317 226 153 4 171 140 558 813 578 654 594 658 460 318 470 879 730 424 547 610 669 509 422 473 227 187 210 126 279 196 68 7 92 190 111
598 901 425 154 77 182 242 105 43 73 6 0 77 49 87 418 404 386 696 633 479 395 332 490 629 656 387 800 704 777 675 544 395 370 266 212 259 222 149 112 60 121 95
724 854 835 502 271 153 268 176 0 0 0 0 0 0 36 358 574 615 453 601 664 457 339 269 485 654 601 176 415 543 602 472 415 551 397 270 183 264 206 148 159 161 75
958 955 846 739 456 288 124 13 7 0 0 0 0 11 56 289 611 926 688 472 639 650 639 400 247 397 598 516 30 289 500 330 309 430 454 397 199 126 159 173 123 114 99
799 867 863 832 685 460 148 7 0 0 0 0 0 19 167 383 608 772 714 909 583 599 591 542 375 271 243 733 413 383 642 242 321 236 232 369 214 182 129 122 95 126 118
62 380 763 858 678 340 236 61 1 0 0 7 219 351 328 198 36 599 680 934 718 587 828 762 613 418 377 387 723 586 200 334 144 99 326 451 458 300 210 137 115 74 82
0 62 607 398 416 292 275 142 157 196 117 166 184 46 215 339 337 575 741 898 835 864 805 805 670 621 446 397 351 337 93 125 115 100 61 84 438 460 241 134 105 103 71
262 531 550 381 311 107 82 196 139 56 54 76 28 0 0 122 357 603 581 590 830 1008 896 938 760 606 401 331 371 282 205 225 173 191 186 165 200 542 475 251 176 121 58
749 504 236 114 135 68 44 44 76 68 78 103 35 115 70 21 59 265 544 557 432 781 922 1203 857 688 510 338 272 269 306 249 142 260 397 348 277 300 388 342 169 91 50
694 445 239 292 322 248 165 126 141 95 86 64 129 194 171 142 44 92 379 415 464 554 961 917 746 610 436 400 461 395 366 205 263 198 271 440 347 254 234 238 184 118 25
287 130 196 371 240 263 193 163 186 71 81 67 75 68 83 123 199 124 36 108 318 776 775 658 708 536 493 322 193 150 59 31 76 203 344 436 433 440 481 466 288 219 179
333 244 252 223 244 298 160 241 220 77 66 111 103 122 58 58 58 67 101 45 23 129 287 342 328 172 88 6 63 32 2 0 49 9 165 284 271 400 590 488 404 311 238
272 237 367 340 296 386 379 217 150 72 80 83 102 122 151 95 55 66 74 60 37 108 160 93 251 197 154 190 86 24 34 7 12 22 77 152 159 220 252 296 294 305 319
271 61 174 296 327 476 551 346 350 231 98 110 119 143 87 55 66 53 76 55 46 80 128 85 81 41 113 56 100 63 37 31 14 8 3 13 23 39 48 37 44 38 56
70 0 7 101 252 396 337 228 299 306 343 242 155 93 25 3 58 99 127 146 60 1 44 78 22 1 0 0 1 1 3 4 1 1 1 0 0 10 16 16 5 5 9
1 0 3 3 23 102 104 113 139 135 107 118 194 183 191 227 213 101 110 131 135 80 63 59 6 4 3 3 5 3 5 4 4 2 1 2 3 2 1 1 0 0 0
2 1 17 4 1 0 0 0 0 0 0 0 2 17 35 76 41 32 47 71 117 137 108 51 3 3 4 3 3 3 3 3 5 6 5 4 3 2 3 5 4 3 1
4 2 3 3 0 2 0 0 0 1 0 0 0 0 0 0 0 3 31 46 62 106 57 53 3 2 3 3 2 3 4 3 3 5 7 8 7 5 5 7 1 0 0
0 1 0 0 0 0 1 0 0 1 0 0 0 0 0 0 0 0 0 0 0 0 0 26 1 3 4 3 3 2 2 3 3 5 5 5 4 2 2 0 0 0 0
0 0 0 0 0 0 2 1 0 0 0 0 0 0 0 0 0 0 0 0 0 0 0 1 2 3 2 2 2 2 2 2 2 2 2 1 2 3 1 0 0 0 0
0 3 0 0 0 0 0 0 0 0 0 0 0 0 0 0 0 0 0 0 0 0 0 0 1 1 2 2 2 2 2 1 1 0 2 0 0 0 0 0 0 0 0
13 0 0 0 0 0 0 0 1 0 1 1 0 0 0 0 0 0 0 0 0 0 0 0 0 0 1 1 1 1 0 1 0 1 1 2 1 0 0 0 0 0 0
1 0 0 0 0 0 0 0 1 0 0 1 0 0 0 0 0 0 0 0 0 0 0 0 0 0 0 0 0 0 0 0 1 0 0 1 1 1 1 0 0 0 0
0 1 0 0 0 0 0 0 0 0 0 0 0 0 0 0 0 0 0 0 0 0 0 0 0 0 0 0 0 0 0 0 0 0 1 0 0 0 1 0 0 0 0
0 0 0 0 0 0 0 0 0 0 0 0 0 0 0 0 0 0 0 0 0 0 0 0 0 0 0 0 0 0 0 0 0 0 0 0 0 0 0 0 0 0 0
0 0 0 0 0 0 0 0 0 0 0 0 0 0 0 0 0 0 0 0 0 0 0 0 0 0 0 0 0 0 0 0 0 0 0 0 0 0 0 0 0 0 0

GFSMA_con_mlcape_030.txt.gz
CAPE
183 613 841 672 711 771 973 632 880 754 414 217 310 256 253 379 371 367 588 455 132 242 673 1055 1245 864 481 782 570 366 168 194 253 133 356 389 310 51 42 6 110 83 108
368 386 379 212 126 466 532 465 387 404 354 35 36 172 181 159 307 372 497 596 502 463 451 637 1091 1203 811 902 691 748 386 487 480 260 343 262 254 265 113 60 0 157 202
532 501 325 181 135 52 95 71 54 4 2 5 0 20 74 55 288 359 360 500 644 575 445 412 713 651 584 624 485 1026 736 664 573 452 350 311 223 239 248 150 97 86 163
421 769 499 534 406 268 191 126 110 22 0 0 0 0 17 42 200 277 596 420 470 544 569 510 487 340 452 473 378 472 784 702 550 542 488 421 235 183 237 206 186 141 149
713 803 584 772 490 403 212 87 49 17 0 0 0 0 0 52 194 351 444 605 491 516 487 624 612 403 404 411 577 223 235 335 511 390 511 574 404 278 188 191 205 123 100
215 442 511 471 280 271 173 93 55 0 0 0 0 103 151 143 157 228 453 641 577 579 538 589 606 659 519 433 489 380 233 217 277 360 268 262 262 334 215 202 135 118 112
0 0 73 465 396 297 182 102 47 4 0 0 0 1 52 93 150 132 151 133 619 493 520 685 551 576 586 574 355 357 352 434 199 110 56 112 166 251 221 207 197 163 80
222 175 409 242 101 93 52 15 15 54 74 79 21 4 5 11 12 151 235 263 495 571 594 742 738 794 635 477 587 368 276 251 90 27 55 69 40 100 179 249 246 189 157
534 480 212 108 39 71 66 56 33 7 31 32 44 0 0 0 14 70 180 308 460 480 482 531 651 720 607 410 426 377 286 236 264 269 313 119 118 141 144 176 270 248 165
120 81 53 128 132 78 82 70 84 63 43 23 6 6 0 8 13 42 83 172 500 514 360 375 482 546 605 436 405 370 121 83 63 76 138 228 303 326 265 222 162 145 121
115 100 143 87 53 65 115 65 62 91 51 36 14 40 53 93 68 46 9 71 200 272 394 416 579 562 467 341 151 108 34 0 69 67 9 66 226 245 297 415 448 349 339
11 8 80 73 138 203 204 130 72 127 38 33 27 45 63 42 41 46 47 29 34 78 131 149 243 245 67 51 103 53 9 0 0 3 5 15 108 129 95 74 152 465 357
0 0 39 76 174 310 273 82 85 37 20 25 42 66 97 70 31 39 30 16 29 30 85 89 109 163 194 102 56 14 1 0 0 0 0 3 14 29 59 84 143 213 313
0 0 13 120 157 250 300 233 126 102 38 30 42 55 78 77 75 23 30 28 26 55 12 52 15 63 65 32 35 2 2 0 0 0 0 0 0 3 15 23 50 57 52
2 0 3 10 37 69 63 62 84 144 84 90 105 50 33 0 14 53 77 53 26 35 15 12 0 2 1 0 3 2 2 4 2 2 2 1 2 2 2 2 1 9 8
0 3 3 1 0 0 0 0 0 0 0 23 76 53 66 100 114 145 74 128 33 38 53 1 2 2 1 1 4 1 4 5 6 4 2 4 1 1 0 1 1 2 1
0 2 7 0 0 0 0 0 0 0 0 0 0 0 0 0 6 26 33 38 52 34 10 3 2 1 1 1 2 2 3 3 5 7 5 5 4 2 3 2 0 0 0
0 0 0 0 0 0 0 1 0 0 0 0 0 0 0 0 0 0 0 0 1 2 3 0 3 3 2 2 3 3 3 3 3 5 5 6 4 3 1 0 0 0 0
0 0 0 0 0 0 0 0 0 0 0 0 0 0 0 0 0 0 0 0 0 0 0 0 2 3 3 2 2 2 2 2 2 3 3 4 4 3 0 0 0 0 0
0 0 0 0 0 0 0 0 0 0 0 0 0 0 0 0 0 0 0 0 0 0 1 1 3 4 3 2 3 3 3 2 1 1 2 2 2 2 0 0 0 0 0
0 0 0 0 0 0 0 0 0 0 0 0 0 0 0 0 0 0 0 0 0 0 0 1 3 3 3 2 1 2 3 0 0 0 0 0 0 0 0 0 0 0 0
0 0 0 0 0 0 0 0 0 0 0 0 0 0 0 0 0 0 0 0 0 0 0 0 0 0 1 0 0 1 0 1 0 0 0 1 0 0 0 0 0 0 0
0 0 0 0 0 0 0 0 0 0 0 0 0 0 0 0 0 0 0 0 0 0 0 0 0 0 0 1 0 0 0 0 0 0 0 0 1 1 0 0 0 0 0
0 0 0 0 0 0 0 0 0 0 0 0 0 0 0 0 0 0 0 0 0 0 0 0 0 0 0 0 0 0 0 0 0 0 0 0 1 0 1 0 0 0 0
0 0 0 0 0 0 0 0 0 0 0 0 0 0 0 0 0 0 0 0 0 0 0 0 0 0 0 0 0 0 0 0 0 0 0 0 0 0 0 0 0 0 0
0 0 0 0 0 0 0 0 0 0 0 0 0 0 0 0 0 0 0 0 0 0 0 0 0 0 0 0 0 0 0 0 1 0 0 0 0 0 0 0 0 0 0

GFSMA_con_mlcape_033.txt.gz
CAPE
564 107 588 714 772 734 781 738 757 752 552 425 345 227 356 367 323 217 285 518 486 373 209 470 1354 874 722 692 676 620 497 186 303 376 189 580 207 148 109 363 170 90 13
146 170 465 380 336 357 383 553 438 334 330 238 156 224 168 142 194 350 371 489 626 331 280 354 683 1290 944 690 746 692 561 293 287 319 221 320 402 251 129 87 141 158 150
370 407 358 216 118 132 242 299 218 102 104 54 25 16 36 80 84 221 307 392 484 614 433 443 488 713 1183 1014 835 593 707 582 465 459 260 266 317 224 183 149 139 63 126
86 0 431 368 209 125 91 74 31 27 0 0 0 0 8 4 38 41 259 400 420 516 640 603 414 400 556 722 801 435 249 442 342 515 361 308 279 221 201 130 138 154 119
193 63 302 371 248 241 154 118 80 44 12 0 0 0 0 0 4 43 190 300 475 477 448 494 528 418 417 421 312 555 199 282 485 423 510 373 367 307 185 160 149 141 155
510 543 438 421 389 236 164 110 79 18 10 4 0 0 0 0 0 26 209 376 461 524 548 482 447 470 437 437 292 490 438 222 105 260 342 282 267 228 172 157 114 97 175
0 0 59 102 238 175 129 98 32 23 0 0 0 0 0 0 83 138 159 205 297 454 530 465 542 500 528 391 401 332 308 237 159 37 22 113 104 49 73 91 59 99 80
109 49 104 271 66 27 12 0 0 0 0 0 0 1 10 2 0 20 89 120 199 249 192 383 464 508 527 518 437 368 392 296 138 65 137 53 46 26 22 46 44 93 101
336 249 140 85 50 31 14 0 0 0 0 6 1 5 3 0 4 4 57 149 251 290 346 450 458 463 478 526 519 401 387 414 291 324 340 122 85 113 66 64 83 96 105
100 103 88 73 29 14 30 17 1 7 9 0 5 15 0 0 0 2 30 47 160 253 354 380 349 295 486 448 482 398 234 223 206 150 116 145 149 130 183 214 195 193 164
5 38 84 53 22 58 73 60 15 15 14 16 0 0 0 12 19 25 12 16 16 89 180 259 336 462 512 519 288 232 171 105 32 54 27 5 48 165 159 166 208 241 332
0 0 3 25 89 123 166 31 16 44 45 2 3 2 5 18 39 69 53 35 5 37 52 81 147 233 244 150 136 48 31 0 0 19 1 0 28 18 10 49 96 131 203
0 0 20 51 60 166 169 55 24 8 8 5 3 3 24 22 23 21 15 18 17 13 51 24 55 162 75 55 46 12 8 2 1 0 0 0 0 2 3 28 63 92 148
0 1 7 4 13 56 69 65 44 29 0 0 1 12 19 46 67 29 9 6 0 33 17 53 5 3 1 2 6 1 3 3 3 1 1 1 1 0 1 2 8 30 39
2 3 2 0 0 0 0 0 0 0 1 9 10 1 10 0 37 61 36 11 8 2 9 30 3 1 1 2 4 1 3 7 6 3 3 3 2 2 1 0 0 0 2
4 0 0 0 0 0 0 0 0 0 0 0 0 0 4 14 11 38 50 34 15 0 18 4 1 2 2 3 5 1 5 4 6 5 2 1 1 1 0 0 0 0 0
0 0 0 0 0 0 0 0 0 0 0 0 0 0 0 0 0 7 37 37 10 0 9 1 1 2 2 1 2 2 3 3 5 6 5 4 3 2 1 0 0 0 0
0 0 0 0 0 0 0 0 0 0 0 0 0 0 0 0 0 0 0 0 3 2 2 0 3 2 2 2 3 2 3 3 3 6 5 5 3 0 0 0 0 0 0
0 0 0 0 0 0 0 0 0 0 0 0 0 0 0 0 0 0 0 0 0 0 0 0 1 3 3 2 2 2 2 1 2 3 4 5 3 0 0 0 0 0 0
0 0 0 0 0 0 0 0 0 0 0 0 0 0 0 0 0 0 0 0 0 0 1 1 1 3 3 2 2 2 2 1 0 0 1 1 1 0 0 0 0 0 0
0 0 0 0 0 0 0 0 0 0 0 0 0 0 0 0 0 0 0 0 0 0 0 1 2 3 3 2 1 1 2 0 0 0 0 0 0 0 0 0 0 0 0
0 0 0 0 0 0 0 0 0 0 0 0 0 0 0 0 0 0 0 0 0 0 0 0 1 2 2 1 1 1 1 1 0 0 0 1 0 0 0 0 0 0 0
0 0 0 0 0 0 0 0 0 0 0 0 0 0 0 0 0 0 0 0 0 0 0 0 0 0 1 0 0 0 0 1 1 1 0 1 1 0 0 0 0 0 0
0 0 0 0 0 0 0 0 0 0 0 0 0 0 0 0 0 0 0 0 0 0 0 0 0 0 0 0 0 0 0 0 0 0 0 0 0 0 0 0 0 0 0
0 0 0 0 0 0 0 0 0 0 0 0 0 0 0 0 0 0 0 0 0 0 0 0 0 0 0 0 0 0 0 0 0 0 0 0 0 0 0 0 0 0 0
0 0 0 0 0 0 0 0 0 0 0 0 0 0 0 0 0 0 0 0 0 0 0 0 0 0 0 0 0 0 0 0 3 1 0 0 0 0 0 0 0 0 0

GFSMA_con_mlcape_036.txt.gz
CAPE
548 435 235 685 757 715 723 780 735 674 598 586 507 312 315 395 357 237 96 295 379 415 519 451 334 630 731 626 483 512 545 290 150 372 302 397 171 339 214 140 224 97 40
296 213 157 311 472 541 570 629 621 592 573 442 326 338 196 211 277 334 285 242 598 465 417 444 529 962 945 765 598 536 514 553 222 226 412 101 387 187 161 75 262 190 103
461 261 237 279 253 161 238 278 330 330 266 210 201 110 63 105 95 114 230 381 424 584 532 298 331 531 833 1070 837 672 556 528 418 289 339 112 236 225 140 137 89 49 148
128 126 116 72 284 127 59 64 80 97 74 47 35 17 0 0 0 27 47 228 361 406 566 625 415 428 379 674 1107 1020 764 637 457 457 427 293 143 209 178 118 132 176 70
118 98 33 120 382 253 227 172 115 81 68 40 7 0 0 0 0 0 52 87 243 453 444 532 595 503 459 632 559 496 889 467 247 246 265 511 316 150 123 190 181 147 142
286 396 296 327 344 334 250 139 130 80 66 30 1 3 0 0 0 0 0 57 324 392 516 534 491 458 388 307 298 279 237 204 202 124 162 250 118 102 48 108 111 112 113
30 0 0 72 136 180 145 75 40 69 29 0 0 0 0 0 0 38 89 88 206 411 550 593 587 542 531 509 454 323 277 300 258 190 243 92 77 59 78 69 71 55 86
159 67 70 165 147 52 25 19 1 9 0 0 0 0 4 1 0 10 93 138 168 219 276 322 352 439 463 494 532 507 491 374 343 411 198 147 6 38 50 60 41 37 63
136 100 43 49 14 0 0 0 0 8 16 1 0 10 1 2 1 3 30 62 144 223 265 320 339 482 494 484 487 543 615 506 423 449 411 212 38 92 31 57 95 62 45
10 9 44 31 24 15 12 11 9 0 0 3 3 1 0 0 0 1 18 8 136 192 245 289 372 474 399 463 487 492 390 310 341 379 358 269 236 257 90 95 154 122 118
0 0 17 0 19 22 26 38 27 27 3 2 0 1 26 19 10 6 1 8 17 80 109 175 317 402 494 441 455 349 205 110 38 75 90 112 108 68 115 93 129 171 114
0 0 6 18 9 22 89 26 10 8 30 40 33 8 2 30 32 14 10 9 13 43 54 82 121 144 110 136 157 50 7 1 0 0 0 0 0 1 29 4 16 47 41
0 0 0 0 0 32 37 17 3 0 12 12 0 1 17 33 27 38 35 24 19 3 44 44 30 52 21 12 3 3 3 1 0 1 2 1 1 0 6 21 62 102 98
1 4 0 0 0 0 0 0 1 0 0 0 0 9 26 38 48 37 34 31 10 4 18 36 1 1 2 2 5 1 4 2 1 2 2 1 0 1 1 1 3 5 15
0 0 0 0 0 0 0 0 0 0 0 0 1 4 9 18 59 60 20 4 13 1 23 15 3 2 2 3 4 3 3 6 5 4 3 3 3 2 2 2 1 1 1
0 0 0 0 0 0 0 0 0 0 0 0 0 0 2 7 8 36 47 23 12 6 6 5 1 2 3 3 5 4 5 4 7 6 4 3 2 1 1 0 1 0 1
0 0 0 0 0 0 0 0 0 0 0 0 0 0 0 0 0 4 41 55 23 1 1 1 2 2 3 3 3 3 3 3 4 5 5 6 3 1 1 0 0 0 0
0 0 0 0 0 0 0 0 0 0 0 0 0 0 0 0 0 0 0 0 10 0 0 0 3 2 3 3 3 2 3 2 3 5 3 1 0 0 0 0 0 0 0
0 0 0 0 0 0 0 0 0 0 0 0 0 0 0 0 0 0 0 0 0 1 1 0 1 3 3 2 3 2 2 1 2 4 3 2 0 0 0 0 0 0 0
0 0 0 0 0 0 0 0 0 0 0 0 0 0 0 0 0 0 0 0 1 0 0 0 1 3 3 2 2 2 1 0 0 0 0 0 0 0 0 0 0 0 0
0 0 0 0 0 0 0 0 0 0 0 0 0 0 0 0 0 0 0 0 0 0 1 1 2 3 3 2 1 2 1 0 0 0 0 0 0 0 0 0 0 0 0
0 0 0 0 0 0 0 0 0 0 0 0 0 0 0 0 0 0 0 0 0 0 0 0 1 2 2 1 1 1 0 1 0 0 1 1 0 0 0 0 0 0 0
0 0 0 0 0 0 0 0 0 0 0 0 0 0 0 0 0 0 0 0 0 0 0 0 0 0 1 0 0 1 0 1 1 1 0 1 0 0 0 0 0 0 0
0 0 0 0 0 0 0 0 0 0 0 0 0 0 0 0 0 0 0 0 0 0 0 0 0 0 0 0 0 0 0 0 1 0 0 0 1 0 1 0 0 0 0
0 0 0 0 0 0 0 0 0 0 0 0 0 0 0 0 0 0 0 0 0 0 0 0 0 0 0 0 0 0 0 0 0 0 0 0 0 0 0 0 0 0 0
0 0 0 0 0 0 0 0 0 0 0 0 0 0 0 0 0 0 0 0 0 0 0 0 0 0 0 0 0 0 0 0 10 17 3 0 0 0 0 0 0 0 0

GFSMA_con_mlcape_039.txt.gz
CAPE
350 369 432 636 1108 1452 1381 1150 956 1053 1037 1025 977 831 622 653 678 424 266 238 495 436 453 565 564 637 689 534 535 257 347 402 76 254 506 403 217 178 379 180 195 99 30
342 479 507 350 803 1217 1311 1260 976 745 966 852 1035 1074 878 664 834 894 499 272 209 299 411 352 699 535 684 787 828 465 452 695 505 145 233 403 254 165 288 304 136 256 142
496 540 413 397 721 849 816 926 1022 1037 919 725 790 759 669 707 526 525 550 702 520 377 526 432 346 343 335 1015 937 488 321 394 431 402 173 310 214 232 214 174 184 136 221
572 597 818 792 525 600 460 259 459 746 762 703 577 418 409 345 278 380 411 366 582 582 572 463 476 332 344 329 689 652 442 295 306 349 348 255 241 136 215 206 161 132 97
495 322 338 421 567 545 290 341 350 211 180 309 264 237 170 85 68 179 240 275 264 363 650 698 543 440 431 591 515 431 359 218 230 146 243 374 297 216 129 108 162 154 123
614 535 383 589 963 779 1006 833 617 549 454 459 287 116 120 48 0 0 7 54 148 306 610 924 823 647 530 419 349 333 307 272 174 142 176 185 173 119 119 73 42 45 84
141 218 181 387 629 597 815 733 584 399 276 211 214 293 136 129 130 120 129 174 69 460 948 972 811 654 837 511 392 323 319 289 382 247 180 172 119 161 166 73 31 18 40
498 432 409 525 778 610 480 489 370 116 32 165 176 213 93 169 84 103 63 328 384 409 713 1010 1119 878 754 705 471 435 555 539 436 317 276 213 196 80 30 45 10 53 63
413 386 256 245 249 214 241 358 343 150 103 5 115 236 163 77 76 1 35 85 161 387 504 612 872 841 1112 1159 718 554 529 500 507 528 305 273 267 189 102 43 9 5 54
128 140 205 256 297 289 247 301 313 182 58 34 2 13 100 66 87 50 71 38 116 247 553 846 912 1212 1378 1169 911 583 300 202 166 319 339 310 262 244 224 212 147 79 29
74 99 192 211 298 381 375 345 330 208 54 20 3 42 12 203 263 88 29 7 38 106 135 304 916 1143 695 531 589 238 77 0 0 10 54 54 47 74 74 94 64 101 137
55 106 149 98 109 257 401 348 358 260 144 37 12 161 181 165 284 330 68 14 31 82 100 142 196 163 215 383 172 30 0 0 0 0 0 0 0 0 4 18 29 10 0
7 14 48 5 24 119 294 380 295 273 233 126 149 163 245 283 269 213 153 54 11 30 58 11 16 38 29 15 7 3 2 0 1 1 1 2 2 3 4 23 54 102 98
13 4 7 5 3 31 93 126 13 11 165 266 290 232 283 362 348 234 56 32 13 4 40 3 2 3 2 3 4 1 4 3 1 2 2 1 1 1 1 1 2 3 6
0 3 5 5 4 3 4 4 1 1 2 3 86 293 350 359 484 449 131 69 126 17 25 23 2 2 3 2 4 5 5 4 5 4 3 2 1 0 0 0 1 1 1
1 1 5 5 3 2 2 3 2 4 4 2 2 1 2 73 313 433 390 96 31 52 9 2 1 3 3 3 6 4 4 5 5 3 3 3 3 1 1 1 1 1 1
0 0 2 2 2 2 1 1 1 5 4 5 4 3 2 4 7 117 352 377 30 8 6 3 3 3 3 3 3 4 4 4 5 5 5 3 0 0 0 0 0 1 1
0 1 1 0 0 0 0 1 1 2 3 3 3 2 1 3 0 3 1 3 110 66 0 0 4 3 3 3 3 3 3 4 3 4 1 0 0 0 0 0 0 0 0
0 0 0 0 0 0 0 1 1 2 2 2 3 3 2 5 1 1 2 2 2 2 3 2 2 3 3 3 3 3 3 2 1 2 2 1 0 0 0 0 0 0 0
0 0 2 1 0 0 0 0 0 0 0 1 2 3 2 1 3 4 2 2 1 1 1 1 2 3 3 2 2 2 2 0 0 0 0 0 0 0 0 0 0 0 0
0 0 0 0 0 0 0 0 0 0 0 0 0 0 2 0 0 0 4 9 9 3 2 3 2 3 2 3 2 2 1 0 0 0 0 0 0 0 0 0 0 0 0
0 0 0 0 0 0 0 0 0 0 0 0 0 0 0 0 0 0 0 0 0 13 7 5 2 2 2 1 2 1 0 1 0 2 1 2 0 0 0 0 0 0 0
0 0 0 0 0 0 0 0 0 0 0 0 0 0 0 0 0 0 0 0 0 0 0 13 5 8 12 11 5 2 2 2 1 2 6 2 2 2 3 0 0 0 0
0 0 0 0 0 0 0 0 0 0 0 0 0 0 0 0 0 0 0 0 0 0 0 0 0 0 6 14 7 8 5 0 2 0 0 0 0 0 3 1 0 0 0
0 0 0 0 0 0 0 0 0 0 0 0 0 0 0 0 0 0 0 0 0 0 0 0 0 0 0 0 0 14 19 31 38 23 6 0 0 0 0 0 0 0 0
0 0 0 0 0 0 0 0 0 0 0 0 0 0 0 0 0 0 0 0 0 0 0 0 0 0 0 0 0 0 0 0 11 30 44 41 28 3 24 0 0 0 0

GFSMA_con_mlcape_042.txt.gz
CAPE
412 391 618 545 835 1390 1521 1394 1046 1005 924 994 915 798 680 639 559 375 246 254 377 646 648 794 749 707 829 703 602 870 587 593 242 399 563 463 262 136 251 366 163 111 18
213 442 318 369 551 1072 961 1060 1219 944 721 780 896 988 887 747 663 593 522 463 144 326 546 566 818 675 643 907 675 591 636 495 625 409 135 503 402 309 230 327 336 217 197
160 281 421 884 587 873 1215 1264 1189 1120 853 797 683 745 847 816 713 762 894 614 652 176 126 502 504 434 371 437 647 709 600 486 427 527 328 181 297 308 234 198 286 242 204
730 802 454 786 722 1018 924 780 862 830 818 800 774 819 633 591 535 585 695 724 590 596 379 352 478 469 313 345 312 553 346 205 221 225 294 286 215 167 251 149 161 133 147
825 783 631 640 966 684 1104 750 663 557 664 716 548 631 570 558 423 276 265 645 728 616 798 796 601 526 467 441 383 362 317 221 197 196 143 196 158 109 176 181 105 129 100
1374 1360 940 768 898 861 855 960 856 659 551 462 521 362 442 491 358 98 82 389 612 575 473 669 1006 782 451 564 419 347 404 368 283 207 211 171 138 160 123 100 96 87 95
605 1289 1154 1010 972 902 682 850 738 544 455 487 453 226 225 495 546 297 155 57 69 119 263 649 1145 1021 921 500 380 410 348 354 434 308 225 216 177 113 117 185 137 105 68
970 942 852 705 825 728 894 682 639 549 418 527 301 282 112 232 316 479 405 373 415 203 394 1176 1411 1250 511 277 751 530 390 401 414 327 272 252 200 165 121 34 65 8 85
719 753 710 680 761 687 170 548 501 558 226 348 381 305 362 76 452 529 553 520 656 596 618 719 1088 1127 1165 1101 799 677 475 501 561 506 402 296 243 194 156 142 105 94 51
551 467 503 440 488 333 456 482 511 518 414 231 311 340 444 594 578 494 484 669 748 603 826 1062 993 1178 1251 1329 972 445 180 154 211 292 352 384 323 260 249 211 127 123 201
232 216 364 419 538 615 630 645 631 531 372 308 374 216 323 420 636 600 443 258 351 172 241 399 988 1372 1166 1193 653 62 10 0 0 0 10 38 60 62 56 51 35 22 21
67 144 336 112 247 582 676 704 773 661 420 374 229 35 215 338 257 623 546 489 347 62 63 170 257 444 401 308 65 3 0 0 0 0 0 0 0 4 14 19 29 44 32
4 100 319 135 153 547 661 787 613 632 641 508 429 289 333 456 691 779 681 261 10 75 24 10 13 16 13 6 7 7 1 0 0 0 0 0 0 1 2 4 3 12 23
5 12 158 123 178 398 514 368 215 292 589 563 603 597 604 742 855 812 416 400 122 17 35 1 2 2 2 4 5 3 2 2 2 1 2 1 1 2 2 2 2 2 2
2 8 4 3 83 129 242 293 171 112 160 212 351 499 576 840 937 930 127 28 122 79 40 9 2 2 3 3 4 5 6 4 4 1 1 0 0 1 0 1 0 0 0
5 8 2 2 15 49 99 118 63 46 155 162 177 182 317 435 488 641 757 125 34 60 111 2 1 2 3 3 4 3 4 3 4 4 2 2 1 1 1 0 1 0 2
2 4 4 6 5 7 6 7 13 7 1 4 7 17 23 138 261 384 498 548 428 176 12 4 2 3 3 4 4 4 5 5 3 3 0 0 0 0 0 0 0 0 0
3 3 1 3 2 4 8 7 5 7 4 0 1 5 10 10 57 23 161 120 304 293 5 0 3 3 3 3 4 4 4 4 4 2 0 0 0 0 0 0 0 0 0
1 1 0 0 0 0 0 2 4 4 7 2 2 5 3 8 3 1 5 3 3 6 3 2 3 2 2 3 4 3 2 2 1 1 0 0 0 0 0 0 0 0 0
1 1 2 0 0 0 0 0 0 0 2 6 8 6 5 2 2 5 5 9 9 3 2 5 4 3 2 2 1 2 1 0 0 0 0 0 0 0 0 0 0 0 0
0 0 1 1 0 0 0 0 0 0 0 0 4 1 0 0 0 0 5 9 10 9 3 3 3 3 2 2 2 1 2 0 0 0 0 0 4 5 0 0 0 0 0
2 1 0 0 0 0 0 0 0 0 0 0 0 0 0 0 0 0 0 0 0 14 25 12 4 3 2 0 2 3 0 0 4 3 3 3 5 3 3 0 0 0 0
4 3 5 5 1 0 0 0 0 0 0 0 0 0 0 0 0 0 0 0 0 0 1 13 13 22 25 22 27 7 8 4 5 4 6 12 2 4 5 0 0 0 0
2 0 0 6 2 0 0 0 0 0 0 0 0 0 0 0 0 0 0 0 0 0 0 0 0 0 2 7 12 15 21 19 5 13 1 19 0 5 11 0 0 0 0
12 0 0 8 2 0 0 0 0 0 0 0 0 0 0 0 0 0 0 0 0 0 0 0 0 0 0 0 0 0 17 10 50 34 38 38 10 13 19 23 0 0 0
8 0 0 2 0 0 0 0 0 0 0 0 0 0 0 0 0 0 0 0 0 0 0 0 0 0 0 0 0 0 0 0 0 35 39 23 45 28 27 17 10 0 0

GFSMA_con_mlcape_045.txt.gz
CAPE
350 369 339 407 431 1135 595 1332 1171 922 957 1125 768 837 595 649 564 349 779 571 343 483 775 838 956 1123 1140 991 803 735 577 815 625 465 586 427 409 246 200 389 344 107 53
159 173 141 185 159 249 461 991 1179 1035 881 897 686 716 720 792 573 508 494 676 309 186 499 803 984 1152 817 629 835 808 945 728 579 497 254 221 351 307 289 284 348 338 165
103 175 151 153 353 665 972 1069 1141 1087 933 917 899 756 874 841 569 647 531 725 561 219 121 344 606 721 816 610 435 467 367 409 352 375 295 236 195 183 231 247 249 271 300
123 217 350 343 632 1045 1229 1209 1129 1110 1023 821 869 869 872 631 688 590 620 547 758 702 533 103 116 463 641 521 395 278 252 307 133 173 241 280 283 214 172 160 189 184 156
423 607 558 678 729 769 880 1085 1069 857 828 585 835 658 888 764 579 458 398 453 590 640 747 619 253 335 343 478 362 325 209 199 110 111 80 86 106 126 287 194 140 149 123
261 874 861 883 1210 1038 892 844 600 899 680 853 647 240 578 619 499 445 325 253 365 649 555 644 809 642 530 370 301 415 326 292 235 217 213 176 180 144 123 53 69 143 154
943 1078 1257 1131 1035 870 1089 1069 1030 767 443 616 777 426 379 493 467 461 414 106 113 514 595 505 723 1009 972 387 304 361 331 350 397 224 262 246 228 226 160 126 98 132 134
921 962 1058 918 964 1094 959 953 796 643 874 923 657 625 383 281 324 316 454 342 128 104 116 342 581 1371 1262 984 488 529 482 377 328 347 343 319 292 154 156 135 145 67 47
815 767 850 703 986 986 133 736 791 767 619 553 604 370 328 296 183 512 570 439 601 593 304 795 616 74 951 872 418 751 615 523 497 571 628 543 361 250 172 174 197 83 106
672 447 427 431 439 398 605 635 608 792 826 440 595 423 322 507 329 147 467 609 995 928 781 855 509 614 696 880 574 321 193 254 362 406 425 399 440 402 295 287 287 162 80
324 238 408 714 937 1061 1161 1112 878 905 763 430 386 408 373 405 444 795 179 401 273 109 231 582 804 808 597 260 98 34 15 10 10 2 13 33 52 59 58 68 73 84 89
224 341 430 503 507 774 1009 1042 1060 730 783 664 500 363 352 530 427 455 561 208 164 26 7 20 43 56 92 61 24 9 2 0 0 0 0 1 12 39 60 65 65 89 83
103 424 501 580 632 764 778 822 835 839 610 534 644 612 590 614 745 934 635 209 111 70 1 1 3 6 6 12 16 5 2 1 0 0 0 0 1 1 3 4 6 7 8
202 222 354 312 460 593 614 429 295 379 410 672 675 693 761 770 906 996 613 295 53 71 26 0 2 1 2 2 6 3 2 3 3 2 0 0 1 1 1 1 1 2 2
120 146 62 69 86 146 134 280 251 371 492 522 494 553 607 699 665 340 71 282 231 12 2 3 2 2 3 3 4 2 3 5 4 2 1 2 0 0 0 1 1 2 1
116 89 16 26 25 29 82 202 156 53 92 143 251 372 451 601 745 941 388 265 119 135 25 2 2 2 2 3 4 0 2 3 2 2 1 0 0 0 0 0 0 1 1
82 85 16 61 53 29 17 28 62 1 2 2 5 45 55 292 306 506 663 774 517 355 1 4 2 2 2 2 1 1 5 2 0 0 0 0 0 0 0 0 0 0 0
76 55 12 15 7 4 3 2 6 7 1 1 9 4 9 9 17 63 177 284 384 293 0 1 3 2 2 2 2 3 4 3 1 0 0 0 0 0 0 0 0 0 0
29 12 3 1 3 2 1 2 6 7 2 0 1 2 2 2 2 2 5 3 3 7 1 3 3 2 3 2 2 3 1 1 1 0 0 0 0 0 0 0 0 0 0
43 17 1 0 0 0 1 0 1 2 5 3 3 1 0 0 1 11 3 11 5 2 3 4 4 3 2 2 0 1 0 0 0 0 0 0 0 0 0 0 0 0 0
72 3 3 1 0 0 0 0 1 1 1 1 1 0 0 0 0 0 6 11 14 1 2 1 1 1 2 2 1 1 0 0 0 0 0 0 0 0 0 0 0 0 0
100 44 18 17 0 0 0 0 0 0 0 0 0 0 0 0 0 0 0 0 0 23 16 4 2 1 4 6 2 2 5 1 5 0 4 1 3 3 2 0 0 0 0
98 55 15 35 7 0 0 0 0 0 0 0 0 0 0 0 2 0 0 0 0 0 6 20 12 22 15 3 12 19 16 31 29 12 28 17 18 6 4 0 0 0 0
119 5 20 12 8 0 0 0 0 1 1 2 2 0 0 0 0 0 0 0 0 0 0 0 0 0 0 1 8 18 19 21 9 5 23 42 15 17 9 0 0 0 0
113 1 3 2 4 0 0 0 0 5 4 4 2 0 0 0 0 0 0 0 0 0 0 0 0 0 0 0 0 0 28 6 27 56 45 29 24 15 20 1 0 0 0
171 8 2 4 1 0 0 0 0 2 0 0 0 0 0 0 0 0 0 0 0 0 0 0 0 0 0 0 0 0 0 0 0 35 32 17 60 26 42 31 8 0 0

GFSMA_con_mlcape_048.txt.gz
CAPE
473 375 214 252 228 656 822 403 6 0 476 793 791 598 421 371 448 658 922 706 321 350 382 564 760 1149 1171 905 755 564 600 542 659 365 449 285 366 418 133 241 322 206 73
92 72 53 92 142 370 377 346 295 361 569 1105 986 924 693 805 536 458 682 574 320 188 227 580 752 1052 1159 1129 961 864 636 675 565 466 337 159 341 339 251 197 243 268 239
119 24 42 56 149 187 15 37 422 435 736 998 935 558 712 543 642 829 580 739 640 393 448 240 571 687 753 1227 847 500 442 447 471 517 432 242 198 206 150 155 183 209 226
98 7 42 195 234 53 0 0 413 430 484 753 751 664 518 734 629 543 796 645 817 733 514 350 196 340 444 672 510 512 265 151 242 112 139 171 227 160 112 133 143 87 93
27 77 311 516 415 329 272 48 1021 912 728 658 284 292 298 513 912 728 452 416 601 718 851 790 319 91 179 457 312 522 284 170 158 83 43 72 126 138 63 68 256 219 107
31 263 312 537 643 557 577 432 495 464 459 601 525 550 714 496 655 572 631 531 450 639 657 646 559 361 213 337 369 453 385 283 146 147 117 108 98 109 118 122 66 30 75
99 419 482 603 713 677 631 599 842 475 630 560 471 266 451 605 754 645 494 466 297 546 346 122 846 788 854 598 414 380 601 496 340 248 220 231 241 248 201 160 96 99 82
232 639 623 468 348 642 568 424 443 517 530 594 249 136 12 132 468 457 422 457 382 460 270 621 544 743 463 365 444 304 318 532 424 472 384 309 283 268 204 165 105 76 34
322 401 387 403 366 389 573 469 465 674 525 412 341 196 87 40 78 299 247 12 390 319 842 612 351 70 46 81 7 296 318 393 326 543 675 652 614 338 264 232 150 112 121
476 441 353 192 288 406 583 412 451 709 457 302 365 296 210 128 104 12 149 307 271 392 328 420 285 117 5 0 172 189 159 245 398 441 374 290 236 259 309 260 199 175 97
286 141 172 512 644 607 757 936 1011 707 559 385 356 199 133 33 234 207 18 209 24 20 75 208 277 465 61 50 7 14 25 18 22 39 28 16 4 23 28 43 61 68 81
162 197 279 308 469 518 630 764 470 584 574 571 319 261 110 144 186 314 160 136 3 2 0 27 14 27 17 6 4 3 3 0 0 1 1 2 2 3 6 6 10 10 11
127 228 223 244 250 300 425 508 453 444 367 192 188 204 275 243 356 417 231 103 43 18 1 0 3 14 6 4 4 4 5 2 2 1 3 2 2 4 4 4 7 7 4
143 95 100 149 192 223 192 226 337 341 166 277 359 259 206 277 412 292 195 74 51 63 13 1 1 2 4 6 5 5 4 4 2 0 0 0 1 1 2 1 1 2 2
264 102 4 26 4 3 187 274 65 27 243 203 203 244 291 290 209 257 76 123 58 11 2 2 2 1 2 2 1 1 4 4 5 2 1 0 0 0 2 0 1 2 0
65 0 1 3 3 1 76 61 1 4 2 13 24 62 144 252 442 438 227 190 127 83 0 1 2 2 2 3 3 0 1 2 3 0 0 0 0 0 0 0 0 0 0
104 53 66 71 73 21 20 122 18 2 1 3 5 8 15 134 186 200 199 125 77 20 0 3 2 1 1 0 0 0 0 0 0 0 0 0 0 0 0 0 0 0 0
83 62 7 22 25 25 2 24 1 2 1 0 1 0 1 0 0 2 82 154 117 0 0 0 2 2 1 0 0 0 0 0 0 0 0 0 0 0 0 0 0 0 0
92 38 4 4 3 5 4 6 5 1 1 1 0 0 2 9 1 11 5 0 0 0 0 2 3 2 3 1 0 0 0 0 0 0 0 0 0 0 0 0 0 0 0
84 13 3 1 3 4 0 3 0 6 0 0 0 0 0 0 0 12 9 0 0 0 1 1 2 3 2 1 0 0 0 0 0 0 0 0 0 0 0 0 0 0 0
93 31 3 1 2 0 0 0 0 0 1 0 0 0 0 0 0 0 0 0 0 0 2 2 2 2 2 1 0 0 0 0 0 0 0 0 0 0 0 0 0 0 0
119 70 12 8 0 0 0 0 0 0 0 0 0 0 0 0 0 0 0 0 3 0 0 0 0 0 0 0 0 1 0 0 0 0 0 0 0 0 0 0 0 0 0
128 54 5 0 0 0 0 0 0 0 0 0 0 0 0 0 0 0 0 0 0 0 0 3 4 4 4 8 11 12 11 26 20 10 2 21 18 0 0 0 0 0 0
155 106 51 0 0 0 0 0 0 0 0 0 0 0 0 0 0 0 0 0 0 0 0 0 0 0 0 0 0 0 22 40 30 14 35 24 14 13 1 0 0 0 0
196 99 78 0 0 0 0 0 0 4 0 0 0 0 0 0 0 0 0 0 0 0 0 0 0 0 0 0 0 0 0 4 19 35 19 13 17 5 2 0 0 0 0
180 106 61 14 1 0 0 0 0 0 0 0 0 0 0 0 0 0 0 0 0 0 0 0 0 0 0 0 0 0 0 0 0 21 0 0 6 41 36 17 0 0 0

GFSMA_con_mlcape_051.txt.gz
CAPE
235 339 377 455 294 604 400 172 162 31 0 60 505 722 587 560 580 640 342 692 604 420 200 444 677 796 826 764 543 515 387 230 100 247 480 114 176 363 329 204 150 162 77
321 180 96 37 54 205 150 82 93 119 0 13 113 440 588 522 389 454 646 478 623 356 284 334 771 914 508 544 764 633 537 537 462 623 246 362 369 357 323 292 184 259 232
142 68 40 19 72 111 97 4 2 68 174 191 319 472 695 753 826 921 777 521 595 414 295 305 340 677 733 576 715 837 689 547 437 564 346 320 200 204 214 157 116 274 169
205 100 63 114 223 103 24 0 2 2 83 195 230 361 636 478 366 381 708 661 525 450 382 403 279 196 416 592 856 845 596 433 365 290 317 423 263 76 93 98 80 94 113
59 59 36 133 430 213 171 107 113 6 80 201 319 376 317 434 411 759 669 704 772 820 676 658 449 335 221 458 656 682 414 258 258 173 197 147 86 83 111 51 69 122 193
35 6 27 98 144 351 310 219 165 123 266 362 416 392 394 497 312 373 524 633 550 610 703 681 681 544 277 215 244 690 619 265 271 189 160 126 102 133 135 124 137 112 102
34 50 237 366 372 283 360 337 270 210 146 498 346 219 272 242 489 443 344 446 535 481 535 683 485 191 292 301 243 307 313 381 290 247 167 163 168 202 161 179 185 155 74
154 252 261 283 317 315 277 258 206 209 375 430 229 138 7 0 90 298 333 398 288 327 409 476 366 416 300 153 250 179 228 303 279 288 206 245 318 369 319 316 245 192 118
277 197 315 259 275 200 204 299 406 235 219 265 205 51 17 0 42 92 182 118 130 197 312 463 198 91 53 16 103 98 72 206 178 225 315 596 337 344 376 519 355 250 242
263 114 104 102 153 251 213 394 364 124 231 121 164 158 129 58 0 0 34 58 91 98 138 240 162 32 0 0 7 9 65 46 88 210 220 194 122 127 176 168 119 88 86
132 106 68 43 88 224 286 339 359 274 326 237 138 114 59 3 8 2 0 27 2 7 22 43 147 126 38 28 32 13 23 27 31 32 37 49 54 71 86 68 63 54 63
127 97 70 58 70 116 280 212 240 215 167 107 123 175 118 3 13 38 38 1 0 1 7 3 12 10 5 8 5 4 3 2 2 1 2 2 5 8 9 9 11 7 9
103 102 106 52 61 69 91 133 105 41 49 54 63 61 109 142 146 78 69 9 1 3 1 0 1 1 0 2 4 5 4 2 2 1 1 2 3 3 3 4 4 2 3
68 41 25 19 4 18 106 1 0 26 25 39 28 63 38 103 260 217 85 22 4 6 2 1 0 1 4 3 5 4 4 3 1 0 0 0 0 0 1 2 0 2 0
40 9 19 28 2 48 0 0 0 0 0 0 21 28 75 149 97 163 108 0 0 2 0 2 1 0 2 0 2 2 4 3 3 2 2 1 0 1 1 1 1 0 0
0 0 0 0 0 2 0 0 0 2 0 1 0 6 73 113 130 96 72 23 2 0 0 2 2 2 3 3 3 0 2 2 1 0 0 0 0 0 0 0 0 0 0
1 8 11 3 0 0 0 0 0 0 0 0 0 0 0 10 58 91 62 20 0 0 0 2 1 1 1 0 0 0 0 0 0 0 0 0 0 0 0 0 0 0 1
0 3 2 0 0 0 0 0 0 0 0 0 0 1 0 0 0 1 5 1 0 0 0 0 2 1 1 0 0 0 0 0 0 0 0 0 0 0 0 0 0 0 0
0 0 0 0 0 0 0 0 0 0 0 0 0 0 0 0 1 0 0 0 0 0 0 1 1 2 2 1 0 0 0 0 0 0 0 0 0 0 0 0 0 0 0
0 0 0 0 0 0 0 0 0 0 0 0 0 0 0 0 0 0 0 0 0 0 0 0 1 2 1 0 0 0 0 0 0 0 0 0 0 0 0 0 0 0 0
35 0 0 0 0 0 0 0 0 0 0 0 0 0 0 0 0 0 0 0 0 0 0 1 1 2 0 0 0 0 0 0 0 0 0 0 0 0 0 0 0 0 0
37 11 0 0 0 0 0 0 0 0 0 0 0 0 0 0 0 0 0 0 0 0 0 0 0 0 0 0 0 0 0 0 0 0 0 0 0 0 0 0 0 0 0
84 19 0 0 0 0 0 0 0 0 0 0 0 0 0 0 0 0 0 0 0 0 0 0 0 0 0 0 2 0 2 2 17 1 0 0 1 0 0 0 0 0 0
124 68 0 0 0 0 0 0 0 0 0 0 0 0 0 0 0 0 0 0 0 0 0 0 0 0 0 0 0 0 0 25 34 24 13 20 1 1 0 0 0 0 0
176 106 52 0 0 0 0 0 0 0 0 0 0 0 0 0 0 0 0 0 0 0 0 0 0 0 0 0 0 0 0 0 0 27 0 17 10 8 0 0 0 0 0
190 149 89 0 0 0 0 0 0 0 0 0 0 0 0 0 0 0 0 0 0 0 0 0 0 0 0 0 0 0 0 0 0 0 0 0 0 6 7 0 0 0 0

GFSMA_con_mlcape_054.txt.gz
CAPE
67 0 14 467 338 243 183 57 2 0 0 0 83 363 551 637 283 235 292 390 515 350 491 370 611 755 823 628 476 304 234 157 79 150 305 242 150 447 415 406 221 181 69
85 152 165 116 55 172 50 10 0 0 0 0 0 94 162 517 414 331 472 381 534 676 668 316 361 868 963 840 470 640 567 465 342 255 406 485 312 270 445 472 300 264 321
186 95 31 10 4 32 20 7 0 0 0 0 91 129 235 426 531 473 514 475 626 545 578 311 276 309 541 702 580 415 461 503 592 600 628 525 256 324 287 352 253 365 193
137 31 4 0 22 30 5 0 0 0 0 1 66 66 104 337 303 271 424 538 539 630 577 372 356 376 452 327 804 611 545 425 325 351 240 324 253 224 95 150 119 91 93
85 41 10 0 7 24 12 2 0 2 0 13 43 71 120 171 212 379 384 496 603 596 517 506 408 414 332 317 442 757 668 523 225 103 59 47 87 82 83 107 79 66 92
9 1 0 5 58 58 65 40 23 18 3 26 136 212 199 189 250 228 226 391 358 684 613 569 588 581 465 347 236 175 246 465 192 140 140 67 68 80 55 72 95 137 143
8 0 0 0 0 67 129 171 96 77 47 65 112 88 52 98 146 168 282 274 196 320 308 373 449 503 402 295 241 253 180 398 415 250 189 165 125 141 146 141 177 190 172
31 79 90 122 129 148 201 148 95 53 51 78 73 0 0 0 0 32 99 185 159 188 207 218 252 265 133 137 168 342 276 217 255 323 214 192 222 206 227 191 217 245 203
185 160 154 155 167 116 103 136 118 57 0 0 86 6 0 0 0 0 28 62 95 116 115 162 65 50 27 72 161 290 187 141 111 172 248 242 232 203 230 250 459 242 196
166 182 169 156 153 181 168 111 180 68 62 11 3 28 0 1 0 0 1 2 31 52 4 0 1 0 0 0 19 56 58 85 96 203 187 141 104 104 125 143 132 107 115
173 102 90 89 97 134 139 137 122 80 98 51 25 0 0 12 8 10 3 2 0 2 3 37 13 9 10 2 14 44 62 55 58 82 102 98 99 95 112 101 88 60 47
167 143 117 89 83 109 105 70 63 59 15 0 0 61 6 0 0 2 5 2 0 1 0 2 4 4 6 9 17 9 3 3 1 0 2 8 5 5 10 15 10 7 7
126 120 117 97 94 92 71 34 7 0 0 0 0 0 27 5 79 10 23 9 5 4 1 1 2 2 1 2 7 6 6 3 1 0 0 0 1 2 2 2 2 3 4
59 71 79 67 112 113 11 0 0 0 0 0 0 9 31 102 174 80 0 0 3 6 1 1 0 3 3 5 7 4 5 3 0 0 0 0 1 2 1 2 1 0 0
37 46 26 84 108 27 0 0 0 0 0 0 0 21 87 63 130 181 21 0 0 1 2 1 1 2 1 1 2 1 3 5 2 2 2 2 1 1 1 0 0 0 0
0 3 1 0 14 0 0 0 0 0 0 0 1 23 45 43 67 117 40 0 0 0 0 1 1 2 3 2 3 1 2 2 1 1 0 0 0 0 0 0 0 0 2
0 1 2 0 0 0 0 0 0 0 0 0 0 0 2 12 36 59 38 7 0 0 0 1 1 0 0 0 1 0 0 0 0 0 0 0 0 0 0 0 0 1 0
0 0 0 0 0 0 0 0 0 0 0 0 0 0 0 0 0 0 0 0 0 0 0 0 2 1 1 0 0 0 0 0 0 0 0 0 0 0 0 0 0 0 0
0 0 0 0 0 0 0 0 0 0 0 0 0 0 0 0 0 0 0 0 0 1 2 0 1 1 2 1 1 0 0 0 0 0 0 0 0 0 0 0 0 0 0
0 0 0 0 0 0 0 0 0 0 0 0 0 0 0 0 0 0 0 0 0 0 0 0 1 1 2 2 0 0 0 0 0 0 0 0 0 0 0 0 0 0 0
0 0 0 0 0 0 0 0 0 0 0 0 0 0 0 0 0 0 0 0 0 0 0 1 1 1 1 1 0 0 0 0 0 0 0 0 0 0 0 0 0 0 0
32 0 0 0 0 0 0 0 0 0 0 0 0 0 0 0 0 0 0 0 0 0 0 0 0 0 0 0 0 0 0 0 0 0 0 0 0 0 0 0 0 0 0
76 19 0 0 0 0 0 0 0 0 0 0 0 0 0 0 0 0 0 0 0 0 0 0 0 0 0 0 0 0 0 1 1 0 0 0 0 0 0 0 0 0 0
74 3 0 0 0 0 0 0 0 0 0 0 0 0 0 0 0 0 0 0 0 0 0 0 0 0 0 0 0 0 0 0 0 0 0 0 1 3 0 0 0 0 0
94 9 0 0 0 0 0 0 0 0 0 0 0 0 0 0 0 0 0 0 0 0 0 0 0 0 0 0 0 0 0 0 0 1 0 17 3 11 0 0 0 0 0
0 40 2 0 0 0 0 0 0 0 0 0 0 0 0 0 0 0 0 0 0 0 0 0 0 0 0 0 0 0 0 0 0 0 0 0 0 6 2 2 0 0 0

GFSMA_con_mlcape_057.txt.gz
CAPE
136 0 8 152 201 443 453 326 151 42 0 23 40 144 341 442 482 117 222 533 265 266 338 709 621 464 827 802 481 422 833 637 151 143 485 541 219 297 270 447 425 199 109
88 46 0 75 298 216 185 119 29 10 15 0 0 10 125 291 498 435 243 258 413 383 297 464 567 466 710 793 699 520 389 363 320 155 166 367 415 166 398 418 353 352 245
93 81 111 195 141 140 104 19 1 1 0 6 0 48 109 203 356 375 345 271 357 475 285 485 468 257 436 746 827 685 519 399 445 429 349 304 267 347 278 294 476 412 290
88 102 82 64 23 27 24 4 0 2 0 0 0 3 86 117 295 225 286 402 339 460 487 548 346 284 284 359 418 758 525 499 377 188 186 113 150 144 131 69 80 77 52
166 122 32 7 23 34 33 23 17 0 0 0 0 36 50 77 115 185 218 226 334 442 539 491 407 343 277 364 242 308 599 655 394 188 130 67 34 76 38 62 72 93 49
137 79 19 9 8 13 77 91 82 49 30 0 20 207 180 168 174 159 152 242 267 361 381 410 388 388 334 313 368 317 210 510 416 173 141 87 95 50 71 77 80 110 96
11 1 0 0 0 24 31 124 146 114 88 69 93 72 91 104 67 81 115 157 209 235 262 326 308 330 347 440 418 344 178 92 171 171 130 192 227 208 157 119 118 128 146
6 5 0 0 4 38 117 202 213 137 96 77 73 40 0 0 0 0 0 81 132 166 160 177 189 207 234 251 232 299 247 252 275 219 161 170 155 107 84 81 91 134 154
57 53 139 91 144 157 151 191 160 124 66 42 86 0 0 0 0 3 4 3 0 31 54 23 35 42 53 130 184 183 256 181 107 168 121 77 101 166 167 176 164 137 138
132 106 103 124 136 180 182 154 132 113 113 37 36 54 0 0 0 0 1 2 2 0 0 0 0 1 0 5 82 119 46 76 104 61 51 63 88 114 147 159 148 115 90
112 97 90 68 66 58 81 96 99 71 40 21 0 1 0 0 0 5 2 0 1 1 3 3 3 5 1 0 31 65 40 23 40 57 135 149 142 158 139 91 80 81 61
72 98 99 89 74 60 81 80 71 78 96 61 20 22 4 0 0 0 1 1 2 1 0 2 1 0 2 11 27 15 6 3 1 12 20 27 28 31 23 12 9 9 8
69 100 120 110 82 74 66 63 30 21 5 0 0 0 39 9 0 0 0 0 2 2 1 1 1 1 0 2 9 4 5 1 0 0 0 1 1 2 3 4 5 2 2
66 84 70 59 109 70 25 22 13 0 0 0 2 2 13 24 7 0 0 1 2 3 1 1 1 2 2 4 7 4 4 1 0 0 0 1 2 2 3 1 0 0 3
41 61 47 115 102 10 4 10 0 0 0 0 4 9 18 36 72 29 0 0 0 0 1 2 1 2 1 1 2 1 3 3 3 2 2 1 1 0 0 0 0 0 0
0 7 17 46 12 3 0 0 0 0 0 2 0 4 18 28 77 105 5 0 0 0 0 2 2 2 2 2 3 1 2 2 1 0 0 0 0 0 0 0 0 2 4
0 0 0 0 0 0 0 0 0 0 0 0 0 0 0 12 24 65 4 0 0 0 0 1 1 1 1 2 0 0 0 0 0 0 0 0 0 0 0 0 1 2 1
0 0 0 0 0 0 0 0 0 0 0 0 0 0 0 0 0 0 0 0 0 0 0 0 2 1 1 1 0 0 0 0 0 0 0 0 0 0 0 0 0 0 0
0 0 0 0 0 0 0 0 0 0 0 0 0 0 0 0 0 0 0 0 0 0 0 0 0 1 2 1 1 0 0 0 0 0 0 0 0 0 0 0 0 0 0
0 0 0 0 0 0 0 0 0 0 0 0 0 0 0 0 0 0 0 0 1 1 2 1 1 1 2 1 0 1 0 0 0 0 0 0 0 0 0 0 0 0 0
0 0 0 0 0 0 0 0 0 0 0 0 0 0 0 0 0 0 0 0 0 1 2 1 0 1 1 1 0 0 0 0 0 0 0 0 0 0 0 0 0 0 0
14 0 0 0 0 0 0 0 0 0 0 0 0 0 0 0 0 0 0 0 0 0 0 0 0 0 0 0 0 0 0 0 0 0 0 0 0 0 0 0 0 0 0
31 1 0 0 0 0 0 0 0 0 0 0 0 0 0 0 0 0 0 0 0 0 0 0 0 0 0 0 0 0 0 0 0 0 0 0 0 0 0 0 0 0 0
42 25 0 0 0 0 0 0 0 0 0 0 0 0 0 0 0 0 0 0 0 0 0 0 0 0 0 0 0 0 0 0 0 0 0 0 0 0 0 0 0 0 0
8 42 0 0 0 0 0 0 0 0 0 0 0 0 0 0 0 0 0 0 0 0 0 0 0 0 0 0 0 0 0 0 0 0 0 0 1 12 0 0 0 0 0
1 23 14 0 0 0 0 0 0 0 0 0 0 0 0 0 0 0 0 0 0 0 0 0 0 0 0 0 0 0 0 0 0 0 0 0 8 2 0 0 0 0 0

GFSMA_con_mlcape_060.txt.gz
CAPE
426 336 254 395 596 624 566 419 375 237 138 86 112 100 254 275 284 72 52 528 427 401 133 395 527 658 683 631 408 362 452 749 400 225 744 485 229 87 156 391 331 172 34
141 105 141 179 253 268 526 391 220 120 0 0 0 33 90 325 543 507 165 176 534 412 238 320 402 497 459 901 769 565 523 604 786 325 40 221 416 192 177 372 376 212 289
103 69 28 30 85 314 244 212 146 62 50 35 14 0 20 79 178 356 425 364 305 489 525 478 321 461 292 455 874 1030 815 500 592 446 191 94 200 335 293 223 277 392 240
82 115 55 43 195 168 172 106 48 26 5 0 0 8 31 148 248 399 423 374 375 318 434 505 333 318 249 256 204 512 867 715 300 323 243 125 17 63 115 43 88 76 23
121 91 119 113 67 39 35 28 11 15 30 2 4 0 20 77 113 238 253 290 334 424 428 528 416 343 336 321 236 286 334 404 459 271 189 99 63 36 37 64 64 59 63
173 125 77 36 6 13 39 39 38 41 47 23 21 16 152 194 173 192 199 234 302 359 448 517 507 478 354 339 293 293 361 313 131 282 194 165 122 74 52 59 103 110 63
86 77 65 24 1 0 13 18 101 105 70 28 37 83 45 27 52 79 122 176 206 257 346 479 424 439 424 428 487 369 311 316 187 95 121 124 139 140 135 153 145 159 141
18 15 10 0 0 0 2 29 74 143 86 73 106 50 6 0 0 0 0 57 104 192 234 250 298 291 278 259 319 368 340 203 234 163 121 107 114 115 82 43 42 59 47
10 30 36 47 29 10 34 105 224 218 149 137 123 39 0 0 0 1 1 3 6 35 42 65 74 62 74 207 216 330 283 200 238 180 112 73 74 49 97 136 153 216 153
171 160 111 98 121 130 146 167 140 151 146 141 96 116 0 0 0 0 1 1 1 2 1 0 0 0 0 38 189 109 71 72 83 114 53 33 18 47 102 131 104 79 60
158 119 149 135 154 200 252 212 208 143 127 159 122 38 60 28 0 0 1 1 1 0 3 0 3 3 1 10 57 92 45 44 60 74 74 128 135 113 100 83 68 43 58
114 145 141 126 104 112 150 153 134 153 163 137 115 66 42 15 0 17 2 3 1 2 1 1 1 1 6 42 45 15 7 10 7 16 27 37 16 14 13 10 13 3 1
104 121 150 179 165 154 149 125 107 98 80 65 32 32 59 12 0 0 0 1 0 2 1 1 1 1 0 7 13 6 4 0 0 0 0 0 0 1 2 2 2 9 21
67 79 90 128 188 138 97 88 49 23 1 0 0 0 10 100 10 0 0 0 1 1 1 1 1 0 1 5 6 4 4 1 0 0 0 0 0 1 0 1 1 6 2
18 51 32 107 128 67 55 77 19 4 0 0 0 5 4 43 59 13 0 0 0 0 2 2 1 1 1 1 1 1 2 1 2 0 0 0 0 1 0 0 1 0 0
3 14 29 42 27 7 0 1 0 0 0 0 0 1 12 18 78 88 10 0 0 0 0 1 2 2 1 2 3 0 3 1 1 0 0 0 0 0 0 0 2 4 3
0 0 0 15 3 0 0 0 0 0 0 0 0 0 0 3 51 107 26 0 0 0 0 1 0 2 2 0 0 0 0 0 0 0 0 0 0 0 0 1 1 2 3
0 0 0 0 0 0 0 0 0 0 0 0 0 0 0 0 0 18 11 0 0 0 0 0 2 1 2 0 0 0 0 0 0 0 0 0 0 0 0 0 0 0 0
0 0 0 0 0 0 0 0 0 0 0 0 0 0 0 0 0 0 0 0 0 0 0 0 1 2 3 2 0 0 0 0 0 0 0 0 0 0 0 0 0 0 0
0 0 0 0 0 0 0 0 0 0 0 0 0 0 0 0 0 0 0 0 0 0 1 2 1 2 3 2 0 0 0 0 0 0 0 0 0 0 0 0 0 0 0
16 0 0 0 0 0 0 0 0 0 0 0 0 0 0 0 0 0 0 1 0 0 2 1 0 2 1 1 1 0 0 0 0 0 0 0 0 0 0 0 0 0 0
3 10 23 0 0 0 0 0 0 0 0 0 0 0 0 0 0 0 0 1 0 1 0 1 0 0 0 0 0 0 0 0 0 0 0 0 0 0 0 0 0 0 0
10 22 0 0 0 0 0 0 0 0 0 0 0 0 0 0 0 0 0 0 0 0 0 0 0 0 0 0 0 0 0 0 0 0 0 0 0 0 0 0 0 0 0
6 8 1 0 0 0 0 0 0 0 0 0 0 0 0 0 0 0 0 0 0 0 0 0 0 0 0 0 0 0 0 0 0 0 0 0 0 0 0 0 0 0 0
10 6 3 0 0 0 0 0 0 0 0 0 0 0 0 0 0 0 0 0 0 0 0 0 0 0 0 0 0 0 0 0 0 0 0 0 0 6 2 0 0 0 0
2 0 0 0 0 0 0 0 0 0 0 0 0 0 0 0 0 0 0 0 0 0 0 0 0 0 0 0 0 0 0 0 0 0 0 0 4 10 8 0 0 0 0

GFSMA_con_mlcape_063.txt.gz
CAPE
1287 1131 838 1004 1022 1269 1225 1144 1001 875 846 705 710 646 557 367 425 231 174 158 432 448 403 344 395 513 448 627 483 791 802 925 568 233 558 439 441 161 55 427 333 210 84
813 612 540 497 897 1032 989 906 1032 904 560 311 298 480 532 708 930 885 489 299 513 493 386 332 397 474 570 665 735 595 573 513 770 616 256 435 612 401 193 216 399 288 284
210 146 244 244 627 797 909 1072 876 532 393 365 309 298 165 412 513 1061 1212 841 567 444 483 357 397 340 437 562 650 766 674 636 557 657 540 149 89 183 251 173 251 150 309
81 67 92 193 289 465 731 693 584 293 182 173 188 191 198 282 541 928 1017 1060 974 933 743 507 531 485 358 355 296 328 456 552 534 327 326 370 206 91 19 7 36 33 37
185 191 98 111 324 395 605 559 439 260 187 209 187 90 111 157 379 507 853 1075 1102 966 927 878 557 435 360 275 405 330 323 293 268 319 277 207 142 60 5 22 13 30 37
49 219 212 188 254 199 156 202 181 231 180 201 257 177 356 306 712 669 724 854 932 1044 1039 1194 897 694 546 379 307 295 208 272 315 234 269 225 208 106 73 54 47 68 109
184 112 116 142 125 94 185 221 255 205 289 334 73 183 427 410 646 548 198 329 784 918 982 1158 1353 1054 933 600 489 515 415 346 329 236 119 169 181 118 110 95 66 87 83
121 145 74 44 167 131 171 196 224 301 252 56 54 78 123 148 256 157 128 177 606 835 972 1081 1163 1099 1225 1171 1014 468 420 402 301 154 126 98 123 96 68 75 75 71 67
10 45 172 171 169 130 53 161 207 194 149 97 85 139 59 32 130 83 41 51 117 171 213 366 487 481 536 778 723 574 319 249 205 187 173 126 92 65 38 51 72 114 141
48 170 217 208 391 385 280 187 376 603 455 113 241 477 221 125 118 11 25 1 2 36 121 63 76 110 259 478 404 219 112 111 170 215 143 70 20 24 41 38 70 76 71
175 102 6 132 216 217 180 129 220 116 134 220 217 220 263 154 100 130 5 2 1 1 9 33 21 107 193 321 303 100 84 94 64 47 64 62 64 64 61 60 75 85 42
354 182 118 143 154 133 189 232 272 599 629 481 552 431 297 171 180 213 101 11 4 2 2 1 1 18 63 121 107 29 12 15 26 54 77 64 45 19 6 6 1 0 19
309 304 425 194 185 219 208 251 421 517 529 459 489 435 339 242 317 334 317 8 6 2 2 2 1 1 2 9 10 9 3 0 1 0 0 0 0 0 0 3 24 58 31
261 251 270 336 357 267 449 416 407 425 455 402 279 286 179 189 289 236 192 48 3 1 2 1 1 1 4 2 6 4 4 2 0 0 0 0 0 0 1 4 3 1 1
213 190 199 331 396 291 142 241 151 121 163 197 257 235 239 285 488 324 224 156 7 0 1 2 1 2 3 3 3 3 5 2 1 0 0 0 0 1 0 0 0 0 0
172 169 215 312 214 123 97 98 115 90 70 131 100 179 178 201 292 321 255 192 57 0 1 1 2 2 2 3 5 2 2 2 1 1 1 0 1 0 2 3 3 2 1
107 103 102 199 84 52 25 11 41 25 13 13 34 72 96 124 184 268 285 266 0 0 0 1 1 2 1 2 3 2 6 4 0 0 0 0 0 0 1 1 1 1 0
73 115 142 183 109 0 0 0 1 0 0 1 6 80 67 73 28 203 163 110 0 0 0 0 3 2 1 5 2 1 0 0 0 0 0 0 0 0 0 0 0 0 0
132 123 117 105 52 0 0 0 0 0 0 0 0 8 1 18 3 26 165 7 0 0 0 0 2 2 3 4 2 0 0 0 0 0 0 0 0 0 0 0 0 0 0
96 132 99 96 40 0 0 0 0 0 1 1 3 0 0 1 7 1 10 4 2 1 3 3 3 3 4 3 0 1 0 0 0 0 0 0 0 0 0 0 0 0 0
147 73 48 94 24 0 0 0 0 0 0 1 3 1 1 0 0 1 3 3 4 3 3 3 2 4 3 3 2 2 0 0 0 0 0 0 0 0 0 0 0 0 0
65 23 1 20 60 14 0 0 0 0 0 0 1 0 0 0 0 0 0 0 2 3 4 3 2 1 1 3 3 0 0 0 0 0 0 0 0 0 0 0 0 0 0
102 7 8 0 2 44 0 0 0 0 0 0 0 2 0 0 0 0 0 1 0 0 0 5 3 3 3 2 1 2 0 0 2 0 0 3 0 0 0 0 0 0 0
286 178 6 0 0 0 0 0 0 0 0 0 0 0 0 0 0 1 2 2 3 2 1 0 5 2 0 1 0 0 0 0 8 0 0 15 4 8 2 0 0 0 0
271 125 28 0 0 0 0 0 0 0 0 0 0 0 0 0 0 0 0 0 0 0 0 0 0 0 0 0 1 5 9 11 33 14 0 26 27 32 23 28 2 0 0
208 17 4 2 0 0 0 0 0 6 0 0 0 0 0 0 0 0 0 0 0 0 0 0 0 0 0 0 0 4 17 19 29 48 10 8 30 34 21 21 29 3 0

GFSMA_con_mlcape_069.txt.gz
CAPE
1083 873 857 641 759 1080 1132 909 876 1135 1087 747 724 825 301 255 198 386 571 653 406 316 586 781 890 705 603 600 700 486 491 1040 629 464 365 726 670 656 430 223 542 504 353
1001 734 674 367 647 939 930 863 803 993 944 905 715 788 683 571 243 164 306 780 320 132 161 455 729 540 554 606 660 443 614 790 982 909 647 419 324 572 256 366 300 248 447
946 759 515 444 518 834 1299 936 804 1108 996 1005 497 815 451 485 550 480 414 351 567 200 128 190 340 473 557 572 679 612 562 587 700 592 600 443 330 307 354 480 561 463 180
888 758 662 446 395 954 821 746 894 1117 921 711 401 493 517 426 595 451 572 772 812 775 372 226 324 260 349 526 620 732 715 513 525 532 428 358 233 54 173 181 214 16 1
762 932 357 217 404 609 712 860 825 942 813 466 302 291 312 274 379 302 452 669 866 1122 671 558 572 287 260 420 519 529 666 554 468 388 411 435 333 145 36 20 52 0 0
292 112 149 177 20 168 307 714 716 641 696 350 283 257 416 400 396 572 446 503 854 1366 265 75 831 596 532 487 369 254 332 520 283 234 257 271 293 297 173 14 9 53 0
256 230 114 594 582 173 424 876 1056 949 413 285 216 242 201 299 158 393 822 1125 1285 1356 1196 679 948 764 1337 654 427 368 282 243 240 248 242 214 191 189 211 133 94 76 55
674 670 509 154 278 152 132 269 172 190 215 320 360 626 64 151 115 592 733 844 874 1036 831 1156 1129 1359 1523 1181 806 523 572 398 270 316 292 226 192 139 115 113 113 76 61
589 449 196 103 82 90 59 121 430 559 443 433 900 336 7 12 32 291 617 563 481 521 749 868 1011 1197 1476 1511 1242 829 530 400 350 213 172 200 126 95 116 79 38 22 12
374 490 563 243 49 46 225 57 208 575 566 470 790 457 135 39 22 130 314 418 372 437 697 609 505 726 918 1100 651 206 71 84 181 224 233 186 144 114 66 29 9 3 26
383 126 6 92 65 183 714 741 795 540 571 553 583 152 85 60 42 36 29 258 144 21 23 141 383 584 838 950 571 65 42 101 209 288 221 140 75 62 52 51 50 28 43
555 257 0 0 0 0 51 210 324 400 380 317 101 71 32 284 374 327 254 367 148 1 1 2 7 169 408 283 70 33 30 28 61 77 82 82 100 94 83 94 99 74 60
565 557 513 436 71 138 98 250 446 438 270 352 304 285 324 344 386 390 357 386 104 1 1 1 1 14 73 101 18 13 4 0 2 4 5 1 2 1 21 39 48 109 96
367 788 615 644 727 559 168 247 509 649 691 693 688 682 604 477 600 740 491 373 71 3 2 1 2 2 0 0 3 1 2 0 0 0 0 0 0 0 2 3 18 10 7
355 374 368 375 622 775 701 381 184 105 228 249 200 223 280 331 445 672 793 270 136 32 1 2 1 3 2 2 5 4 3 1 0 0 0 0 0 0 0 0 0 0 0
595 349 235 235 507 535 472 563 577 319 308 458 416 472 621 518 335 515 675 534 197 188 6 2 2 2 1 1 6 4 3 1 0 0 0 0 0 0 0 0 0 0 0
666 507 381 575 474 394 268 322 325 282 207 305 353 300 387 561 594 554 922 371 301 326 106 1 2 2 3 2 3 5 1 2 0 1 0 0 0 0 0 0 0 0 0
660 569 379 279 325 250 208 202 128 65 129 143 185 170 282 387 612 725 761 444 304 232 22 0 2 1 1 3 3 6 3 5 1 0 0 1 0 0 0 0 0 0 0
703 546 401 299 297 219 121 104 70 55 85 128 144 247 240 258 422 582 598 670 353 191 2 0 0 3 1 2 0 9 3 0 1 0 0 0 0 0 0 0 0 0 0
811 731 620 417 310 253 113 81 3 1 46 62 117 130 148 176 360 452 471 503 399 141 2 0 0 2 1 0 1 1 0 0 0 0 0 0 0 0 0 0 0 0 0
775 703 606 474 408 244 86 91 22 11 52 59 66 80 103 3 0 57 199 475 158 10 2 3 2 3 2 2 1 1 5 1 0 0 0 0 0 0 0 0 0 0 0
888 778 639 585 373 217 0 0 0 45 44 56 74 63 48 0 0 0 0 0 167 16 3 5 4 1 3 3 2 0 0 0 1 0 0 0 0 0 0 0 0 0 0
1188 1112 1015 805 500 189 0 0 0 0 29 21 17 37 20 0 0 1 0 0 0 0 3 2 3 3 3 1 2 0 0 0 0 0 0 0 0 0 0 0 0 0 0
1484 1247 1172 1018 787 269 0 0 0 0 5 5 6 18 62 52 7 8 12 9 5 2 0 0 1 1 1 2 0 1 0 0 0 2 0 3 0 0 1 0 0 0 0
1445 1226 1036 955 732 286 0 0 0 0 7 31 38 10 4 23 0 0 27 51 5 5 0 0 0 1 8 0 2 1 2 3 2 0 0 31 0 1 0 0 0 0 0
1253 905 821 693 632 268 0 0 0 0 7 59 36 50 0 0 0 0 15 17 14 7 2 0 0 0 0 2 0 3 3 2 5 33 17 17 19 12 7 2 0 0 0

GFSMA_con_mlcape_072.txt.gz
CAPE
873 891 799 1024 905 1138 764 730 709 725 609 628 974 672 820 794 351 313 729 426 425 303 320 520 757 875 810 550 430 309 277 696 625 557 176 370 783 687 407 137 118 560 430
942 953 803 688 708 716 861 770 692 771 644 705 743 646 369 410 461 425 676 631 382 265 293 315 539 746 764 706 616 550 598 632 875 901 602 434 308 426 605 460 456 249 210
837 861 761 906 859 968 1281 689 781 756 574 1018 792 816 843 457 385 582 372 783 625 344 127 122 283 492 564 475 554 550 556 510 329 733 882 779 536 340 388 405 409 546 327
893 606 1023 730 532 983 828 1172 679 876 1061 823 614 596 577 464 503 417 540 393 806 827 339 338 170 136 185 317 399 602 519 550 537 461 512 490 333 305 207 213 254 263 67
853 916 797 634 539 868 851 689 788 945 284 316 634 268 253 591 302 329 397 613 435 704 699 634 382 225 298 395 369 430 515 479 434 440 508 455 387 322 176 9 31 14 14
1149 812 763 408 312 194 513 509 505 765 761 730 567 273 368 206 362 211 303 400 970 1335 789 595 207 44 307 91 214 217 252 375 192 280 340 285 234 280 204 111 4 8 58
722 426 159 307 180 3 0 134 472 278 369 625 185 191 325 487 342 283 224 832 396 303 20 1022 360 440 303 53 4 365 230 284 207 154 214 213 154 153 244 145 94 31 23
258 400 336 94 468 556 205 94 196 467 424 222 87 182 95 82 146 118 609 587 442 598 557 863 617 721 812 853 729 457 291 171 171 302 174 162 189 179 179 133 86 80 89
302 258 325 521 271 285 72 14 37 44 11 75 272 118 94 0 12 33 61 377 422 302 514 571 711 666 677 853 1100 776 715 648 623 482 273 156 219 154 111 94 77 45 41
436 256 339 288 200 75 56 17 3 19 32 49 173 167 234 45 0 4 13 5 272 312 332 283 258 217 287 464 456 349 232 134 302 263 147 195 152 126 101 58 29 20 4
460 439 267 365 191 86 131 160 182 249 128 152 177 227 283 140 0 5 1 0 10 15 0 0 31 114 260 411 212 40 47 94 208 227 211 205 127 89 56 31 29 38 34
591 339 160 42 67 21 5 13 22 64 172 255 213 135 51 44 21 27 58 43 61 2 2 1 0 58 133 68 31 19 30 105 133 129 126 98 80 68 71 71 61 74 77
669 433 69 0 0 0 4 9 103 104 61 63 44 28 35 16 0 68 147 171 103 1 2 1 1 12 39 15 5 3 0 0 4 14 20 23 19 17 25 44 73 122 99
204 490 575 587 521 424 232 137 376 284 302 315 445 518 324 436 320 232 178 140 92 2 2 0 1 1 0 0 3 2 0 0 0 0 0 0 0 0 12 44 62 64 51
553 660 573 478 373 882 524 158 59 88 38 96 139 95 112 143 163 192 188 209 108 4 1 2 1 3 2 3 7 1 1 0 0 0 0 0 0 0 0 0 0 0 0
758 586 324 390 424 793 340 273 413 219 133 122 142 167 328 352 468 378 408 389 226 91 8 1 2 1 1 3 8 0 0 0 0 0 0 0 0 0 0 0 0 0 0
824 577 358 574 634 489 332 237 196 174 239 225 242 253 239 316 296 460 301 247 238 141 32 1 1 3 2 0 5 0 0 0 0 0 0 0 0 0 0 0 0 0 0
758 738 611 384 397 212 197 177 119 140 172 187 128 181 145 284 362 277 275 255 271 170 23 0 2 0 0 3 1 0 1 0 0 0 0 0 0 0 0 0 0 0 0
950 779 597 468 363 335 157 167 136 109 157 161 127 78 217 239 267 333 356 433 218 91 7 0 0 1 0 0 0 0 1 0 0 0 0 0 0 0 0 0 0 0 0
1039 616 669 488 365 343 284 146 64 9 35 132 12 11 130 235 227 428 381 396 244 80 0 0 0 1 1 0 0 0 0 0 0 0 0 0 0 0 0 0 0 0 0
853 867 664 570 440 302 26 63 60 34 32 116 91 11 116 2 0 39 225 311 236 43 0 1 1 2 1 1 0 0 0 0 0 0 0 0 0 0 0 0 0 0 0
977 903 692 593 530 376 0 0 0 4 34 83 68 87 25 0 0 0 9 179 196 66 0 1 3 1 1 1 0 0 0 1 0 0 0 0 0 0 0 0 0 0 0
1248 1278 936 987 721 642 13 0 0 0 0 14 65 103 52 85 15 7 0 7 53 52 16 0 0 1 1 0 0 0 0 0 1 0 0 0 0 0 0 0 0 0 0
1604 1341 1098 1058 833 361 18 0 0 0 0 1 16 52 71 53 45 111 58 20 3 1 3 7 2 0 0 0 0 0 0 0 0 0 0 0 0 0 0 0 0 0 0
1597 1181 1070 844 1055 470 13 0 0 0 0 0 10 44 60 79 24 1 52 77 6 0 0 0 0 1 0 0 0 0 0 1 0 0 0 0 2 0 0 0 0 0 0
1479 1198 1143 893 674 404 8 0 0 0 0 2 5 48 30 0 12 0 0 82 104 61 0 0 0 0 3 0 0 0 0 0 0 3 0 0 2 1 0 0 0 0 0

GFSMA_con_mlcape_075.txt.gz
CAPE
626 734 675 632 685 574 730 804 648 574 503 518 570 446 277 286 745 290 349 420 263 251 168 392 617 608 644 460 431 646 174 394 475 629 366 294 369 408 383 116 4 140 274
662 697 540 555 698 669 681 552 513 414 619 482 442 386 467 715 400 484 630 473 404 345 245 222 516 597 706 406 374 395 460 336 619 856 600 364 384 709 608 517 398 199 148
605 779 729 496 753 732 780 586 560 599 535 399 417 431 601 546 290 341 557 584 714 535 426 163 248 363 396 471 281 288 263 363 426 769 814 733 570 442 364 510 378 403 362
626 619 542 626 659 717 673 505 501 612 361 524 519 540 607 361 416 479 569 595 702 522 696 323 283 299 231 302 312 271 267 252 255 433 570 753 702 532 436 349 303 259 189
820 568 421 576 250 486 504 430 525 520 537 274 425 382 546 548 453 362 370 480 618 611 510 411 319 283 198 229 267 455 428 341 262 280 363 489 378 397 315 216 81 53 9
386 854 499 480 219 219 379 423 295 436 382 170 358 327 321 179 194 405 280 313 471 621 536 491 385 310 191 100 103 48 281 435 332 206 251 378 429 383 372 234 96 14 0
400 320 152 288 272 125 41 112 238 199 339 359 167 123 116 280 96 128 234 233 184 344 183 72 192 126 159 76 13 61 13 332 457 181 243 205 262 218 211 204 132 61 13
335 281 178 117 115 66 12 0 5 115 175 134 54 40 36 12 90 184 169 153 213 380 204 57 504 470 308 359 188 169 79 184 491 225 105 198 198 249 217 185 205 94 40
406 189 138 98 53 141 72 54 2 5 0 18 76 48 18 0 6 39 16 8 107 194 224 205 342 462 490 393 513 527 199 210 582 270 257 197 187 228 226 176 112 88 42
340 175 170 103 220 179 122 55 25 17 21 4 23 44 43 14 0 0 16 0 46 25 24 59 101 132 156 261 312 359 355 237 298 335 352 346 200 181 88 60 45 16 16
397 299 203 142 182 228 108 41 39 18 24 15 4 6 33 76 27 0 0 0 0 2 2 1 18 63 157 182 51 89 84 113 209 247 216 163 160 151 75 41 21 27 22
425 446 85 107 177 172 65 74 59 24 63 102 112 97 65 66 24 3 1 9 17 3 0 2 0 50 55 38 45 79 131 157 167 162 170 148 171 121 67 69 56 71 82
237 207 119 0 0 0 0 1 11 48 23 0 0 56 64 42 33 5 8 36 118 17 2 0 0 8 26 1 4 8 16 30 41 42 52 55 60 75 95 82 107 143 143
292 510 280 1 40 0 0 35 44 18 23 71 46 69 45 20 57 18 38 93 92 10 2 0 1 1 0 0 3 0 0 0 1 2 12 2 0 0 0 23 100 91 98
359 457 351 470 400 456 575 142 74 88 63 37 38 54 55 66 127 126 96 53 44 8 3 1 0 2 4 6 0 0 0 0 0 0 0 0 0 0 0 10 48 46 26
775 580 539 539 351 247 433 277 166 58 0 0 7 0 0 84 95 197 231 115 106 36 25 1 1 1 2 7 0 0 0 0 0 0 0 0 0 0 0 3 3 1 0
542 422 297 385 409 230 180 57 90 102 141 113 168 203 199 244 193 153 221 174 200 155 29 3 0 1 0 1 1 0 0 0 0 0 0 0 0 0 0 0 0 0 0
747 490 308 245 277 339 216 200 45 127 121 127 129 137 110 193 158 144 163 173 178 144 10 1 1 0 0 1 0 0 0 0 0 0 0 0 0 0 0 0 0 0 0
619 605 440 294 83 97 147 157 7 2 24 77 100 43 1 132 265 220 242 178 144 81 8 0 1 1 0 1 0 1 0 0 0 1 0 0 0 0 0 0 0 0 0
787 675 472 345 146 95 91 100 61 0 0 34 56 4 20 135 107 139 177 242 98 30 0 2 2 1 0 0 0 0 1 0 0 0 0 0 0 0 0 0 0 0 0
880 640 411 309 142 62 22 71 24 0 0 5 17 26 42 2 0 0 93 222 141 14 0 1 1 1 0 0 1 0 0 0 0 0 0 0 0 0 0 0 0 0 0
778 709 494 360 247 31 0 0 0 0 6 30 1 23 2 0 0 0 95 225 112 0 0 0 1 1 1 1 0 0 0 0 0 0 0 0 0 0 0 0 0 0 0
793 692 599 409 319 134 0 0 0 0 0 7 23 3 2 33 0 0 10 109 141 37 0 0 0 0 0 0 0 0 0 0 0 0 0 0 0 0 0 0 0 0 0
854 860 819 756 552 140 11 0 0 0 0 0 0 2 3 3 51 4 0 0 8 55 78 17 0 0 0 0 0 0 0 0 1 0 0 0 0 0 0 0 0 0 0
1029 1145 1010 906 606 190 16 1 0 0 0 0 1 1 7 2 0 0 35 1 0 0 0 8 26 4 0 0 0 0 0 0 0 0 0 0 0 0 0 0 0 0 0
1120 1049 874 756 625 295 50 2 0 0 0 0 0 0 0 0 0 0 0 26 28 10 0 0 0 0 0 0 0 0 0 0 0 0 0 0 0 0 0 0 0 0 0

GFSMA_con_mlcape_078.txt.gz
CAPE
750 633 673 710 720 689 643 518 431 542 432 285 430 438 375 289 227 455 296 231 120 13 200 687 609 465 334 310 533 447 159 399 812 667 567 177 130 193 320 195 7 15 63
560 633 657 578 557 611 421 489 434 520 501 483 487 580 522 361 528 470 401 426 347 245 295 581 759 850 847 595 336 348 549 241 364 494 640 475 172 306 402 497 259 102 280
544 604 523 482 504 563 498 576 541 512 451 362 518 394 348 474 533 388 509 453 592 578 385 466 496 232 701 956 846 460 356 442 333 412 800 626 410 220 269 399 626 389 297
584 441 608 514 462 471 609 612 513 516 507 443 325 382 439 581 547 442 482 481 490 569 456 459 274 189 246 540 686 672 468 384 317 294 347 614 666 456 365 246 266 337 340
485 480 402 380 429 350 470 410 308 477 234 287 381 348 364 514 477 413 517 519 559 568 484 546 459 185 222 251 164 177 265 290 357 298 251 274 303 331 346 275 231 156 96
472 465 255 327 153 16 206 349 235 440 351 201 247 245 184 224 270 306 332 327 502 595 558 379 400 286 374 426 207 334 139 353 304 566 393 205 278 321 351 229 235 187 18
422 460 328 222 121 0 9 151 154 229 250 306 101 104 60 110 178 71 97 186 203 299 302 319 260 161 31 160 231 211 152 66 97 337 480 317 194 177 130 185 218 187 46
410 341 257 65 53 64 28 4 89 128 145 121 84 40 15 5 40 116 92 176 124 125 233 116 38 49 112 142 168 126 200 241 506 365 447 218 188 146 128 157 163 129 130
542 440 270 170 51 88 37 5 0 19 27 58 96 31 17 1 0 49 0 54 126 88 66 65 157 166 269 294 291 346 534 714 416 319 479 233 136 85 122 161 159 133 137
477 307 275 117 15 68 34 52 53 9 2 0 12 13 10 1 0 0 0 0 71 2 0 5 3 71 115 147 209 268 393 282 341 505 599 511 287 160 174 191 130 92 72
394 251 177 147 81 107 103 76 48 3 6 15 5 0 1 30 10 3 1 0 0 0 0 2 0 31 63 50 3 56 55 67 149 264 347 242 192 160 120 93 97 69 57
360 310 146 123 103 49 89 120 45 62 71 76 57 28 5 3 21 24 23 1 1 0 0 0 2 39 38 14 32 78 123 141 115 118 131 110 118 141 110 110 42 78 113
371 151 75 79 126 114 83 29 42 26 6 0 0 28 41 50 22 17 4 1 9 2 0 0 1 20 8 0 3 13 43 44 42 42 53 62 76 80 107 95 100 185 189
216 255 98 26 14 1 0 0 0 0 29 9 0 0 5 16 26 10 11 1 11 28 0 0 0 2 6 0 3 0 1 0 0 6 22 26 34 31 32 46 87 98 107
440 368 342 55 0 3 0 1 0 0 0 0 14 27 2 0 24 54 24 32 44 17 0 1 0 1 2 0 0 0 0 0 1 1 1 6 0 0 0 8 47 58 66
437 319 374 321 324 393 368 377 13 0 0 0 0 0 14 18 42 54 47 35 27 39 3 0 0 1 1 0 0 0 0 0 0 0 0 0 0 0 0 2 3 1 1
558 458 358 393 504 232 246 137 74 62 0 15 0 2 57 97 84 97 125 84 81 35 19 2 0 1 1 0 1 0 0 0 0 0 0 0 0 0 1 5 4 1 0
523 334 221 193 192 149 79 0 0 37 32 0 1 42 37 47 82 74 98 99 132 86 40 10 1 0 0 0 0 0 0 0 0 0 0 0 0 0 0 0 0 0 0
744 525 368 150 131 149 56 41 28 0 18 79 50 5 17 10 56 100 91 108 102 98 25 0 1 0 1 1 1 0 0 0 0 1 0 0 0 0 0 0 0 0 0
827 438 511 348 115 33 66 14 33 18 0 0 41 8 1 0 0 0 22 0 0 0 1 0 1 1 0 0 0 1 0 0 0 0 1 0 0 0 0 0 0 0 0
892 663 606 398 304 185 62 127 42 23 4 0 1 12 1 0 0 0 0 0 0 0 0 1 2 1 1 0 1 0 0 0 0 0 0 0 0 0 0 0 0 0 0
839 704 708 532 244 138 33 88 64 13 10 20 30 16 0 0 0 0 50 120 0 2 0 0 1 1 1 1 0 0 0 1 0 0 0 0 0 0 0 0 0 0 0
799 742 650 455 368 248 79 8 0 0 1 3 25 33 7 0 0 0 63 106 1 1 1 0 0 0 0 0 0 1 0 0 0 0 0 0 0 0 0 0 0 0 0
786 663 655 576 457 350 74 15 0 0 0 6 13 40 31 25 2 0 4 32 35 5 0 0 0 0 0 0 0 0 0 0 0 0 0 0 0 0 0 0 0 0 0
677 661 712 722 596 499 105 42 4 0 0 0 1 27 33 21 61 17 25 8 0 0 0 3 2 0 0 0 0 0 0 1 1 0 0 0 0 0 0 0 0 0 0
0 398 823 900 746 469 80 19 0 0 0 0 0 0 24 14 7 11 61 26 8 0 0 0 0 0 0 0 0 0 0 0 0 0 0 0 0 0 0 0 0 0 0

GFSMA_con_mlcape_081.txt.gz
CAPE
528 677 691 745 743 914 815 596 640 456 447 443 222 152 295 357 273 164 319 460 0 0 310 487 239 320 444 185 58 478 424 129 373 233 295 166 108 124 200 72 24 56 91
524 688 601 610 611 698 624 512 357 415 485 350 122 357 408 506 346 296 411 338 138 103 87 434 527 628 503 492 429 271 292 236 318 653 583 545 286 136 173 341 362 80 28
569 564 650 599 581 561 584 370 383 437 464 442 394 406 285 377 373 496 488 351 424 546 215 311 338 288 380 650 844 699 671 541 225 331 370 369 520 253 322 434 554 476 178
635 540 552 483 514 477 482 458 431 365 353 328 346 421 324 337 407 495 376 406 294 566 558 417 305 266 212 221 613 1132 784 504 471 357 430 428 474 400 298 320 293 315 392
596 587 459 494 448 395 455 471 454 492 342 260 326 268 252 299 371 401 460 385 425 451 492 408 384 321 281 288 341 342 425 272 224 267 378 342 317 304 365 301 256 183 130
605 596 352 346 252 192 271 310 346 304 330 229 231 225 175 158 149 208 306 416 432 455 514 434 423 409 419 262 241 186 148 124 125 148 207 186 330 309 226 275 243 226 143
310 164 338 258 248 110 79 152 128 175 175 268 176 75 35 68 83 76 51 93 134 216 335 331 286 232 275 342 213 177 271 164 102 107 73 210 159 246 264 238 234 172 153
436 336 382 280 168 56 4 33 156 98 91 49 57 0 0 0 0 49 67 96 86 91 140 168 98 97 66 26 78 160 203 224 252 217 196 132 99 143 180 174 126 120 109
585 475 392 322 220 75 49 14 35 70 54 45 60 5 0 0 0 3 0 20 77 53 69 88 107 84 59 62 63 202 358 342 259 663 925 181 164 98 81 121 92 127 143
607 527 456 407 233 104 39 59 22 0 1 11 17 37 0 0 0 0 0 0 33 6 0 0 2 5 41 107 168 249 194 179 245 429 453 268 240 162 119 115 146 160 118
537 419 276 258 210 92 28 14 35 43 22 1 0 0 4 0 0 0 0 0 0 0 0 0 0 12 58 47 34 21 52 25 31 101 163 254 262 135 186 175 152 90 66
413 391 302 218 189 91 16 27 37 35 22 5 1 2 1 1 0 0 0 2 1 0 0 0 0 10 59 34 47 72 79 54 50 61 105 199 227 181 179 119 117 108 124
441 471 301 153 230 170 102 78 98 92 46 51 64 63 43 9 2 7 4 5 4 0 0 0 0 13 37 14 6 11 29 34 41 37 55 54 84 120 134 101 81 167 172
617 485 311 46 193 222 213 155 90 66 66 18 5 0 20 57 40 6 24 15 1 0 0 1 0 0 3 2 3 2 1 1 2 2 11 21 19 31 41 45 83 159 133
615 481 396 148 17 0 0 0 4 0 2 40 38 61 16 17 56 46 16 1 3 0 1 0 0 0 1 1 0 0 0 2 0 0 0 3 8 10 8 17 44 66 100
792 628 503 382 91 9 47 0 35 44 52 68 53 59 42 56 12 10 24 23 21 16 4 0 0 0 2 0 1 0 0 0 1 0 0 0 0 1 0 0 14 51 47
809 567 473 474 417 398 311 293 210 141 63 2 0 0 0 0 5 15 21 34 25 22 12 0 1 1 2 1 1 0 0 1 1 0 0 0 0 0 0 0 5 9 1
721 685 527 483 440 465 312 190 107 101 53 95 96 90 84 124 74 47 50 82 36 19 12 6 2 1 0 0 0 0 0 0 1 0 0 0 0 0 1 4 5 1 0
687 564 445 456 335 383 307 198 69 58 9 26 92 90 104 118 78 86 113 123 85 80 28 26 0 0 1 0 1 1 0 0 1 2 0 0 0 0 0 0 1 0 0
825 683 511 361 333 279 204 118 133 26 6 1 6 36 97 94 61 148 122 87 64 60 32 42 0 2 0 1 1 0 0 0 0 2 1 0 0 0 0 0 0 0 0
671 616 456 468 338 186 169 120 139 90 0 0 0 8 27 47 79 19 9 0 25 43 10 1 1 1 0 2 1 2 0 0 0 0 0 0 0 0 0 0 0 0 0
670 693 496 393 358 272 202 144 144 92 0 0 0 0 2 13 2 0 18 87 71 16 0 0 0 0 1 1 1 0 0 0 0 0 0 0 0 0 0 0 0 0 0
15 0 80 372 297 215 83 113 117 58 5 0 0 0 0 0 0 1 84 169 81 29 6 8 0 0 0 0 0 1 0 0 0 0 0 0 0 0 0 0 0 0 0
0 181 67 46 241 233 37 0 2 0 0 0 0 0 0 0 7 10 29 138 62 50 8 0 0 0 0 0 0 0 0 0 0 0 0 0 0 0 0 0 0 0 0
0 0 0 0 0 143 107 0 0 0 0 0 0 0 0 0 3 0 10 26 39 61 15 9 0 0 0 0 0 0 1 1 1 0 0 0 0 0 0 0 0 0 0
0 0 0 0 0 109 77 0 0 0 0 0 0 0 0 0 0 0 5 8 23 20 31 42 25 0 0 0 0 0 0 1 0 0 0 0 0 0 0 0 0 0 0

GFSMA_con_mlcape_084.txt.gz
CAPE
418 435 728 809 877 1098 1039 945 1042 468 822 742 358 58 20 202 260 137 43 359 415 0 58 486 279 133 161 291 611 422 514 76 247 512 224 223 243 139 152 74 98 429 169
487 448 686 694 749 778 890 737 565 538 368 348 229 108 99 385 414 282 200 240 753 36 16 221 505 324 398 618 310 160 468 467 230 422 388 315 271 120 187 269 270 115 39
703 512 616 616 605 669 710 659 460 465 414 409 351 143 273 401 437 445 376 362 473 400 62 114 88 296 337 428 675 545 268 337 509 325 410 503 448 345 234 165 322 531 356
700 678 549 619 628 594 596 520 384 302 402 377 348 342 338 279 344 385 411 387 386 279 495 379 144 155 260 323 492 566 686 624 689 435 250 282 265 198 330 240 267 401 425
744 673 600 549 544 500 505 492 472 401 400 323 300 288 200 239 256 369 391 407 380 380 322 444 401 231 325 350 354 326 426 568 398 378 327 237 230 195 199 297 279 268 231
688 603 582 563 438 339 312 399 424 397 402 363 336 325 293 186 133 174 256 402 489 474 487 446 458 493 353 334 274 234 242 184 130 157 290 279 265 245 212 220 235 263 170
433 583 557 535 372 347 255 212 202 153 193 125 179 120 115 70 46 83 65 83 201 310 449 499 465 378 348 364 461 425 281 245 204 151 98 96 186 189 225 228 198 163 181
491 382 409 320 288 266 168 95 104 111 134 87 56 59 20 0 0 33 17 40 65 97 162 282 225 165 195 172 146 164 188 134 260 240 147 154 39 105 153 111 111 112 152
667 545 355 322 302 223 195 77 33 59 91 48 33 30 0 0 0 0 0 0 87 97 116 141 155 174 184 115 110 115 129 195 250 250 398 457 330 308 147 128 108 122 124
636 650 407 464 396 241 153 65 14 26 55 61 28 43 6 0 0 0 0 0 14 49 37 18 13 11 27 75 115 137 140 93 120 250 484 448 520 198 204 118 82 90 134
463 460 493 364 313 232 157 113 15 20 13 9 26 31 49 20 0 0 0 0 0 12 0 0 0 5 28 43 37 56 72 62 42 59 168 213 214 289 249 154 107 127 136
346 477 401 279 221 167 111 44 19 2 17 24 26 5 9 3 11 5 0 0 0 0 0 0 0 0 3 18 56 74 103 69 58 67 113 170 166 262 190 169 145 143 139
301 424 403 247 195 125 111 38 27 13 48 39 53 39 19 12 13 10 9 10 2 0 0 0 0 0 15 11 22 42 59 41 25 25 43 108 136 119 106 116 155 161 215
470 576 450 199 139 224 168 91 37 63 74 59 53 53 44 0 17 25 10 12 4 0 1 0 0 0 1 1 0 2 2 0 0 1 16 34 61 85 91 94 87 209 191
447 607 507 356 86 139 137 55 47 42 49 17 0 1 8 7 9 7 26 4 40 3 0 0 0 0 2 2 0 0 2 2 0 0 0 4 17 32 38 51 75 160 144
354 784 665 529 251 42 0 0 0 0 0 0 0 0 0 17 23 26 29 14 18 19 4 0 0 0 0 0 1 0 2 1 0 0 0 0 0 1 9 31 27 68 94
503 723 561 451 316 119 85 152 54 123 75 0 0 0 0 0 0 4 27 27 23 10 18 9 0 1 4 1 1 0 0 1 1 0 0 0 0 0 6 19 25 29 22
629 665 529 452 424 407 323 213 113 95 43 0 0 0 0 0 0 10 27 9 8 21 0 0 0 0 1 1 0 0 1 1 0 0 0 0 0 0 0 4 8 3 0
787 660 551 456 396 281 301 210 59 49 30 0 0 0 0 0 0 0 0 0 8 24 0 1 0 1 1 0 0 1 1 1 1 1 0 0 0 0 1 4 3 0 0
680 648 583 403 297 206 218 189 61 0 10 0 0 0 0 0 17 0 0 0 0 0 2 1 0 1 1 1 0 0 1 1 2 1 1 0 0 0 0 0 0 0 0
759 638 541 486 379 271 185 85 18 18 11 4 0 0 0 0 0 0 6 0 0 0 0 0 0 1 1 1 1 1 1 1 0 0 1 1 0 0 0 0 0 0 0
587 555 502 400 338 264 143 69 58 0 20 2 1 0 0 0 0 0 0 0 1 0 0 0 0 0 0 1 1 0 0 1 1 0 0 0 0 0 0 0 0 0 0
278 208 294 372 281 221 145 97 22 3 0 0 0 0 3 0 0 0 0 10 7 0 0 2 3 0 0 1 1 1 1 1 0 0 0 0 0 0 0 0 0 0 0
0 0 42 76 278 206 165 126 40 45 0 0 0 0 4 0 0 0 3 15 8 4 2 0 0 0 0 0 0 0 0 0 0 0 0 0 0 0 0 0 0 0 0
13 0 3 0 0 154 92 92 22 31 21 0 0 0 0 1 0 0 15 17 17 7 0 0 0 0 0 0 0 0 0 1 1 0 0 0 0 0 0 0 0 0 0
16 0 0 0 0 0 0 29 36 35 63 0 0 0 0 1 0 0 0 0 0 0 0 1 2 0 0 0 0 0 0 0 0 0 0 0 0 0 0 0 0 0 0

GFSMA_con_mlcape_087.txt.gz
CAPE
1093 1164 1078 893 1223 1276 1397 1376 1136 997 699 444 248 268 169 207 295 533 416 314 616 584 163 413 832 952 783 731 834 470 392 292 322 330 492 251 417 448 293 149 130 216 640
1047 760 1113 1253 1163 1372 1481 1222 1345 997 717 777 647 574 394 265 626 885 616 626 518 651 293 116 367 548 569 347 308 736 708 576 450 238 466 416 220 283 191 215 278 87 286
1134 941 771 954 1191 1243 1491 1487 1308 1103 926 904 712 424 359 344 886 1074 1215 953 942 762 605 97 87 279 323 422 448 576 400 225 457 421 240 416 301 297 287 160 292 400 426
1099 1077 999 1089 1056 923 950 1206 997 686 815 1058 1060 826 417 703 928 1044 1021 1139 1057 972 966 481 131 106 173 355 377 397 458 531 356 262 398 329 227 202 423 436 355 212 364
995 1113 1116 1039 869 891 1045 907 980 961 766 657 695 951 1075 862 920 821 945 1104 1120 1049 947 870 675 480 370 270 369 398 381 317 365 488 496 388 276 175 95 152 206 148 147
754 729 882 865 643 1029 869 1088 1043 922 855 841 646 557 490 634 901 843 875 948 1068 1176 1194 1231 1178 997 610 411 323 384 363 341 215 216 287 280 384 252 180 149 141 176 189
929 958 239 565 640 692 682 523 640 418 531 694 381 474 525 801 722 599 696 742 855 1084 1254 1342 1499 1280 1226 736 485 415 360 326 225 196 158 169 148 178 146 204 183 132 192
976 749 616 521 680 477 366 191 243 228 294 439 263 275 82 146 238 343 507 601 689 768 767 998 1162 1226 1084 938 798 331 241 280 294 231 181 185 165 96 107 23 127 137 67
1136 1026 871 719 698 727 683 567 294 113 89 258 456 144 70 14 109 185 283 333 551 722 760 988 1017 959 935 837 670 510 243 105 119 122 172 333 268 171 163 100 160 153 80
1027 1041 985 794 790 814 748 822 296 71 12 11 96 168 110 129 26 11 194 191 210 400 681 735 563 468 431 420 395 255 126 99 96 122 236 482 489 334 416 470 252 149 106
1156 779 979 855 862 751 594 587 426 99 5 0 15 130 143 145 119 47 0 27 70 188 370 331 195 123 125 231 254 170 53 87 81 56 46 104 303 392 286 221 187 124 107
1102 999 852 741 647 563 421 312 235 99 2 1 23 30 47 51 105 75 14 29 33 33 133 197 62 11 23 98 130 37 65 70 63 56 52 91 132 132 144 253 225 139 139
1030 962 977 715 546 440 273 204 120 91 79 18 16 8 62 100 101 53 65 64 112 40 43 46 17 0 14 37 157 26 31 35 26 20 26 64 132 124 101 115 144 130 146
970 1136 1055 883 462 392 304 311 176 141 62 30 15 18 11 10 22 3 1 30 17 13 43 34 0 0 1 141 80 0 44 3 0 0 1 22 49 64 80 97 100 96 167
1116 1088 1201 997 482 508 459 359 317 244 210 127 96 106 99 142 56 17 0 0 27 7 6 4 0 0 1 23 77 55 71 0 0 0 0 0 12 27 34 42 69 146 110
1086 897 1088 1110 748 337 295 142 26 161 172 195 226 171 132 83 170 143 90 25 3 7 0 0 0 0 0 1 2 10 26 0 0 0 0 0 0 5 15 27 57 96 80
1163 852 1202 1111 870 448 147 9 0 0 0 43 47 72 140 205 27 103 143 55 7 0 5 0 0 0 0 1 3 3 2 11 3 0 0 0 0 0 0 12 21 58 31
1126 939 1283 1123 1010 828 588 529 521 384 348 259 146 106 34 0 0 0 141 178 95 61 31 19 0 0 0 1 0 0 0 2 2 0 0 0 0 0 0 9 19 20 0
1289 1017 1099 1010 1031 996 972 809 607 387 278 180 72 69 43 113 78 117 150 127 137 78 12 0 0 0 1 0 0 1 1 1 2 0 0 0 0 0 1 5 3 0 0
1414 1233 1014 1046 997 967 864 698 722 395 277 180 165 79 38 51 29 0 48 120 57 51 56 29 12 3 2 2 1 0 1 1 2 2 0 3 0 0 0 2 0 0 0
1540 1292 1065 1018 1012 896 646 617 632 532 311 176 84 22 43 44 43 13 67 74 49 6 3 3 1 1 1 1 1 1 1 1 2 3 2 3 1 2 1 0 0 0 0
1397 1120 1003 961 821 641 377 195 377 301 307 190 136 83 30 9 19 0 0 0 20 1 4 3 0 0 0 1 2 1 1 3 1 4 2 3 5 2 0 1 1 0 0
1580 1168 1092 1048 792 763 295 101 62 191 250 208 187 133 78 33 37 56 3 0 1 5 17 82 42 49 12 1 2 2 1 2 2 0 2 4 2 2 1 0 0 0 0
1332 1405 1247 1099 878 832 396 116 65 202 291 265 219 157 111 114 29 35 74 80 86 29 27 13 72 77 77 55 1 0 0 0 0 0 0 5 0 0 0 0 0 0 0
1114 1293 789 491 349 643 313 109 129 340 344 219 194 177 137 122 7 0 19 43 119 117 6 0 1 0 0 0 5 1 1 0 1 0 1 0 0 0 0 0 0 0 0
580 428 259 75 5 50 21 0 28 371 356 270 193 165 0 65 0 0 14 143 115 156 123 16 3 1 0 0 0 7 2 0 1 2 0 0 0 0 10 0 0 0 0

GFSMA_con_mlcape_093.txt.gz
CAPE
1179 1153 766 871 1021 741 732 470 197 112 203 334 175 223 189 315 216 270 790 477 305 386 588 668 581 1029 969 505 152 228 656 508 422 415 247 215 706 492 831 316 324 224 116
1349 1285 903 1047 1047 994 924 939 308 424 309 312 335 151 73 197 230 295 211 1071 491 320 445 699 530 669 1213 1145 584 468 638 730 462 217 263 385 178 475 255 393 590 271 237
898 1167 793 832 863 1236 999 999 920 348 395 201 183 176 27 52 68 148 176 547 830 553 523 541 514 355 595 905 856 797 636 404 752 688 600 467 238 156 455 184 210 367 257
1405 1330 1011 647 1212 1430 1324 1236 1179 830 876 439 242 105 207 135 243 220 280 625 629 892 766 861 507 399 232 221 504 662 585 371 453 438 391 320 221 148 142 226 53 157 140
1284 1288 1140 848 1453 1484 1443 1372 960 865 643 517 648 741 460 160 164 73 113 343 789 506 902 955 720 570 390 309 266 386 507 335 299 271 266 263 229 233 204 220 179 103 100
944 1183 857 1075 991 1318 1111 1287 1202 1183 1199 706 751 582 720 701 587 404 220 558 793 779 871 1210 1319 1051 802 511 363 468 599 519 337 284 215 195 200 145 195 186 193 148 49
975 1161 966 1019 1671 877 1091 1390 1440 1517 1321 1258 1029 792 818 1091 889 557 375 525 367 724 797 961 1380 1334 1362 887 769 725 798 743 692 656 359 184 163 107 113 147 119 116 55
1193 1169 1104 1345 1228 1008 675 737 1321 1227 1233 1051 925 650 515 428 495 622 592 611 831 783 970 995 1005 1530 1231 1011 1218 960 1007 938 694 499 511 288 144 94 90 96 87 64 26
1126 1215 1269 1326 1120 1102 189 1286 656 682 668 652 828 568 399 200 389 401 784 551 422 336 357 711 1020 1047 1182 1384 1451 1172 888 694 574 340 264 250 209 214 154 120 82 58 51
1198 1181 1305 1200 1312 1232 821 813 1308 1040 727 489 555 612 536 362 308 351 461 386 558 737 809 863 678 859 1441 1509 1334 841 654 334 87 49 97 179 239 169 154 146 127 106 122
1183 1258 1400 1367 1492 1301 1018 1144 1065 982 947 882 658 611 559 663 695 423 413 297 561 630 436 691 373 951 1276 960 966 760 449 111 16 19 27 38 63 83 95 321 422 339 286
1203 1361 1361 1213 1246 1397 1440 1311 895 838 1081 1081 781 681 414 260 173 372 216 141 141 428 249 350 545 485 630 605 651 229 104 32 4 2 0 11 36 62 77 231 435 209 423
856 1090 1321 1280 1218 1324 1221 1061 1284 1002 974 751 754 645 339 240 83 124 239 460 410 317 306 593 385 398 479 459 378 161 156 36 2 0 0 0 8 42 65 134 107 44 105
1104 1280 1665 1538 1385 1068 1052 1175 1127 1160 678 662 491 421 215 232 43 48 79 79 64 239 272 465 690 775 567 361 256 95 85 29 0 0 0 0 0 0 2 21 25 33 90
920 1496 1445 1021 1115 1231 1085 1075 796 835 1051 802 522 354 180 136 34 3 31 1 30 53 107 205 528 489 376 133 237 187 190 12 0 0 0 0 0 2 0 10 31 31 36
1201 1315 1085 1068 1311 1363 1245 1280 725 546 712 871 729 557 317 143 64 25 21 103 174 212 127 166 183 138 27 41 101 44 105 0 0 0 0 0 0 0 0 0 11 21 46
1722 1486 1252 1294 1435 1566 1358 1173 866 593 529 512 585 565 548 542 303 293 413 251 399 279 83 180 152 177 97 85 99 104 107 63 0 0 0 0 0 0 0 2 10 33 36
1661 1670 1505 1206 1287 1241 1265 1030 929 545 460 421 332 353 357 423 602 400 307 345 404 283 291 166 266 145 134 125 119 46 12 17 23 0 0 0 0 0 1 17 28 25 20
1667 1686 1529 1194 1121 1137 1282 1111 996 829 629 514 465 472 366 337 382 283 174 162 225 316 321 239 193 170 36 26 0 0 0 1 0 0 0 0 0 0 10 38 32 19 0
1619 1717 1606 1232 1201 1071 1057 1118 1151 1161 966 752 588 511 307 225 309 205 337 426 434 417 311 299 242 150 87 12 3 0 0 1 2 1 0 1 0 0 9 29 30 11 1
1609 1658 1674 1403 1373 1137 878 1111 944 948 925 823 747 466 408 268 198 182 223 264 220 236 130 155 258 207 131 5 0 0 0 1 1 2 1 0 0 0 1 12 20 7 0
1755 1677 1699 1622 1514 1084 851 847 940 1009 756 761 751 550 371 241 134 35 0 0 217 288 144 100 56 66 141 41 3 2 0 2 1 0 2 2 0 10 1 5 0 0 0
1920 1881 2035 1888 1652 1378 790 732 639 764 668 649 561 375 246 224 265 228 10 0 0 0 0 105 89 155 133 195 6 1 0 0 1 0 2 0 0 1 8 64 5 0 0
1795 1503 1597 1735 1984 1752 1028 905 583 860 883 680 654 380 398 283 324 260 226 141 10 12 0 0 18 207 295 382 70 2 1 2 1 5 2 1 0 4 68 113 0 0 0
1278 932 1438 1759 1896 2045 1204 694 521 835 810 821 649 547 601 538 479 189 189 219 210 185 18 0 9 0 15 99 197 7 1 2 0 0 7 6 0 0 43 56 3 0 0
790 624 953 1555 1796 2014 1625 704 573 640 450 455 731 787 541 498 366 195 240 199 272 272 188 74 27 0 0 0 18 19 3 2 1 1 0 0 0 0 0 6 4 0 0

GFSMA_con_mlcape_096.txt.gz
CAPE
411 703 831 737 938 774 249 384 603 201 90 366 333 360 183 256 326 764 334 236 163 212 342 450 404 818 715 552 105 119 338 1079 612 675 518 159 318 861 539 576 429 441 210
903 650 778 704 555 1139 854 344 881 360 569 172 169 143 148 137 257 504 783 601 419 318 360 527 477 536 848 783 415 82 155 388 584 248 228 215 216 212 384 341 363 543 181
1031 754 998 817 701 1161 946 1020 980 1066 217 295 579 280 101 87 126 250 449 999 641 586 400 382 653 542 477 744 891 632 462 520 636 608 481 231 219 226 165 263 238 414 312
924 1060 1054 1048 948 1053 866 1028 1052 635 344 613 281 291 182 77 44 84 216 393 815 1008 593 487 562 536 407 355 627 520 494 478 537 440 569 657 351 196 135 99 246 70 64
1061 857 1061 815 921 1186 1358 1101 985 1019 858 607 585 513 476 556 398 370 286 77 657 828 893 856 729 600 512 404 394 439 322 448 489 429 382 458 511 386 189 129 153 185 93
1402 1247 1047 1020 964 859 984 1300 1137 1172 625 447 637 704 534 628 340 309 604 228 451 568 976 1077 966 889 725 691 669 342 278 311 376 411 416 352 336 219 131 138 145 227 221
1243 1341 964 939 845 755 912 1056 1073 848 803 967 602 562 752 839 1027 1145 909 336 462 623 594 1030 1067 1051 1206 1077 874 695 353 266 574 623 622 617 478 281 138 99 83 117 126
1072 1220 1365 1296 1147 1489 906 1276 1201 789 729 793 595 219 117 330 850 771 444 793 608 635 414 864 1237 1057 1178 1576 1219 917 696 641 846 942 724 667 613 434 239 105 77 64 83
1247 1068 1253 966 1414 1377 1074 785 799 878 549 538 752 353 187 125 280 744 874 598 438 866 715 644 1053 1175 1302 1329 1227 1065 924 821 805 696 519 320 296 216 239 220 162 109 114
1433 1100 949 1223 1429 1568 1057 742 885 953 509 430 492 499 390 358 199 136 597 649 294 295 818 1159 1325 1364 990 968 1384 976 917 820 732 396 70 87 125 199 270 198 158 146 102
1446 1269 989 845 947 1272 877 694 835 1102 903 758 492 505 493 364 224 225 162 191 394 275 553 635 526 851 1377 1463 1467 1132 639 542 128 23 7 14 23 34 74 133 196 193 275
1224 1350 1348 971 1054 1256 1163 866 859 862 616 654 571 165 280 219 178 181 150 108 219 98 562 296 280 831 892 939 718 775 504 258 20 0 0 0 6 8 32 94 294 409 414
1434 1262 1110 1310 1161 1334 1102 1096 1148 900 754 667 778 647 642 293 266 215 105 45 27 32 247 416 470 574 694 703 647 457 245 64 24 0 0 0 0 9 20 54 121 343 144
741 1414 1101 1231 1208 1158 1167 1039 1141 1338 1060 621 604 489 259 263 215 131 39 31 31 44 57 115 220 424 440 242 269 114 184 110 23 0 0 0 0 3 1 6 61 80 47
1232 1428 1141 1480 1512 1090 1352 1312 837 901 1086 808 780 726 642 450 209 96 33 7 37 4 1 13 182 617 430 333 163 170 117 57 4 0 0 0 0 0 0 12 37 53 60
1472 1397 1637 1434 1192 1172 1025 1209 1047 943 968 915 902 709 433 306 294 104 32 8 5 6 0 74 163 176 187 98 130 72 87 2 0 0 0 0 0 0 1 14 30 39 45
1298 1285 1264 883 1054 1175 1203 992 1002 1020 913 710 690 805 609 580 293 170 103 55 27 27 104 91 133 66 91 76 61 44 8 0 0 0 0 0 0 0 0 4 24 48 70
1496 1254 1255 968 1439 1509 1037 1040 957 892 796 756 653 590 652 773 613 512 353 207 222 174 149 41 221 234 63 44 39 98 39 20 0 0 0 0 0 0 0 1 35 57 83
1603 1316 1260 1339 1045 1387 1076 930 874 950 976 780 660 593 496 351 403 246 325 292 143 197 338 218 131 137 74 48 0 1 1 1 0 0 0 0 0 0 0 0 17 50 84
1489 1282 1501 1415 1103 1041 1342 1066 914 937 924 912 808 590 445 498 368 324 139 124 119 139 228 166 273 162 15 41 0 0 0 1 0 0 0 0 0 0 0 0 2 48 55
1323 1123 1131 1375 1306 1336 1026 1277 1040 922 979 771 707 613 528 571 343 270 339 143 196 248 150 135 125 91 60 9 0 0 0 0 0 2 0 0 0 0 0 0 9 13 27
1368 1258 1235 1132 1249 1161 870 870 937 949 889 1063 870 672 527 562 474 213 110 167 178 142 107 82 0 0 58 45 0 1 1 1 0 0 0 0 0 0 0 0 2 3 0
1468 1330 1087 1124 1249 1170 1054 639 746 1012 1130 1008 889 722 510 641 471 374 97 14 0 31 78 109 75 50 23 86 54 1 0 1 1 0 1 2 2 1 2 5 0 2 0
1103 924 792 925 1280 1229 996 498 525 686 796 861 974 960 591 443 478 414 437 117 45 17 0 0 0 23 177 198 146 12 0 0 1 0 0 1 0 0 4 11 0 3 0
343 593 1007 1230 1236 919 677 590 546 826 832 784 1022 863 778 546 662 337 246 323 208 160 74 7 0 1 130 253 206 2 1 2 0 1 4 2 0 0 5 32 10 1 0
170 213 289 338 758 1019 1018 421 362 844 830 883 1061 1003 763 733 471 397 277 226 230 263 155 7 0 0 0 48 96 16 0 0 0 0 0 2 0 0 3 21 42 0 0

GFSMA_con_mlcape_102.txt.gz
CAPE
577 786 799 945 833 330 98 603 561 323 66 50 172 199 66 61 285 34 13 11 5 314 724 856 374 210 68 38 408 477 265 484 277 102 162 285 359 382 243 691 302 282 240
449 706 698 761 674 265 0 441 250 113 0 0 64 147 122 116 423 202 1 445 56 346 551 523 960 574 489 247 96 198 419 655 861 630 457 481 217 352 526 367 815 519 638
426 517 583 604 755 483 46 52 420 349 204 57 49 42 107 69 98 270 202 231 295 268 260 372 262 609 648 759 711 319 100 210 569 942 569 406 301 175 113 213 742 625 414
619 344 507 540 778 771 563 87 68 230 357 407 260 123 118 47 0 30 174 359 371 341 456 470 395 418 336 546 787 777 478 197 140 216 397 425 308 211 128 145 214 364 383
625 455 256 372 595 600 638 712 649 501 292 381 308 292 215 123 28 29 0 70 391 506 444 346 391 394 402 487 521 725 634 378 331 337 326 431 441 376 283 192 149 128 65
695 630 484 320 493 506 515 603 756 665 551 459 363 434 452 400 239 64 29 14 71 310 485 438 475 488 618 696 640 302 230 446 484 452 430 463 421 355 258 149 112 102 78
658 662 711 571 699 757 721 695 674 590 595 442 290 193 152 186 397 554 356 220 137 123 247 297 576 617 550 692 681 607 384 346 379 314 224 243 362 306 300 243 194 100 66
531 456 539 549 670 805 723 693 606 474 464 539 344 182 155 87 109 264 592 611 400 388 353 356 452 625 608 659 761 695 644 631 529 433 351 293 360 463 702 639 550 613 329
651 468 368 353 488 603 719 758 710 539 387 402 568 181 105 38 51 47 74 240 366 401 417 362 475 676 692 688 744 770 856 886 861 693 543 527 673 536 251 256 284 252 338
743 759 564 474 489 562 539 603 686 590 492 408 439 480 156 128 94 49 130 284 364 307 307 471 333 228 262 779 965 867 880 1090 962 762 640 587 541 203 58 28 48 111 173
722 692 597 511 485 654 636 554 553 657 680 553 289 232 297 216 209 258 105 92 107 152 263 269 108 8 7 115 1035 996 913 1104 922 849 544 496 112 7 0 0 22 78 162
638 605 605 531 391 457 618 714 828 798 699 539 240 129 80 93 78 65 57 94 68 51 76 154 160 136 35 217 644 982 983 766 711 499 237 74 0 0 0 0 4 48 225
744 715 641 601 546 503 525 499 551 603 465 387 310 198 271 240 244 194 98 72 72 56 38 85 147 113 111 353 546 792 773 602 333 205 65 2 1 0 0 0 0 25 139
738 861 845 811 691 609 555 513 478 476 513 390 388 417 299 353 383 324 292 148 84 83 31 4 48 116 179 237 248 392 497 333 176 52 1 0 0 0 0 0 0 0 72
882 820 1012 907 843 731 609 505 460 472 574 547 540 401 451 548 475 403 313 203 129 98 21 7 23 32 29 51 90 27 138 209 98 27 0 0 0 0 0 0 0 3 22
912 918 886 916 876 719 759 586 597 614 582 492 516 541 510 557 540 476 313 217 149 151 78 0 5 9 38 91 79 108 126 147 61 19 0 0 0 0 0 0 0 16 16
866 972 969 924 886 747 823 670 624 564 485 537 590 563 572 511 412 295 227 143 84 70 58 15 13 27 54 75 82 83 56 35 3 0 0 0 0 0 0 0 1 6 24
499 849 949 678 849 912 798 777 499 635 591 381 445 620 505 617 452 288 256 153 67 30 31 22 20 21 99 72 46 15 1 0 0 0 0 0 0 0 0 0 10 18 21
316 277 294 568 768 639 835 577 675 666 575 488 553 504 330 500 587 409 294 233 129 58 18 13 26 67 81 49 14 4 0 2 0 0 0 0 0 0 0 0 1 7 8
14 0 118 322 681 639 552 817 689 553 510 494 531 536 438 436 484 392 346 248 169 127 116 90 64 56 57 14 11 0 0 0 0 0 0 0 0 0 0 0 0 4 3
0 0 23 254 597 611 560 800 661 548 367 398 570 592 550 467 422 342 278 240 161 136 95 67 38 34 21 0 0 0 1 0 0 1 0 0 0 0 0 0 0 0 0
0 0 7 141 407 633 615 610 766 681 484 450 524 575 577 586 489 331 270 308 173 92 47 14 0 30 0 0 0 0 0 0 1 0 0 0 0 0 0 0 0 0 0
1 25 49 85 438 504 466 378 435 681 753 622 566 514 509 524 418 412 366 329 267 113 74 38 6 5 15 25 0 0 0 0 0 0 0 0 0 0 0 0 0 0 0
2 54 115 146 264 305 252 278 239 388 791 744 734 636 557 554 499 469 330 139 186 167 102 109 58 17 28 1 0 0 0 0 0 0 0 1 0 0 0 0 0 0 0
8 44 165 215 141 129 234 226 148 214 307 497 578 553 659 564 626 489 331 153 157 121 56 42 51 19 12 13 0 0 0 0 0 0 0 1 0 0 0 1 0 0 0
27 24 116 123 175 137 181 149 78 78 122 212 367 457 317 343 377 267 138 263 244 206 98 45 2 0 0 0 0 8 0 0 0 0 0 1 0 0 1 0 0 0 0

GFSMA_con_mlcape_105.txt.gz
CAPE
821 974 566 983 1089 362 821 654 638 243 123 139 133 241 210 93 46 117 12 452 109 18 509 719 885 1021 631 152 331 818 700 349 99 610 326 227 287 241 168 461 475 271 480
803 898 690 872 669 669 143 487 426 319 110 35 20 172 194 179 279 219 99 528 36 0 4 661 1042 870 755 336 220 397 631 484 612 319 155 238 314 375 560 338 778 615 412
696 618 742 766 713 636 217 34 443 296 166 66 0 34 97 100 131 319 76 8 113 61 108 472 898 581 643 654 522 297 387 668 667 693 613 416 380 411 184 575 686 505 548
643 516 636 635 707 634 299 1 6 244 221 182 88 87 55 62 60 200 173 63 297 179 195 405 481 360 383 621 776 748 401 171 227 386 559 740 485 375 312 168 110 173 486
765 465 443 456 576 603 659 335 17 79 157 213 331 302 286 168 82 7 82 191 266 386 274 192 416 526 436 456 540 619 546 492 319 200 130 178 434 354 287 178 107 105 115
753 574 379 379 446 526 612 599 442 264 299 324 317 474 337 311 154 82 36 2 69 185 354 310 275 394 603 520 471 498 296 289 294 367 257 263 313 326 305 212 128 124 129
762 612 429 316 255 358 472 510 576 568 420 321 380 305 258 274 298 322 357 203 86 31 240 291 268 322 331 602 574 561 572 466 299 257 265 269 275 284 240 169 169 127 111
764 660 474 436 367 296 387 393 405 481 571 476 396 229 244 142 91 86 129 320 404 356 179 192 259 319 292 488 631 651 618 569 585 548 438 353 243 193 207 259 381 508 516
709 624 440 392 513 453 450 518 522 532 506 444 454 312 146 111 66 55 69 108 306 462 437 355 430 378 378 442 602 731 821 738 687 732 679 626 496 383 411 420 293 200 263
731 646 473 321 402 475 504 553 530 470 454 391 233 275 69 50 41 35 70 123 214 197 190 173 253 377 489 570 658 787 831 846 758 806 794 754 530 451 328 224 32 36 46
777 705 589 361 250 256 319 445 529 565 542 441 388 266 216 179 126 136 79 87 106 112 108 164 279 221 185 147 144 219 626 889 899 876 1007 725 517 396 232 23 14 44 120
678 693 706 528 423 341 320 341 436 498 499 478 359 254 276 141 170 67 31 54 47 60 41 49 56 112 71 14 23 100 543 764 961 753 733 478 416 185 44 11 14 40 104
553 583 613 586 501 393 437 375 323 312 420 438 503 346 314 196 76 24 65 82 82 82 55 40 52 65 101 146 141 324 541 725 725 433 253 178 54 1 0 0 0 15 42
608 553 568 560 561 462 366 349 426 364 270 276 262 240 244 228 130 143 168 108 121 110 78 78 34 73 72 67 131 311 468 437 313 174 105 25 0 0 0 0 0 0 0
564 611 649 627 584 513 470 432 390 426 400 294 256 320 345 365 375 308 275 217 151 106 85 59 20 5 1 34 72 91 172 150 106 69 10 0 0 0 0 0 0 0 0
830 841 813 728 665 664 651 562 518 437 393 354 368 422 421 406 389 496 490 320 266 224 124 54 20 0 5 10 10 23 26 22 62 52 1 0 0 0 0 0 0 0 0
847 848 786 804 788 771 687 592 533 469 396 429 465 430 362 415 372 479 477 338 209 180 173 89 18 29 31 22 57 43 25 54 66 14 0 0 0 0 0 0 0 0 4
752 801 852 798 863 780 698 656 514 614 449 411 361 371 418 436 457 421 361 231 162 78 80 48 30 42 30 75 67 43 16 4 0 0 0 0 0 0 0 0 0 0 0
401 435 661 799 876 813 593 603 658 567 425 344 342 368 357 419 411 427 371 260 166 90 25 10 9 14 44 69 52 24 8 1 0 0 0 0 0 0 0 0 0 0 0
142 202 156 214 405 544 622 492 615 559 364 428 447 275 357 382 293 330 387 336 228 178 72 44 21 20 62 47 42 19 1 0 2 0 0 0 0 0 0 0 0 0 0
15 1 44 67 17 255 461 490 391 301 378 468 441 355 380 384 323 360 356 298 202 215 117 71 63 52 58 33 44 0 1 0 0 0 0 0 0 0 0 0 0 0 0
0 0 0 0 0 40 398 422 357 286 376 365 355 296 333 414 375 350 337 345 171 129 122 38 33 44 34 55 15 0 0 0 3 0 0 0 0 0 0 0 0 0 0
1 0 0 0 0 22 128 296 236 227 365 366 360 305 317 399 381 387 276 212 175 217 264 125 69 52 14 38 63 16 0 0 0 0 0 0 0 0 0 0 0 0 0
0 0 0 0 0 0 25 130 91 134 204 321 325 332 311 359 350 360 278 194 165 162 105 108 95 81 82 48 74 70 22 0 0 0 0 0 0 0 0 0 0 0 0
0 0 1 7 89 47 79 154 131 105 111 157 263 308 300 307 349 330 318 301 300 151 58 40 68 58 60 43 79 48 36 0 0 0 0 0 0 0 0 1 0 0 0
1 7 76 76 126 217 134 106 105 90 49 62 78 194 238 333 311 244 248 201 191 143 81 65 5 1 0 0 20 60 31 0 0 0 0 0 0 0 2 1 0 0 0

GFSMA_con_mlcape_108.txt.gz
CAPE
1046 1233 794 1218 784 701 814 1201 975 649 555 275 204 100 267 187 77 74 68 252 743 387 566 1262 1207 801 920 546 305 279 513 353 19 107 737 274 74 700 299 423 331 259 173
793 791 513 792 1109 522 875 879 920 398 128 124 42 143 232 217 173 317 98 238 795 246 30 662 745 848 917 747 547 400 625 854 413 102 312 364 182 233 286 242 206 549 505
698 615 652 491 665 723 278 223 575 622 328 130 28 15 93 151 149 241 194 318 967 153 0 1 327 962 842 820 565 324 267 475 457 398 470 222 97 131 235 243 590 501 387
627 774 794 593 791 637 430 132 23 414 294 146 27 0 4 80 86 115 245 162 160 135 63 73 245 501 525 802 835 672 534 412 551 371 409 646 673 483 328 266 127 124 186
573 750 621 685 754 705 506 190 3 1 153 158 111 103 233 240 173 68 99 176 68 189 260 205 382 288 423 684 520 653 811 655 404 175 77 134 276 530 581 274 183 145 75
601 587 586 578 634 675 563 500 274 0 35 81 146 263 308 335 257 111 63 35 166 235 321 323 245 313 327 433 430 459 470 384 355 242 207 186 191 141 133 336 189 155 175
873 747 635 521 483 555 581 730 692 495 257 262 380 311 290 362 311 344 252 152 83 67 121 165 218 317 265 371 452 444 530 390 358 284 309 289 224 220 189 141 138 154 171
758 749 698 572 474 456 477 544 570 536 454 369 316 233 272 227 160 169 188 247 275 302 237 228 221 227 236 293 369 398 487 492 483 508 412 368 331 285 260 187 156 162 204
746 680 696 681 489 456 371 268 453 428 467 295 287 311 191 184 87 33 51 93 140 169 246 332 342 282 296 373 422 450 606 629 684 681 609 578 569 527 455 341 263 313 316
824 782 771 708 533 450 499 320 359 435 370 367 309 313 167 81 97 36 38 60 149 142 151 203 348 438 441 444 461 527 515 585 734 898 823 675 618 666 592 434 301 267 10
857 844 818 660 504 391 479 514 378 393 361 383 329 308 294 214 113 138 105 110 89 103 173 141 181 237 309 394 492 589 598 636 409 687 913 825 708 628 562 346 259 32 1
703 758 830 736 624 469 345 389 444 439 410 432 349 251 315 332 276 195 143 136 94 41 25 37 62 86 88 128 131 99 126 169 176 670 890 858 563 609 486 339 178 72 72
603 788 806 759 633 515 412 311 241 322 381 377 383 357 313 313 234 155 102 72 38 40 66 60 82 75 58 80 129 140 178 202 439 644 668 483 327 289 160 34 0 0 1
632 720 632 635 640 543 475 423 376 313 276 285 278 269 351 280 272 216 182 126 42 102 74 68 81 91 96 83 114 78 221 399 411 308 280 187 113 41 2 0 0 0 0
646 651 621 615 593 548 469 452 444 377 323 270 238 210 208 198 197 220 225 206 176 77 51 84 69 56 62 57 53 112 137 216 184 136 120 67 23 4 0 0 0 0 0
503 635 613 577 496 495 436 413 398 373 349 296 251 219 219 252 237 243 291 300 302 316 152 83 56 36 58 67 37 51 63 42 71 68 54 33 18 0 0 0 0 0 0
641 603 628 585 565 573 525 433 433 474 427 407 349 325 304 290 360 343 325 339 301 230 241 126 35 60 61 34 24 71 77 75 116 80 59 12 0 0 0 0 0 0 0
600 772 727 761 861 758 618 516 505 591 423 382 298 273 324 315 294 289 309 305 236 172 181 90 21 32 59 42 54 62 53 26 56 24 0 0 0 0 0 0 0 0 0
395 614 707 791 791 825 606 529 557 532 373 427 428 334 296 231 257 254 272 292 225 160 123 66 35 3 9 37 55 45 40 15 4 0 0 0 0 0 0 0 0 0 0
156 320 429 628 685 562 535 544 533 448 392 489 414 313 234 237 212 231 218 242 289 173 118 92 48 27 11 17 36 38 25 15 12 0 0 0 0 0 0 0 0 0 0
79 10 146 160 154 289 389 385 333 323 377 483 436 259 300 233 197 296 232 144 240 198 155 96 58 27 45 24 20 4 17 2 3 0 1 0 1 0 0 0 0 0 0
32 11 10 25 87 124 109 104 180 259 320 415 280 324 387 269 238 221 238 187 241 230 144 90 40 42 26 20 12 0 0 0 1 0 0 0 0 0 0 0 0 0 0
0 0 0 0 0 0 0 13 8 112 176 246 269 266 225 293 222 279 204 185 181 165 215 103 113 79 67 0 0 0 0 0 0 0 0 0 0 0 0 0 0 0 0
1 2 1 1 0 0 0 0 4 74 142 199 223 238 222 286 302 280 277 247 219 215 132 122 177 218 158 89 15 0 0 1 1 0 0 0 0 0 0 0 0 0 0
0 1 6 6 0 0 7 0 2 34 83 84 105 137 203 233 219 165 266 323 312 232 126 84 141 153 110 65 34 0 0 0 0 0 0 2 0 0 0 0 0 0 0
0 0 4 0 1 35 16 9 69 117 106 102 67 67 58 82 155 86 136 277 300 304 186 155 89 42 42 53 0 40 17 0 0 0 0 0 0 0 0 1 0 1 0

GFSMA_con_mlcape_111.txt.gz
CAPE
1407 1526 1329 1500 455 1212 1353 1396 1216 895 484 208 209 411 181 350 427 479 571 423 452 754 572 633 1257 981 835 910 384 175 405 676 289 118 352 826 267 58 813 229 773 409 237
1387 1509 1391 1139 1367 462 857 1164 1157 696 471 302 302 466 495 749 698 738 829 678 444 860 669 435 919 1132 1002 937 814 466 360 562 614 365 15 694 654 254 162 452 222 165 442
1487 1268 1178 832 1185 1154 1477 1257 1506 1208 499 401 337 281 536 628 658 729 885 830 982 960 833 256 432 714 729 813 1028 803 514 266 483 859 477 205 94 53 94 150 235 433 642
1438 1337 916 702 854 1327 1197 544 704 747 507 248 233 199 327 472 599 669 749 842 937 974 729 230 238 261 273 467 820 902 785 497 227 162 318 392 382 341 324 306 256 249 82
1313 1178 985 1146 1248 1074 909 741 451 255 566 561 300 273 310 486 655 526 609 783 827 641 595 524 200 120 214 411 676 630 693 773 613 465 263 204 157 158 420 474 411 306 163
1227 1097 1194 1381 1488 1199 1364 1160 718 332 49 306 213 89 286 577 752 737 711 585 596 733 626 881 917 769 508 353 434 429 342 374 403 331 239 209 194 115 93 108 138 70 147
913 1033 913 1299 1226 1282 1360 1352 1133 863 69 372 467 321 559 931 796 690 817 591 462 509 585 792 906 639 532 515 350 393 433 419 423 367 324 253 221 173 139 100 106 113 89
959 937 906 1022 1151 1140 1319 1392 1348 1166 896 1006 452 610 226 259 614 613 641 738 660 640 580 670 769 867 843 708 764 656 477 432 351 407 430 406 337 294 259 216 196 171 175
1066 1254 1324 1249 1238 1177 1003 1202 1253 1190 1008 840 882 465 203 193 333 461 701 695 655 662 659 693 971 1082 1280 1192 867 810 575 510 420 387 447 495 484 435 409 389 361 304 236
934 1167 1256 1265 1245 1095 1080 1109 1103 947 908 664 517 593 559 476 208 260 430 543 746 695 841 791 693 887 1165 1263 1164 1037 834 609 515 571 545 622 673 648 539 547 548 419 311
1110 1206 1234 1212 1174 1259 1130 1070 1044 911 834 764 493 528 562 463 549 390 438 323 363 558 761 933 657 757 886 905 771 954 780 592 512 570 671 581 830 804 683 608 520 386 227
1139 1369 1445 1426 1250 1263 1166 1028 967 896 614 751 562 457 446 452 553 617 578 520 381 400 362 258 161 232 476 616 621 344 320 285 238 212 180 232 748 838 757 678 544 356 253
1042 1149 1432 1490 1356 1207 905 783 519 675 1043 796 663 612 754 683 684 523 561 409 435 217 190 242 291 397 422 441 395 408 237 110 71 34 39 255 621 625 536 456 309 136 43
1071 1199 1260 1319 1313 1345 1146 937 818 566 530 559 482 627 546 726 772 495 510 480 309 175 446 437 301 199 313 388 407 328 373 224 104 141 282 371 412 236 91 64 9 0 0
1184 1266 1281 1174 1292 1399 1246 1127 738 555 583 562 567 506 769 529 568 740 597 608 315 222 285 295 324 210 114 82 278 431 773 698 146 163 159 122 74 45 16 1 0 0 0
1240 1148 1261 1269 1325 1290 1265 1029 623 721 589 674 568 479 503 492 413 623 562 598 552 407 287 235 443 434 348 302 261 243 472 107 57 58 38 13 0 0 1 0 0 0 0
1291 1187 1253 1214 1232 1198 1220 1082 801 528 525 947 814 765 665 670 428 426 671 601 516 526 303 377 501 342 480 403 247 246 182 464 457 40 16 1 0 0 0 0 0 0 0
1326 1136 1154 1227 1173 1130 1055 1012 801 824 803 904 980 937 794 891 856 689 697 439 404 368 329 364 379 355 365 436 124 105 244 111 153 51 12 0 0 0 0 0 0 0 0
734 862 937 1144 1131 1246 1212 1021 948 840 666 741 853 949 849 939 823 724 641 496 397 446 407 422 483 283 387 320 190 62 51 26 27 7 12 2 0 0 0 0 0 0 0
186 502 679 794 1034 1183 1267 959 694 735 584 598 721 843 828 840 834 716 608 578 587 481 415 377 284 209 238 378 255 150 78 96 72 27 9 2 0 0 0 0 0 0 0
5 35 135 379 841 837 854 881 852 636 723 664 544 738 980 852 596 678 455 563 483 438 423 297 223 239 210 138 105 166 163 194 60 96 93 73 25 3 3 0 0 0 0
13 19 0 73 240 393 448 406 777 806 838 576 486 603 896 412 367 238 180 358 570 473 327 342 245 229 244 272 422 197 144 125 90 126 73 31 33 15 9 9 2 0 0
14 11 37 33 35 108 100 68 78 306 373 304 334 337 398 627 437 559 182 164 202 258 352 553 483 520 529 626 453 463 206 149 185 100 49 2 7 5 2 11 0 0 0
3 0 0 0 0 0 0 6 6 41 141 91 106 189 191 381 365 398 505 401 414 447 330 332 538 623 625 523 429 422 459 219 151 91 2 11 34 3 10 11 0 0 0
1 0 0 6 1 2 0 0 0 1 4 13 37 77 159 168 257 182 205 334 407 521 395 299 322 386 344 261 327 521 418 179 49 38 8 3 53 0 7 5 5 0 0
33 24 24 8 15 27 2 3 0 5 2 40 56 67 49 87 74 28 58 127 189 246 419 490 250 96 65 111 23 190 401 339 192 127 62 4 0 8 4 4 5 4 1

GFSMA_con_mlcape_114.txt.gz
CAPE
1439 1522 1443 1135 170 1293 980 588 324 854 322 376 359 533 653 393 554 788 741 809 636 472 841 847 868 1390 1254 1013 834 344 109 637 805 324 145 483 665 323 79 811 378 788 642
1433 1492 1087 1140 687 240 1101 1052 1052 933 342 86 187 295 722 522 638 937 917 1262 742 628 771 944 815 1092 1010 640 783 759 349 112 530 634 415 93 174 648 184 203 814 352 270
1378 1152 1269 612 1100 267 243 1098 1249 521 133 37 41 125 617 625 621 875 1076 1216 1094 553 805 1013 781 1080 955 924 780 911 688 467 380 636 791 566 110 305 415 123 105 176 244
1164 1126 889 505 421 1090 211 646 697 408 83 34 32 181 320 389 573 872 982 1004 987 1096 1105 701 431 265 448 499 820 972 895 753 582 276 151 498 320 276 242 194 188 177 226
1148 1004 519 453 597 419 458 103 138 173 65 82 64 179 206 181 339 522 580 890 1045 947 768 1002 596 245 141 277 733 835 765 603 759 594 498 424 274 225 201 187 320 457 179
1030 972 689 697 788 304 262 171 90 71 65 97 176 117 104 117 155 458 732 879 694 763 832 710 1023 1070 656 366 385 551 667 552 563 521 575 388 393 365 240 168 107 87 127
833 1053 603 939 1035 687 514 590 491 299 103 29 102 105 108 192 302 438 655 620 507 637 739 751 838 675 578 696 625 549 558 550 401 379 369 378 347 327 304 275 228 135 104
983 734 624 644 1241 1192 1069 990 918 286 111 0 72 3 2 5 32 104 267 244 217 368 486 462 651 884 974 739 679 829 785 679 443 392 340 394 382 371 360 358 275 233 203
1100 915 700 706 963 1319 1017 1357 1221 911 280 170 258 0 20 21 48 214 372 625 449 534 767 780 898 999 1310 1398 1267 1172 975 807 693 513 451 405 414 410 435 429 404 345 295
854 944 1040 1210 1423 1241 1128 1022 1296 1199 942 775 787 965 743 416 29 70 483 747 1029 1177 1025 973 779 968 1191 1340 1299 1236 1176 1066 1003 951 721 519 475 548 580 531 517 497 460
817 794 1051 1309 1562 1537 1384 1128 1183 1062 992 933 718 802 894 609 685 501 334 413 652 516 687 922 906 725 766 1073 1062 1048 1062 864 599 702 596 597 671 670 769 779 713 599 588
847 913 889 1291 1563 1536 1623 1568 1613 1429 1347 967 974 1071 432 495 540 533 557 652 502 346 413 583 459 335 287 296 470 451 458 574 456 437 460 507 510 370 470 787 787 662 655
1015 1267 1393 1461 1527 1678 1680 1716 1710 1611 1365 903 806 815 600 620 589 690 735 454 313 276 384 461 413 416 604 710 513 472 539 445 220 109 68 39 32 55 408 920 819 710 602
1216 1537 1637 1493 1598 1624 1642 1494 1780 1059 1041 1243 988 980 600 694 762 693 592 319 245 293 184 241 634 667 585 452 517 315 419 394 328 225 93 70 154 388 587 624 400 154 34
1293 1450 1549 1561 1515 1573 1564 1663 1635 1294 1046 1191 938 1166 986 714 744 761 681 691 491 318 84 209 496 623 582 610 587 457 509 748 731 283 91 112 180 251 98 18 6 3 0
1524 1599 1720 1731 1697 1647 1583 1639 1582 1299 1208 919 968 853 1003 700 670 840 633 729 582 467 294 431 434 487 627 637 669 676 623 523 300 111 76 51 25 1 0 0 0 0 0
1272 1533 1690 1947 1841 1754 1708 1714 1610 1232 1061 998 919 1132 834 962 834 746 685 690 633 694 551 484 441 363 706 667 697 807 776 701 690 149 25 7 0 0 0 0 0 0 0
1361 1428 1545 1461 1779 1667 1746 1730 1549 1198 1092 934 889 1144 1057 1105 1410 1057 834 646 562 663 625 516 306 475 509 627 844 886 813 596 677 195 44 14 9 0 0 0 0 0 0
1534 1614 1663 1569 1625 1511 1601 1494 1550 1327 1222 1236 1011 1229 1424 1330 1297 1266 1068 808 716 681 647 467 405 466 403 546 764 778 596 222 96 59 22 7 2 0 0 0 0 0 0
1097 1226 1345 1107 1192 1418 1394 1322 1310 1372 1308 1318 1280 1163 1031 1132 1048 1238 1229 990 650 600 522 676 471 465 436 457 586 485 577 396 250 97 49 24 24 1 0 0 0 0 0
175 136 263 646 949 1108 1064 1193 1301 1246 1370 1314 1125 984 1007 1065 775 1020 934 694 523 569 493 491 473 516 308 443 488 450 322 345 464 433 238 194 108 45 2 0 0 0 0
109 92 49 27 46 273 531 611 785 1284 1175 973 1112 1114 1161 789 405 650 586 323 513 488 522 522 389 385 464 553 508 453 439 336 168 278 223 162 116 127 16 20 6 0 0
46 90 37 76 113 327 308 252 323 896 987 1036 1365 1235 987 693 556 767 219 171 158 374 419 630 576 551 527 505 453 552 425 321 171 307 313 166 113 58 51 22 0 0 0
98 49 13 115 108 189 41 48 69 299 911 964 909 1004 711 443 410 340 269 188 246 404 387 408 532 694 697 682 719 524 529 477 519 248 269 139 49 56 118 100 0 0 0
92 27 12 22 60 108 22 0 0 0 146 304 227 253 168 71 29 41 54 113 206 426 499 339 291 330 279 278 388 532 377 450 414 392 191 116 62 61 68 52 73 0 0
242 241 211 74 55 214 51 0 0 3 134 168 200 28 14 4 9 5 40 81 129 141 460 584 640 352 234 368 135 297 410 383 341 269 295 103 51 58 59 51 56 3 0

GFSMA_con_mlcape_117.txt.gz
CAPE
1095 1284 1103 960 323 1432 974 628 312 282 333 205 199 264 243 197 212 180 1298 777 623 476 621 959 859 1005 1176 1043 709 483 327 261 1089 755 300 215 414 522 333 186 756 515 795
1279 1190 1229 1016 515 1199 413 693 734 603 650 93 229 256 312 312 194 589 1010 956 932 591 450 923 933 1049 1503 1229 936 909 655 353 106 659 619 375 167 229 814 245 303 888 364
1299 1188 1169 1119 920 429 783 532 1101 1244 793 123 59 99 360 430 336 711 842 1269 1432 632 436 611 742 674 1133 1195 928 752 857 564 345 167 379 653 577 198 203 575 284 102 281
1225 1220 893 929 949 836 188 903 949 512 351 63 17 14 203 386 527 668 885 835 878 1301 708 651 448 345 662 1084 1060 900 955 984 792 642 377 215 431 480 224 219 222 161 104
1132 928 652 773 890 811 363 126 273 347 254 74 42 30 176 234 226 311 537 740 824 581 994 1421 505 404 250 294 645 680 865 876 811 749 739 602 464 470 336 288 190 223 353
1407 834 506 859 600 239 305 198 116 161 204 127 69 80 164 182 99 58 258 397 584 866 954 1085 1245 1259 815 497 322 358 593 742 671 570 510 549 582 532 444 377 300 251 184
1268 1249 517 915 918 547 243 577 317 214 122 110 151 151 253 192 167 119 121 252 505 875 827 692 956 612 699 844 681 525 554 637 537 388 375 426 475 458 391 371 347 294 260
1254 1345 1182 847 1222 962 765 1022 627 197 163 125 50 44 67 53 68 120 105 99 262 414 357 624 925 1012 832 694 1104 867 839 851 817 622 445 370 352 350 394 403 376 330 311
1379 1361 1429 1080 1131 1346 788 1247 559 361 383 183 59 13 1 0 29 156 196 155 300 199 376 405 834 1074 1735 1401 1304 1366 1155 908 918 874 703 540 439 355 321 321 367 381 376
1524 1674 1489 1373 1216 1309 1388 1259 1402 864 1064 685 456 187 145 637 454 299 276 718 192 1073 1281 1203 936 917 1487 1532 1565 1430 1257 1125 1067 1088 1114 1005 714 584 415 354 432 464 447
1617 1327 1604 1537 1564 1293 1382 1547 1432 1496 1428 1009 788 850 837 812 984 373 244 389 308 818 994 1247 1044 820 986 1244 1140 1155 1161 1095 995 921 865 836 876 722 678 595 560 682 705
1536 1430 1323 1642 1762 1727 1756 1723 1776 1540 1516 1488 1351 1145 1109 1206 908 839 695 631 622 550 511 404 717 666 606 556 583 487 347 333 439 589 557 372 506 626 739 825 766 554 782
1036 1368 1372 1504 1666 1965 1970 1754 1741 1554 1634 1545 1371 1286 1335 1133 803 793 620 722 609 406 409 393 363 191 421 536 693 673 777 552 409 305 197 80 71 95 119 186 228 433 900
1185 1220 1562 1311 1615 1618 1907 1975 1625 1740 1673 1526 1559 1466 879 1118 830 848 816 620 357 237 231 373 386 484 653 624 657 401 569 521 400 337 256 134 78 44 66 148 265 881 830
1671 1497 2055 1768 1833 1753 1799 2045 1695 1767 1678 1419 1406 1313 1243 680 790 905 798 630 449 396 255 183 305 588 746 722 761 952 857 808 565 545 547 183 59 99 173 401 546 337 110
1432 1389 1407 1977 1870 1832 1845 1782 1721 1759 1579 1343 1063 1154 1187 1045 964 920 980 885 868 791 440 393 386 581 739 646 753 697 761 718 672 514 169 48 51 88 132 67 10 0 0
1574 982 644 1075 1641 1772 1907 1588 1667 1546 1535 1357 1167 1001 871 1030 814 789 870 983 979 932 688 507 496 787 587 1023 776 755 930 785 840 554 261 61 21 3 0 0 0 0 0
1691 1158 953 144 253 1031 1690 1602 1586 1360 1330 1168 1149 983 1064 1001 1049 985 845 934 993 917 716 740 580 622 652 747 663 1056 883 783 838 817 349 32 7 0 0 0 0 0 0
1485 1214 1181 464 216 1391 1538 1602 1302 1332 1302 1343 1063 1008 1046 1064 1002 960 1031 918 1015 987 876 818 615 485 282 603 791 1019 914 762 786 418 85 38 9 8 1 0 0 0 0
863 1081 1347 1061 667 597 1318 1299 1403 1272 1262 1227 1256 1224 1364 1223 1264 1104 1057 1130 937 855 890 731 510 158 215 516 359 455 660 1009 601 458 145 63 51 2 0 0 0 0 0
831 776 866 937 978 864 1096 1516 1619 1465 1246 1281 1249 1239 1375 1241 1228 1179 1172 1165 858 843 670 572 305 246 356 433 291 371 382 294 570 740 558 294 95 56 29 0 0 0 0
563 481 431 409 415 652 813 638 770 1287 1273 1184 1201 1341 1246 1020 896 825 674 618 805 635 425 501 414 250 295 427 361 413 325 316 291 282 451 307 281 258 164 115 27 0 0
575 417 378 355 268 333 235 264 331 525 744 1218 1304 1267 1140 984 897 1172 487 339 271 254 366 697 539 443 367 391 452 521 454 456 368 188 479 341 227 179 165 154 14 0 0
614 443 391 387 380 345 220 238 133 483 718 932 1079 1212 985 891 1031 929 902 889 604 351 348 318 419 420 516 633 558 703 626 589 583 499 453 197 35 16 151 141 2 0 0
653 671 511 361 364 376 67 0 2 87 308 596 825 728 839 667 292 269 666 663 461 234 163 110 87 138 215 176 277 598 529 492 367 256 327 335 132 76 10 134 55 0 0
596 488 374 238 112 185 49 7 0 61 121 118 87 119 121 169 54 27 130 95 107 55 30 66 35 74 28 68 119 255 254 272 374 311 327 289 318 198 106 55 68 8 1

GFSMA_con_mlcape_123.txt.gz
CAPE
156 662 1044 1118 1084 677 321 495 721 770 336 130 167 118 138 200 138 252 64 194 214 478 784 611 257 146 109 11 244 446 637 364 657 410 414 207 23 775 462 309 312 236 586
1017 811 1022 844 1173 802 661 686 666 691 330 192 24 96 10 225 726 656 295 638 457 414 592 662 609 367 494 586 377 287 321 329 170 750 637 397 10 48 395 484 394 169 643
1729 1562 1090 610 894 954 803 815 730 541 551 556 211 0 7 111 556 855 646 409 814 819 810 611 715 718 521 796 841 647 425 395 289 80 268 498 219 50 22 85 491 612 42
1140 1404 898 718 785 1053 714 766 623 231 553 444 246 16 4 31 60 424 1019 675 861 1154 1168 612 521 892 707 726 1169 925 661 515 532 372 164 54 226 203 195 188 25 212 380
1045 1119 1247 824 957 1047 811 547 199 184 365 280 292 241 30 58 0 53 397 758 796 943 984 820 578 652 455 349 616 973 848 646 561 578 541 427 360 337 222 186 201 150 158
1199 1023 1190 870 888 1053 799 420 197 120 158 172 166 95 35 0 34 139 309 437 531 1010 1058 837 908 829 577 619 475 619 767 567 612 681 723 667 635 616 548 417 364 314 233
1164 1069 942 759 714 718 1003 557 341 242 463 539 264 100 119 13 0 0 97 141 281 554 848 844 798 789 607 644 606 507 636 572 628 568 669 727 635 592 620 538 463 435 407
1351 911 842 915 1228 1030 888 805 453 240 644 323 359 180 115 68 74 47 77 70 46 67 519 907 1065 901 735 669 760 729 804 840 662 576 508 491 518 544 494 499 461 417 382
1474 1166 991 602 917 951 919 937 678 406 104 80 96 15 31 34 111 130 168 199 127 157 298 753 1207 1160 922 813 1128 821 930 908 944 837 664 687 715 645 500 437 410 398 377
1332 1229 951 551 562 1074 677 666 604 475 522 119 55 184 8 106 36 83 303 184 176 108 63 10 468 1328 1247 1220 991 977 1086 1087 1031 1165 1161 871 869 853 801 716 643 560 465
1577 1318 1218 900 457 695 1155 865 634 599 403 374 374 227 157 22 36 22 65 523 369 233 139 7 0 563 646 823 1202 1163 1110 1019 1363 1464 1287 1232 1082 885 862 988 938 841 810
1603 1605 1435 1286 804 675 936 1160 871 667 472 334 207 278 468 146 117 256 52 273 444 463 417 324 178 565 496 169 226 551 510 24 147 1107 1285 1238 1103 960 691 660 615 553 662
1190 1309 1436 1364 1352 1211 963 1178 1068 915 839 425 345 249 215 491 425 442 335 142 171 230 538 616 678 632 491 240 13 5 380 426 614 905 870 813 734 633 498 390 351 355 408
1430 1451 1093 1254 1316 1200 1302 1037 1201 1304 1349 1117 817 721 619 551 569 571 459 302 135 242 327 279 161 441 365 268 196 71 50 605 413 349 324 352 385 379 333 255 141 63 76
1258 1253 1370 1160 1095 1057 974 1169 967 902 1316 1281 1231 1108 988 918 987 852 760 505 317 165 262 318 673 788 484 298 239 182 356 413 416 484 423 413 374 350 393 342 116 26 47
1231 1153 1085 1064 851 828 987 1049 1167 1107 923 1195 1395 1286 1143 990 872 830 654 523 445 509 426 559 437 570 780 547 283 590 563 767 538 426 443 401 412 526 290 57 38 82 174
1362 1210 1089 1013 787 818 831 834 886 990 864 904 1262 1245 1127 1060 977 884 662 625 558 590 490 517 420 435 561 586 589 615 551 536 513 509 430 421 522 465 335 105 136 76 17
1374 1287 1062 961 610 371 4 7 8 76 519 593 778 934 1031 1220 1030 1008 772 629 602 561 521 427 425 513 541 609 525 495 478 553 341 555 478 406 445 401 158 13 0 3 0
1253 1399 1103 805 293 1 0 3 19 0 0 453 630 859 841 915 1113 1005 877 667 607 555 538 618 689 731 618 451 374 421 417 399 416 489 414 393 291 177 42 0 0 0 0
931 1014 1006 948 647 212 2 1 0 0 0 0 542 844 906 833 912 975 995 843 688 651 689 750 749 607 523 516 515 310 472 473 361 485 357 299 172 47 1 0 0 0 0
854 861 918 921 569 212 1 0 0 0 1 18 162 338 369 723 1001 927 993 1013 892 797 850 872 760 709 644 545 402 345 287 242 148 343 329 265 165 52 41 0 0 0 0
841 762 832 859 528 163 145 17 26 0 15 17 6 0 30 0 167 554 745 1013 966 878 870 758 716 588 503 311 361 199 157 61 60 100 91 178 185 145 71 47 0 0 0
811 772 734 680 759 702 383 181 53 21 18 42 12 0 0 0 0 0 324 556 705 878 900 749 620 480 436 266 168 130 97 78 39 97 146 124 128 160 148 129 58 2 0
484 530 557 585 556 572 455 278 99 22 0 2 11 0 0 0 0 1 85 345 387 550 609 571 500 277 413 224 128 136 110 72 55 117 136 97 131 100 64 149 106 64 0
243 286 385 314 319 323 249 352 237 140 78 90 41 73 139 15 16 68 261 314 349 267 354 247 275 268 257 137 109 58 31 21 13 2 108 40 81 99 62 127 104 65 46
178 186 282 221 206 312 127 177 256 321 291 243 160 189 154 209 209 146 195 214 211 236 244 170 172 133 101 48 30 61 41 25 42 25 43 61 83 81 109 46 62 16 0

GFSMA_con_mlcape_129.txt.gz
CAPE
694 910 964 1288 1316 1074 921 879 968 639 504 243 155 323 163 111 101 64 314 315 0 131 879 955 512 108 53 151 779 1027 981 804 708 409 353 746 548 534 827 1090 580 413 563
845 1085 1101 994 1295 995 760 567 561 334 342 286 190 205 116 72 236 67 30 89 165 406 828 1529 1280 561 328 121 144 775 1172 1139 867 716 315 184 180 199 176 806 754 557 367
963 1091 1184 959 1063 1067 753 404 281 374 409 550 426 207 95 48 135 242 34 0 245 482 454 839 968 919 546 230 107 65 573 830 744 638 309 657 444 327 191 28 855 828 480
1227 920 722 601 868 1033 817 601 265 281 452 518 426 292 94 36 10 380 385 153 56 410 576 629 1081 860 936 599 400 334 177 216 277 305 426 327 379 550 470 175 18 150 191
1213 1241 942 591 820 962 882 719 598 461 345 445 357 296 247 123 0 32 516 421 224 359 512 617 889 848 822 1091 946 941 782 542 463 300 212 283 251 153 257 292 221 159 142
1139 1057 1077 1052 1049 968 800 760 709 608 553 349 362 284 270 224 128 54 22 281 558 517 548 674 920 1202 969 904 1132 1113 740 505 398 515 427 285 424 395 283 207 277 238 220
1323 1231 983 986 917 945 693 491 744 788 510 438 170 134 210 102 95 104 15 9 38 256 528 674 760 1070 1096 1162 1002 1096 694 536 524 567 468 463 365 380 481 451 405 437 387
1424 1303 1141 1079 1062 867 737 411 498 576 418 309 158 63 58 63 60 72 39 16 5 0 18 255 518 751 788 778 808 1004 1020 687 469 455 531 537 531 494 407 426 501 494 464
1407 1208 1187 1046 997 807 727 713 530 548 554 320 193 91 99 76 72 45 36 9 9 0 0 0 73 313 460 545 610 780 1020 1057 990 769 721 581 576 575 536 438 435 494 501
1429 1198 1176 1097 993 906 784 686 699 548 472 444 215 209 108 61 77 28 6 22 0 0 11 0 0 54 226 432 530 669 667 847 1020 1057 1049 896 738 803 730 664 534 557 636
1222 1299 1175 1116 1071 908 807 627 555 436 353 374 240 215 190 179 110 110 60 16 8 80 32 64 24 31 265 525 669 718 994 928 883 968 1125 1133 795 900 920 795 837 800 743
1056 1208 1213 1136 982 910 787 754 620 550 591 480 332 215 187 177 215 166 93 56 21 0 0 51 64 31 31 0 61 261 591 987 999 1039 1035 1048 1176 658 483 659 824 731 751
968 996 1027 1089 1110 975 782 644 614 501 428 403 344 333 211 125 99 83 71 96 61 56 60 71 127 149 115 97 165 396 477 578 569 440 615 443 194 314 554 740 642 755 865
657 919 960 963 980 1012 912 672 548 484 378 295 309 354 323 286 228 155 164 168 155 144 131 171 117 88 98 181 247 182 295 224 255 235 35 50 329 336 352 381 352 393 471
914 815 892 962 958 875 812 663 446 395 331 360 313 253 250 296 222 222 228 229 196 146 94 157 154 142 112 89 169 358 282 205 143 9 19 62 217 217 246 207 250 342 444
863 1001 917 916 833 845 782 678 561 313 328 315 369 332 247 313 291 270 258 232 203 190 107 152 141 112 152 399 451 346 283 203 165 101 76 182 185 208 181 225 219 373 262
302 411 728 741 766 684 632 605 620 474 103 415 297 329 377 372 352 346 347 348 254 193 201 289 196 216 179 192 205 324 338 329 237 151 204 211 297 209 167 151 226 248 159
159 345 465 683 767 697 459 400 593 314 18 0 0 8 114 474 368 420 382 288 202 248 302 336 281 226 218 215 279 318 286 342 343 363 380 367 205 135 142 129 156 172 27
31 192 496 571 623 459 265 263 237 38 18 0 0 0 0 3 434 366 359 321 247 304 302 415 372 287 280 225 205 216 265 376 251 245 287 226 151 131 106 118 107 19 0
0 85 188 351 400 430 285 271 232 83 0 0 0 0 0 0 53 377 367 356 388 341 335 362 406 387 332 283 288 311 293 257 235 234 249 277 178 118 126 121 96 36 0
0 1 51 229 352 334 311 286 265 132 0 0 2 0 0 13 9 114 319 417 430 363 384 392 450 404 354 326 352 276 294 219 209 199 169 179 165 108 98 62 69 65 0
1 1 0 99 406 349 404 371 370 228 19 0 0 0 0 0 0 0 0 155 256 342 472 462 485 461 395 369 361 313 239 226 209 86 166 182 143 96 117 66 69 99 43
1 3 1 254 610 663 567 489 440 285 60 0 0 0 0 0 0 0 0 84 181 391 495 536 468 484 481 438 318 251 252 223 180 59 56 85 90 84 97 92 102 68 21
4 1 12 336 674 784 712 486 423 286 111 24 0 0 0 0 0 26 0 0 2 30 265 418 569 613 545 484 426 308 187 95 45 32 40 87 39 33 42 38 65 59 43
1 2 37 130 403 681 642 475 303 251 160 65 35 0 0 0 0 3 31 0 0 0 77 113 177 388 456 408 315 184 109 50 43 26 16 37 13 1 0 2 11 4 20
3 1 105 98 161 378 333 325 155 180 119 87 74 59 10 0 0 13 5 0 2 5 0 17 0 7 76 151 135 254 116 69 37 15 6 5 1 1 0 0 3 6 5

GFSMA_con_mlcape_132.txt.gz
CAPE
1065 995 1075 1101 1237 1204 1182 1262 1259 1154 1025 505 284 216 404 221 103 119 122 472 928 374 316 692 600 375 275 246 524 932 1006 723 433 382 435 553 593 660 914 908 880 594 486
1059 920 799 988 1049 1230 1202 996 725 892 636 505 157 199 324 204 121 237 130 332 914 310 92 670 1140 958 519 303 286 340 1012 984 1151 858 758 491 211 388 254 149 416 968 576
1345 1096 762 1024 1067 1069 1105 945 622 456 474 412 266 391 383 217 119 260 166 89 155 465 137 299 797 1514 1225 748 601 377 372 771 942 868 730 628 316 300 292 312 110 493 890
1014 920 794 999 1157 1109 1067 913 651 273 218 342 358 341 368 204 158 83 246 308 143 146 344 467 461 625 942 1001 890 747 534 266 371 461 497 516 426 380 419 453 417 140 28
996 983 981 839 897 839 731 980 815 485 300 267 392 424 391 250 140 60 92 322 437 359 155 317 565 545 738 944 1180 1083 1013 657 351 202 150 181 230 296 299 225 249 266 159
1181 1183 1104 941 920 876 821 902 841 679 650 546 413 344 331 298 261 218 107 50 270 516 369 393 549 757 887 912 977 758 614 498 432 451 361 340 369 305 286 302 304 325 219
1065 1144 1097 1061 935 842 950 892 963 708 564 605 427 371 196 167 191 179 153 125 58 212 334 382 568 731 886 1021 1062 1026 808 589 442 363 318 425 376 340 328 398 349 341 367
1154 1216 1252 1210 1184 1072 803 753 798 622 375 557 652 322 182 26 48 103 66 53 105 37 55 136 324 470 669 757 902 907 1012 1022 737 677 613 496 425 416 447 485 428 371 376
1198 1202 1265 1207 1199 1092 978 858 618 557 415 271 421 415 129 40 32 34 57 63 72 34 28 37 55 67 137 344 480 587 698 842 1094 1152 1031 835 662 582 552 553 599 543 424
1153 1223 1078 1124 1071 994 921 855 762 563 501 391 233 268 192 97 122 90 31 62 72 45 24 3 0 30 98 172 238 313 406 490 863 1138 1354 1381 1015 882 859 772 675 751 671
1016 1108 1134 962 1084 939 887 873 813 706 585 537 321 260 236 183 54 120 174 173 41 54 100 96 9 9 82 159 186 300 379 565 523 779 1056 1218 1232 1205 1163 923 760 865 902
1063 1091 1115 1056 1034 1036 929 839 806 719 693 588 440 240 232 245 222 183 151 196 104 103 29 8 9 1 41 80 204 284 260 200 233 492 910 943 913 1088 1210 675 449 585 621
774 746 883 1053 1047 978 913 838 800 730 604 567 495 302 227 261 205 178 143 176 119 65 33 39 47 74 63 99 82 91 141 315 430 455 554 549 707 549 368 312 559 686 624
828 960 888 812 851 972 917 792 690 710 682 594 576 442 312 273 240 170 214 147 98 91 100 145 112 141 166 160 126 139 359 205 378 351 256 253 163 72 241 311 359 287 279
228 436 729 835 872 868 972 939 754 650 561 472 494 457 307 357 240 186 184 154 166 154 152 156 137 136 157 151 142 134 225 387 211 186 156 114 38 9 180 207 206 208 236
0 72 239 451 587 816 858 918 884 764 570 481 416 377 328 307 347 217 240 246 233 226 151 194 140 130 128 140 220 393 455 322 268 183 149 75 17 79 104 178 168 198 223
0 0 40 193 364 449 676 703 743 791 623 536 422 322 112 262 237 214 167 198 226 212 170 190 173 171 114 142 183 254 256 314 396 205 166 99 55 101 179 149 120 154 195
0 0 0 35 229 422 439 575 622 583 695 600 438 132 5 6 0 3 291 238 202 203 197 183 174 127 151 190 195 195 223 300 349 295 225 208 141 163 176 90 125 117 107
0 0 1 0 53 266 499 607 623 549 289 294 191 0 0 0 0 0 52 262 294 222 207 214 155 159 209 232 221 205 225 222 292 344 246 170 198 237 135 76 82 82 39
0 0 0 3 2 75 348 472 516 485 329 283 284 165 17 0 0 0 18 123 279 217 213 229 170 169 203 222 216 278 224 236 249 325 339 242 196 195 114 83 48 48 35
0 3 2 2 3 13 84 304 310 355 303 217 204 134 0 0 0 0 0 85 169 113 231 162 194 180 227 218 256 266 240 287 245 282 285 285 243 247 195 92 64 35 28
0 1 4 3 3 2 3 152 288 238 186 188 214 105 0 0 0 0 0 0 182 262 183 159 170 230 214 263 307 283 252 258 260 208 222 224 187 192 198 188 66 35 11
0 4 5 4 2 4 3 20 205 240 238 174 138 10 0 0 0 0 4 59 73 87 166 238 187 267 326 354 351 210 278 292 301 194 137 149 112 157 191 110 56 24 17
0 2 2 4 4 2 45 127 152 169 223 213 156 62 0 0 0 0 0 0 0 1 7 114 279 375 417 468 362 366 280 261 180 125 105 173 54 83 78 47 37 24 3
0 5 3 2 8 49 63 177 143 166 242 260 166 92 58 22 0 0 0 6 23 18 22 0 16 231 300 316 311 239 237 289 220 118 56 118 67 67 21 12 6 0 6
0 18 7 4 3 2 1 87 35 218 284 236 103 66 63 31 0 0 12 0 0 32 2 0 0 0 108 220 97 234 290 212 228 99 50 64 47 19 6 0 0 0 0

GFSMA_con_mlcape_135.txt.gz
CAPE
1351 1583 1462 1472 1365 1274 1365 1318 1509 1478 1594 890 416 385 383 687 549 492 616 396 523 1023 1126 940 967 837 648 690 589 446 893 1177 712 515 393 418 522 545 912 1108 970 816 666
1749 1644 1433 995 1110 1427 1584 1645 1126 1245 1254 1023 497 392 442 795 570 517 692 767 603 988 656 482 496 1038 926 570 410 388 722 1138 1165 956 869 718 611 294 379 410 229 383 868
1693 1624 1344 956 1018 1596 1491 1446 1763 1343 973 999 821 641 551 930 573 482 765 779 740 824 606 202 298 739 1194 1160 852 608 504 306 835 955 1120 789 636 547 218 221 263 272 37
1888 1755 1445 1290 1343 1298 1688 1362 1535 1345 995 487 507 681 510 909 699 457 498 674 682 547 728 635 365 352 556 924 1271 1088 923 738 418 383 473 566 630 525 358 334 446 447 361
1621 1610 1107 1076 1435 1338 1552 1277 1186 1502 1072 817 506 580 846 736 661 402 384 442 810 923 900 715 565 421 585 732 756 929 947 846 599 384 295 257 241 250 317 295 335 305 287
1491 1454 1398 1453 1620 1295 1350 1090 959 1415 1451 1061 886 636 739 647 646 527 493 463 380 707 1104 1213 997 991 760 837 904 853 782 799 775 553 519 504 477 376 301 321 311 307 352
1497 1588 1475 1720 1792 1570 1408 1001 1244 1530 1426 1395 1002 897 868 858 641 429 430 399 387 423 508 963 1279 1011 990 1001 914 965 1006 950 893 785 613 537 528 552 524 386 352 400 387
1484 1529 1590 1659 1697 1639 1737 1734 1511 1271 1234 1320 865 852 571 376 337 246 160 341 370 358 295 424 671 972 1083 1048 1240 1145 963 876 921 961 925 767 601 504 468 444 422 422 475
1435 1358 1372 1290 1618 1646 1270 1784 1418 1288 1167 1098 1029 733 460 251 253 192 219 205 222 252 200 299 284 441 822 664 666 820 710 516 636 792 992 1158 1063 821 677 594 573 544 532
1510 1532 1493 1253 1410 1471 1695 1310 1444 1181 1135 842 1097 919 849 545 353 223 289 267 324 307 369 303 233 318 595 720 677 625 572 378 303 541 972 1239 1570 1275 1152 974 863 837 789
1699 1543 1322 1495 1151 1549 1475 1540 1281 1380 1097 995 968 960 846 772 717 486 331 314 339 326 381 499 325 290 466 570 558 862 644 250 220 303 527 565 900 1385 1336 1332 1197 1109 978
1854 1687 1574 1504 1495 1317 1336 1437 1341 1154 1180 994 977 1007 903 867 629 517 362 399 419 454 403 358 366 353 346 334 575 515 619 398 256 252 169 218 676 1005 1102 1240 1340 1181 539
1199 1457 1626 1681 1604 1592 1578 1548 1266 1196 1033 1185 1039 966 935 969 777 624 563 426 388 461 460 364 370 356 434 538 602 404 382 236 162 114 271 274 365 570 631 775 679 452 702
2 114 426 906 1303 1593 1683 1567 1562 1430 1412 1048 1040 1107 957 907 925 810 692 630 514 368 434 466 424 618 617 717 743 378 369 165 191 274 245 268 294 285 377 123 209 370 443
1 5 49 148 389 894 1288 1392 1293 1316 1422 1285 1253 1308 1265 1052 939 895 813 637 599 463 101 202 497 564 534 646 665 700 811 754 298 243 171 132 143 145 141 45 183 227 225
0 1 6 42 139 278 533 891 1051 1159 1129 1108 1130 1037 1087 1140 1057 976 893 746 592 559 495 462 231 521 531 342 511 560 768 579 441 310 262 145 88 70 55 24 105 190 144
0 2 3 6 21 88 283 433 549 947 970 1027 983 922 892 885 735 795 869 819 779 623 445 553 528 499 748 386 219 496 804 861 607 432 281 167 105 59 38 60 84 110 93
0 0 0 2 5 25 77 152 298 430 812 875 871 856 810 790 663 494 445 280 466 572 373 470 562 623 594 693 678 796 847 636 573 511 454 187 124 75 47 57 91 60 49
0 0 2 1 0 0 4 52 142 276 639 754 896 889 718 610 556 491 349 377 171 150 247 123 427 622 509 579 601 858 952 936 827 597 369 204 132 91 79 71 90 37 33
0 5 6 6 4 3 6 11 28 143 379 654 705 845 708 711 403 236 7 0 0 0 47 98 213 414 515 505 540 360 614 784 678 555 463 307 474 168 83 109 91 53 29
28 5 1 4 14 12 10 9 13 60 216 419 649 624 722 692 532 181 0 0 0 1 11 154 116 212 420 480 420 272 461 391 711 983 589 684 626 566 375 74 183 80 35
4 0 0 10 2 2 6 1 4 16 60 353 539 595 639 372 138 0 0 0 0 0 0 22 139 155 308 306 277 343 512 592 499 624 812 508 503 588 597 636 504 198 57
0 0 1 1 2 3 5 1 0 4 9 116 424 594 478 462 117 13 0 0 0 0 0 47 54 111 221 252 441 490 681 832 648 676 668 492 573 576 548 526 398 185 44
0 0 3 0 5 3 0 0 0 3 34 45 354 510 474 452 277 158 71 9 4 30 36 26 89 223 282 320 611 653 725 950 860 872 801 511 437 516 419 579 350 58 3
2 0 0 0 2 5 2 0 0 2 99 150 110 358 408 295 117 14 4 0 16 19 62 0 25 11 50 138 466 693 554 617 519 573 687 464 384 442 354 370 315 5 0
0 0 0 0 1 3 3 1 1 42 170 134 174 185 128 239 68 0 9 121 123 123 61 28 53 34 50 171 255 351 466 480 418 404 533 406 328 441 328 261 216 77 1

GFSMA_con_mlcape_138.txt.gz
CAPE
907 973 807 970 915 921 1058 1099 1029 990 1165 785 338 280 467 588 694 726 654 921 644 616 1059 1347 1284 1114 821 754 613 520 296 918 1268 718 465 383 401 472 552 915 858 852 534
1320 1249 1246 1172 734 1025 1498 1497 1525 914 948 674 290 239 202 424 599 715 655 958 758 644 970 994 989 749 1014 823 548 386 234 536 901 970 824 752 571 526 401 327 691 343 221
1464 1500 1147 1068 1099 821 1548 1630 1546 1740 1303 717 466 306 169 155 402 723 750 782 1216 826 774 694 606 441 697 1104 1094 774 483 384 270 342 884 1077 1027 644 506 324 92 160 182
1581 1459 1146 977 966 1589 1161 1558 1060 1216 1236 848 464 349 108 153 230 646 788 670 777 898 1050 832 494 313 455 892 1240 1362 1107 795 546 280 141 236 547 612 349 295 226 161 258
1379 1404 1077 909 1040 1040 1235 1452 1457 1097 1269 1141 956 521 324 268 341 326 319 474 683 745 699 1068 901 594 435 581 823 1038 1174 1067 899 724 515 376 285 320 322 308 261 311 321
1377 1408 1233 1123 1319 1256 1227 1329 1522 1189 1221 1450 1101 694 564 402 298 247 257 424 471 589 692 769 1407 1328 705 508 705 872 954 1013 844 868 789 634 515 445 463 451 409 364 349
1325 1605 1618 1304 1549 1505 1564 1533 1858 1594 1159 1198 1195 1111 737 865 936 631 291 228 133 193 370 409 774 796 911 903 861 834 902 920 925 900 883 836 768 647 542 511 477 461 440
1670 1646 1744 1668 1616 1624 1792 1766 1686 1719 1434 1453 1064 1005 702 514 400 553 586 316 201 170 150 245 438 831 1072 711 1080 1288 1223 1055 940 1037 1014 965 1005 965 811 661 541 465 442
1848 1860 1720 1492 1401 1141 1348 1466 1505 1662 1425 990 1148 1219 647 420 276 280 314 341 181 160 227 271 285 287 636 965 652 696 1025 900 726 822 813 764 933 1011 1016 950 832 674 566
1830 1726 1931 1496 1515 1407 1292 1219 1380 1388 1389 1032 1045 1176 1132 834 612 229 210 494 682 736 445 231 171 219 402 526 511 406 519 724 675 609 591 600 884 1048 1222 1318 1255 1051 930
2145 2285 2199 2116 2166 2081 1416 1490 1507 1536 1468 1229 1020 906 971 1184 1200 1094 397 223 684 710 559 628 463 267 301 527 543 726 751 655 551 499 396 510 661 737 809 1355 1373 1319 1256
893 1259 1696 1838 1952 1742 1997 1687 1694 1628 1525 1317 1142 1069 850 897 965 1008 864 611 279 267 582 715 321 327 289 366 678 550 443 566 677 495 222 296 322 336 579 1172 1256 1251 1418
0 5 89 649 918 1386 1507 1584 1631 1846 1779 1535 1274 1261 1075 1006 857 706 736 565 439 365 402 671 654 639 521 433 192 319 435 505 415 376 177 160 116 327 390 694 914 1051 1260
0 5 50 76 94 161 471 1133 1403 1507 1440 1434 1702 1501 1048 1137 1130 898 784 760 543 413 345 374 506 661 630 725 642 533 592 515 195 115 78 105 187 163 302 390 522 570 390
0 0 2 22 46 66 135 260 424 1030 1330 1306 1348 1591 1620 1416 1015 1213 1171 952 731 491 245 374 420 664 709 849 825 840 806 846 474 241 127 99 108 149 137 181 287 142 116
0 0 2 5 12 33 53 111 227 392 524 1000 1264 1249 1413 1617 1528 1259 1108 1028 1021 807 516 386 327 323 676 797 796 767 886 875 755 377 214 142 192 138 84 67 86 66 94
1 1 1 3 5 3 18 63 123 148 207 335 788 1056 1112 1336 1544 1411 1065 781 583 972 875 791 590 523 1013 864 854 586 657 736 724 566 272 248 220 153 103 51 2 0 54
1 5 13 14 14 64 52 46 56 84 107 192 332 684 971 1109 1224 1443 1221 1104 960 913 884 831 817 831 825 1088 1252 1169 828 353 572 619 424 316 211 174 98 57 12 0 20
11 29 16 16 18 9 5 38 35 46 55 150 272 413 653 984 1105 1110 1209 1251 1079 957 847 771 784 882 779 914 982 1113 1150 996 553 597 425 375 264 164 90 67 28 11 16
29 28 17 11 5 7 4 15 26 26 20 58 297 408 508 767 944 1112 1198 1153 970 845 508 429 428 355 289 349 904 744 769 848 594 564 505 443 382 136 82 67 40 41 29
57 37 20 3 6 8 0 2 1 2 10 20 80 385 450 548 674 916 967 905 820 714 421 157 66 33 29 26 365 612 589 418 537 671 512 442 394 455 535 146 150 53 50
55 41 4 6 11 4 0 2 1 1 4 16 37 171 420 496 500 452 725 516 608 545 351 11 8 15 23 114 594 346 538 355 280 468 757 441 302 418 535 568 580 257 84
167 58 3 22 23 0 0 2 0 3 2 5 6 184 453 476 507 553 431 464 294 0 11 94 167 0 12 95 119 344 467 467 455 400 772 520 389 367 398 413 399 343 161
119 38 11 12 2 2 0 1 0 1 4 4 5 220 375 554 557 576 610 372 201 162 60 8 0 15 160 237 108 320 639 691 852 797 1047 604 301 376 512 414 323 293 232
79 34 27 5 0 0 0 0 1 3 4 2 156 337 417 476 460 397 515 474 491 414 136 27 11 45 50 71 172 575 475 477 569 738 728 635 363 381 355 331 497 302 224
47 14 11 5 0 0 1 0 5 2 2 18 224 339 264 263 393 322 492 598 559 595 390 255 191 105 31 101 2 0 14 592 572 626 722 604 476 408 420 301 375 316 151